[[{"header":{"parameterUnit":"m.s-1","parameterCategory":1,"la1":30.6,"la2":28.766,"lo1":-90.7593,"lo2":-88.6598,"dx":0.0162,"dy":0.0183,"nx":116,"ny":114,"refTime":"2023-01-27T06:00:00:Z","depth":0,"parameterNumber":2,"parameterNumberName":"U-component_of_WINDS"},"data":[0.0,0.0,0.0,0.0,0.0,0.0,0.0,0.0,0.0,0.0,0.0,0.0,0.0,0.0,0.0,0.0,0.0,0.0,0.0,0.0,0.0,0.0,0.0,0.0,0.0,0.0,0.0,0.0,0.0,0.0,0.0,0.0,0.0,0.0,0.0,0.0,0.0,0.0,0.0,0.0,0.0,0.0,0.0,0.0,0.0,0.0,0.0,0.0,0.0,0.0,0.0,0.0,0.0,0.0,0.0,0.0,0.0,0.0,0.0,0.0,0.0,0.0,0.0,0.0,0.0,0.0,0.0,0.0,0.0,0.0,0.0,0.0,0.0,0.0,0.0,0.0,0.0,0.0,0.0,0.0,0.0,0.0,0.0,0.0,0.0,0.0,0.0,0.0,0.0,0.0,0.0,0.0,0.0,0.0,0.0,0.0,0.0,0.0,0.0,0.0,0.0,0.0,0.0,0.0,0.0,0.0,0.0,0.0,0.0,0.0,0.0,0.0,0.0,0.0,0.0,0.0,0.0,0.0,0.0,0.0,0.0,0.0,0.0,0.0,0.0,0.0,0.0,0.0,0.0,0.0,0.0,0.0,0.0,0.0,0.0,0.0,0.0,0.0,0.0,0.0,0.0,0.0,0.0,0.0,0.0,0.0,0.0,0.0,0.0,0.0,0.0,0.0,0.0,0.0,0.0,0.0,0.0,0.0,0.0,0.0,0.0,0.0,0.0,0.0,0.0,0.0,0.0,0.0,0.0,0.0,0.0,0.0,0.0,0.0,0.0,0.0,0.0,0.0,0.0,0.0,0.0,0.0,0.0,0.0,0.0,0.0,0.0,0.0,0.0,0.0,0.0,0.0,0.0,0.0,0.0,0.0,0.0,0.0,0.0,0.0,0.0,0.0,0.0,0.0,0.0,0.0,0.0,0.0,0.0,0.0,0.0,0.0,0.0,0.0,0.0,0.0,0.0,0.0,0.0,0.0,0.0,0.0,0.0,0.0,0.0,0.0,0.0,0.0,0.0,0.0,0.0,0.0,0.0,0.0,0.0,0.0,0.0,0.0,0.0,0.0,0.0,0.0,0.0,0.0,0.0,0.0,0.0,0.0,0.0,0.0,0.0,0.0,0.0,0.0,0.0,0.0,0.0,0.0,0.0,0.0,0.0,0.0,0.0,0.0,0.0,0.0,0.0,0.0,0.0,0.0,0.0,0.0,0.0,0.0,0.0,0.0,0.0,0.0,0.0,0.0,0.0,0.0,0.0,0.0,0.0,0.0,0.0,0.0,0.0,0.0,0.0,0.0,0.0,0.0,0.0,0.0,0.0,0.0,0.0,0.0,0.0,0.0,0.0,0.0,0.0,0.0,0.0,0.0,0.0,0.0,0.0,0.0,0.0,0.0,0.0,0.0,0.0,0.0,0.0,0.0,0.0,0.0,0.0,0.0,0.0,0.0,0.0,0.0,0.0,0.0,0.0,0.0,0.0,0.0,0.0,0.0,0.0,0.0,0.0,0.0,0.0,0.0,0.0,0.0,0.0,0.0,0.0,0.0,0.0,0.0,0.0,0.0,0.0,0.0,0.0,0.0,0.0,0.0,0.0,0.0,0.0,0.0,0.0,0.0,0.0,0.0,0.0,0.0,0.0,0.0,0.0,0.0,0.0,0.0,0.0,0.0,0.0,0.0,0.0,0.0,0.0,0.0,0.0,0.0,0.0,0.0,0.0,0.0,0.0,0.0,0.0,0.0,0.0,0.0,0.0,0.0,0.0,0.0,0.0,0.0,0.0,0.0,0.0,0.0,0.0,0.0,0.0,0.0,0.0,0.0,0.0,0.0,0.0,0.0,0.0,0.0,0.0,0.0,0.0,0.0,0.0,0.0,0.0,0.0,0.0,0.0,0.0,0.0,0.0,0.0,0.0,0.0,0.0,0.0,0.0,0.0,0.0,0.0,0.0,0.0,0.0,0.0,0.0,0.0,0.0,0.0,0.0,0.0,0.0,0.0,0.0,0.0,0.0,0.0,0.0,0.0,0.0,0.0,0.0,0.0,0.0,0.0,0.0,0.0,0.0,0.0,0.0,0.0,0.0,0.0,0.0,0.0,0.0,0.0,0.0,0.0,0.0,0.0,0.0,0.0,0.0,0.0,0.0,0.0,0.0,0.0,0.0,0.0,0.0,0.0,0.0,0.0,0.0,0.0,0.0,0.0,0.0,0.0,0.0,0.0,0.0,0.0,0.0,0.0,0.0,0.0,0.0,0.0,0.0,0.0,0.0,0.0,0.0,0.0,0.0,0.0,0.0,0.0,0.0,0.0,0.0,0.0,0.0,0.0,0.0,0.0,0.0,0.0,0.0,0.0,0.0,0.0,0.0,0.0,0.0,0.0,0.0,0.0,0.0,0.0,0.0,0.0,0.0,0.0,0.0,0.0,0.0,0.0,0.0,0.0,0.0,0.0,0.0,0.0,0.0,0.0,0.0,0.0,0.0,0.0,0.0,0.0,0.0,0.0,0.0,0.0,0.0,0.0,0.0,0.0,0.0,0.0,0.0,0.0,0.0,0.0,0.0,0.0,0.0,0.0,0.0,0.0,0.0,0.0,0.0,0.0,0.0,0.0,0.0,0.0,0.0,0.0,0.0,0.0,0.0,0.0,0.0,0.0,0.0,0.0,0.0,0.0,0.0,0.0,0.0,0.0,0.0,0.0,0.0,0.0,0.0,0.0,0.0,0.0,0.0,0.0,0.0,0.0,0.0,0.0,0.0,0.0,0.0,0.0,0.0,0.0,0.0,0.0,0.0,0.0,0.0,0.0,0.0,0.0,0.0,0.0,0.0,0.0,0.0,0.0,0.0,0.0,0.0,0.0,0.0,0.0,0.0,0.0,0.0,0.0,0.0,0.0,0.0,0.0,0.0,0.0,0.0,0.0,0.0,0.0,0.0,0.0,0.0,0.0,0.0,0.0,0.0,0.0,0.0,0.0,0.0,0.0,0.0,0.0,0.0,0.0,0.0,0.0,0.0,0.0,0.0,0.0,0.0,0.0,0.0,0.0,0.0,0.0,0.0,0.0,0.0,0.0,0.0,0.0,0.0,0.0,0.0,0.0,0.0,0.0,0.0,0.0,0.0,0.0,0.0,0.0,0.0,0.0,0.0,0.0,0.0,0.0,0.0,0.0,0.0,0.0,0.0,0.0,0.0,0.0,0.0,0.0,0.0,0.0,0.0,0.0,0.0,0.0,0.0,0.0,0.0,0.0,0.0,0.0,0.0,0.0,0.0,0.0,0.0,0.0,0.0,0.0,0.0,0.0,0.0,0.0,0.0,0.0,0.0,0.0,0.0,0.0,0.0,0.0,0.0,0.0,0.0,0.0,0.0,0.0,0.0,0.0,0.0,0.0,0.0,0.0,0.0,0.0,0.0,0.0,0.0,0.0,0.0,0.0,0.0,0.0,0.0,0.0,0.0,0.0,0.0,0.0,0.0,0.0,0.0,0.0,0.0,0.0,0.0,0.0,0.0,0.0,0.0,0.0,0.0,0.0,0.0,0.0,0.0,0.0,0.0,0.0,0.0,0.0,0.0,0.0,0.0,0.0,0.0,0.0,0.0,0.0,0.0,0.0,0.0,0.0,0.0,0.0,0.0,0.0,0.0,0.0,0.0,0.0,0.0,0.0,0.0,0.0,0.0,0.0,0.0,0.0,0.0,0.0,0.0,0.0,0.0,0.0,0.0,0.0,0.0,0.0,0.0,0.0,0.0,0.0,0.0,0.0,0.0,0.0,0.0,0.0,0.0,0.0,0.0,0.0,0.0,0.0,0.0,0.0,0.0,0.0,0.0,0.0,0.0,0.0,0.0,0.0,0.0,0.0,0.0,0.0,0.0,0.0,0.0,0.0,0.0,0.0,0.0,0.0,0.0,0.0,0.0,0.0,0.0,0.0,0.0,0.0,0.0,0.0,0.0,0.0,0.0,0.0,0.0,0.0,0.0,0.0,0.0,0.0,0.0,0.0,0.0,0.0,0.0,0.0,0.0,0.0,0.0,0.0,0.0,0.0,0.0,0.0,0.0,0.0,0.0,0.0,0.0,0.0,0.0,0.0,0.0,0.0,0.0,0.0,0.0,0.0,0.0,0.0,0.0,0.0,0.0,0.0,0.0,0.0,0.0,0.0,0.0,0.0,0.0,0.0,0.0,0.0,0.0,0.0,0.0,0.0,0.0,0.0,0.0,0.0,0.0,0.0,0.0,0.0,0.0,0.0,0.0,0.0,0.0,0.0,0.0,0.0,0.0,0.0,0.0,0.0,0.0,0.0,0.0,0.0,0.0,0.0,0.0,0.0,0.0,0.0,0.0,0.0,0.0,0.0,0.0,0.0,0.0,0.0,0.0,0.0,0.0,0.0,0.0,0.0,0.0,0.0,0.0,0.0,0.0,0.0,0.0,0.0,0.0,0.0,0.0,0.0,0.0,0.0,0.0,0.0,0.0,0.0,0.0,0.0,0.0,0.0,0.0,0.0,0.0,0.0,0.0,0.0,0.0,0.0,0.0,0.0,0.0,0.0,0.0,0.0,0.0,0.0,0.0,0.0,0.0,0.0,0.0,0.0,0.0,0.0,0.0,0.0,0.0,0.0,0.0,0.0,0.0,0.0,0.0,0.0,0.0,0.0,0.0,0.0,0.0,0.0,0.0,0.0,0.0,0.0,0.0,0.0,0.0,0.0,0.0,0.0,0.0,0.0,0.0,0.0,0.0,0.0,0.0,0.0,0.0,0.0,0.0,0.0,0.0,0.0,0.0,0.0,0.0,0.0,0.0,0.0,0.0,0.0,0.0,0.0,0.0,0.0,0.0,0.0,0.0,0.0,0.0,0.0,0.0,0.0,0.0,0.0,0.0,0.0,0.0,0.0,0.0,0.0,0.0,0.0,0.0,0.0,0.0,0.0,0.0,0.0,0.0,0.0,0.0,0.0,0.0,0.0,0.0,0.0,0.0,0.0,0.0,0.0,0.0,0.0,0.0,0.0,0.0,0.0,0.0,0.0,0.0,0.0,0.0,0.0,0.0,0.0,0.0,0.0,0.0,0.0,0.0,0.0,0.0,0.0,0.0,0.0,0.0,0.0,0.0,0.0,0.0,0.0,0.0,0.0,0.0,0.0,0.0,0.0,0.0,0.0,0.0,0.0,0.0,0.0,0.0,0.0,0.0,0.0,0.0,0.0,0.0,0.0,0.0,0.0,0.0,0.0,0.0,0.0,0.0,0.0,0.0,0.0,0.0,0.0,0.0,0.0,0.0,0.0,0.0,0.0,0.0,0.0,0.0,0.0,0.0,0.0,0.0,0.0,0.0,0.0,0.0,0.0,0.0,0.0,0.0,0.0,0.0,0.0,0.0,0.0,0.0,0.0,0.0,0.0,0.0,0.0,0.0,0.0,0.0,0.0,0.0,0.0,0.0,0.0,0.0,0.0,0.0,0.0,0.0,0.0,0.0,0.0,0.0,0.0,0.0,0.0,0.0,0.0,0.0,0.0,0.0,0.0,0.0,0.0,0.0,0.0,0.0,0.0,0.0,0.0,0.0,0.0,0.0,0.0,0.0,0.0,0.0,0.0,0.0,0.0,0.0,0.0,0.0,0.0,0.0,0.0,0.0,0.0,0.0,0.0,0.0,0.0,0.0,0.0,0.0,0.0,0.0,0.0,0.0,0.0,0.0,0.0,0.0,0.0,0.0,0.0,0.0,0.0,0.0,0.0,0.0,0.0,0.0,0.0,0.0,0.0,0.0,0.0,0.0,0.0,0.0,0.0,0.0,0.0,0.0,0.0,0.0,0.0,0.0,0.0,0.0,0.0,0.0,0.0,0.0,0.0,0.0,0.0,0.0,0.0,0.0,0.0,0.0,0.0,0.0,0.0,0.0,0.0,0.0,0.0,0.0,0.0,0.0,0.0,0.0,0.0,0.0,0.0,0.0,0.0,0.0,0.0,0.0,0.0,0.0,0.0,0.0,0.0,0.0,0.0,0.0,0.0,0.0,0.0,0.0,0.0,0.0,0.0,0.0,0.0,0.0,0.0,0.0,0.0,0.0,0.0,0.0,0.0,0.0,0.0,0.0,0.0,0.0,0.0,0.0,0.0,-2.8967,-2.9167,0.0,0.0,0.0,0.0,0.0,0.0,0.0,0.0,0.0,0.0,0.0,0.0,0.0,0.0,0.0,0.0,0.0,0.0,0.0,0.0,0.0,0.0,0.0,0.0,0.0,0.0,0.0,0.0,0.0,0.0,0.0,0.0,0.0,0.0,0.0,0.0,0.0,0.0,0.0,0.0,0.0,0.0,0.0,0.0,0.0,0.0,0.0,0.0,0.0,0.0,0.0,0.0,0.0,0.0,0.0,0.0,0.0,0.0,0.0,0.0,0.0,0.0,0.0,0.0,0.0,0.0,0.0,0.0,0.0,0.0,0.0,0.0,0.0,0.0,0.0,0.0,0.0,0.0,0.0,0.0,0.0,0.0,0.0,0.0,0.0,0.0,0.0,0.0,0.0,0.0,0.0,0.0,0.0,0.0,0.0,0.0,0.0,0.0,0.0,0.0,0.0,0.0,0.0,0.0,0.0,0.0,0.0,0.0,0.0,0.0,0.0,0.0,0.0,0.0,-2.7834,-2.8026,0.0,0.0,0.0,0.0,0.0,0.0,0.0,0.0,0.0,0.0,0.0,0.0,0.0,0.0,0.0,0.0,0.0,0.0,0.0,0.0,0.0,0.0,0.0,0.0,0.0,0.0,0.0,0.0,0.0,0.0,0.0,0.0,0.0,0.0,0.0,0.0,0.0,0.0,0.0,0.0,0.0,0.0,0.0,0.0,0.0,0.0,0.0,0.0,0.0,0.0,0.0,0.0,0.0,0.0,0.0,0.0,0.0,0.0,0.0,0.0,0.0,0.0,0.0,0.0,0.0,0.0,0.0,0.0,0.0,0.0,0.0,0.0,0.0,0.0,0.0,0.0,0.0,0.0,0.0,0.0,0.0,0.0,0.0,0.0,0.0,0.0,0.0,0.0,0.0,0.0,0.0,0.0,0.0,0.0,0.0,0.0,0.0,0.0,0.0,0.0,0.0,0.0,0.0,0.0,0.0,0.0,0.0,0.0,-2.7069,-2.688,-2.6908,-2.794,-2.7837,-2.7012,-2.7176,-2.7254,-2.7174,-2.6764,0.0,0.0,0.0,0.0,0.0,0.0,0.0,0.0,0.0,0.0,0.0,0.0,0.0,0.0,0.0,0.0,0.0,0.0,0.0,0.0,0.0,0.0,0.0,0.0,0.0,0.0,0.0,0.0,0.0,0.0,0.0,0.0,0.0,0.0,0.0,0.0,0.0,0.0,0.0,0.0,0.0,0.0,0.0,0.0,0.0,0.0,0.0,0.0,0.0,0.0,0.0,0.0,0.0,0.0,0.0,0.0,0.0,0.0,0.0,0.0,0.0,0.0,0.0,0.0,0.0,0.0,0.0,0.0,0.0,0.0,0.0,0.0,0.0,0.0,0.0,0.0,0.0,0.0,0.0,0.0,0.0,0.0,0.0,0.0,0.0,0.0,-2.823,-2.8043,0.0,0.0,0.0,0.0,0.0,0.0,0.0,0.0,0.0,0.0,0.0,0.0,0.0,-2.5469,-2.4893,-2.5859,-2.6049,-2.5493,-2.7202,-2.7486,-2.654,-2.7173,-2.7268,-2.6812,-2.6887,0.0,-2.7881,-2.7364,0.0,0.0,0.0,0.0,0.0,0.0,0.0,0.0,0.0,0.0,0.0,0.0,0.0,0.0,0.0,0.0,0.0,0.0,0.0,0.0,0.0,0.0,0.0,0.0,0.0,0.0,0.0,0.0,0.0,0.0,0.0,0.0,0.0,0.0,0.0,0.0,0.0,0.0,0.0,0.0,0.0,0.0,0.0,0.0,0.0,0.0,0.0,0.0,0.0,0.0,0.0,0.0,0.0,0.0,0.0,0.0,0.0,0.0,0.0,0.0,0.0,0.0,0.0,0.0,0.0,0.0,0.0,0.0,0.0,0.0,0.0,0.0,0.0,0.0,0.0,0.0,0.0,0.0,0.0,0.0,0.0,0.0,0.0,0.0,0.0,-2.7407,-2.6871,-2.633,-2.6232,-2.5959,0.0,0.0,0.0,0.0,0.0,0.0,0.0,0.0,0.0,-2.5219,-2.5617,-2.5869,-2.5852,-2.6867,-2.7268,-2.7081,-2.8136,-2.8457,-2.8136,-2.8217,-2.8283,-2.8297,-2.7976,-2.7921,-2.8097,-2.7015,-2.5956,-2.5109,0.0,0.0,0.0,0.0,-2.4689,-2.4588,0.0,0.0,0.0,0.0,0.0,0.0,0.0,0.0,0.0,0.0,0.0,0.0,0.0,0.0,0.0,0.0,0.0,0.0,0.0,0.0,0.0,0.0,0.0,0.0,0.0,0.0,0.0,0.0,0.0,0.0,0.0,0.0,0.0,0.0,0.0,0.0,0.0,0.0,0.0,0.0,0.0,0.0,0.0,0.0,0.0,0.0,0.0,0.0,0.0,0.0,0.0,0.0,0.0,0.0,0.0,0.0,0.0,0.0,0.0,0.0,0.0,0.0,0.0,0.0,0.0,0.0,0.0,0.0,0.0,0.0,0.0,0.0,0.0,0.0,0.0,0.0,0.0,-2.6248,-2.5785,-2.4828,-2.5367,-2.5459,0.0,0.0,0.0,0.0,0.0,0.0,-2.3647,-2.4422,-2.5104,-2.5625,-2.6132,-2.672,-2.7388,-2.8123,-2.8564,-2.8724,-2.9085,-2.9339,-2.9472,-2.9259,-2.9232,-2.9352,-2.8991,-2.8564,-2.8127,-2.672,-2.5531,-2.4529,-2.4369,-2.4008,-2.3607,-2.4128,-2.4182,-2.4062,0.0,0.0,0.0,0.0,0.0,0.0,0.0,0.0,0.0,0.0,0.0,0.0,0.0,0.0,0.0,0.0,0.0,0.0,0.0,0.0,0.0,0.0,0.0,0.0,0.0,0.0,0.0,0.0,0.0,0.0,0.0,0.0,0.0,0.0,0.0,0.0,0.0,0.0,0.0,0.0,0.0,0.0,0.0,0.0,0.0,0.0,0.0,0.0,0.0,0.0,0.0,0.0,0.0,0.0,0.0,0.0,0.0,0.0,0.0,0.0,0.0,0.0,0.0,0.0,0.0,0.0,0.0,0.0,0.0,0.0,0.0,0.0,0.0,0.0,0.0,0.0,0.0,0.0,0.0,-2.413,-2.4191,0.0,0.0,0.0,0.0,-2.2956,-2.3762,-2.4335,-2.4556,-2.5144,-2.5985,-2.7121,-2.7455,-2.803,-2.8925,-2.9245,-2.9285,-2.9032,-2.9593,-2.974,-2.9486,-2.9472,-2.9312,-2.9072,-2.9325,-2.8951,-2.8154,-2.7161,-2.6253,-2.5398,-2.4836,-2.4422,-2.4195,-2.4502,-2.4609,-2.4636,0.0,0.0,0.0,0.0,0.0,0.0,0.0,0.0,0.0,0.0,0.0,0.0,0.0,0.0,0.0,0.0,0.0,0.0,0.0,0.0,0.0,0.0,0.0,0.0,0.0,0.0,0.0,0.0,0.0,0.0,0.0,0.0,0.0,0.0,0.0,0.0,0.0,0.0,0.0,0.0,0.0,0.0,0.0,0.0,0.0,0.0,0.0,0.0,0.0,0.0,0.0,0.0,0.0,0.0,0.0,0.0,0.0,0.0,0.0,0.0,0.0,0.0,0.0,0.0,0.0,0.0,0.0,0.0,0.0,0.0,0.0,0.0,0.0,0.0,0.0,0.0,0.0,0.0,0.0,-2.3929,-2.439,0.0,-2.3647,-2.3768,-2.4008,-2.4262,-2.493,-2.5625,-2.6293,-2.6881,-2.7495,-2.811,-2.8591,-2.9005,-2.9325,-2.9619,-2.9713,-2.9606,-2.982,-2.986,-2.9766,-2.9766,-2.9606,-2.9325,-2.9232,-2.8911,-2.8404,-2.7883,-2.7268,-2.6653,-2.6827,-2.648,-2.5919,-2.6226,-2.6213,-2.6052,0.0,0.0,0.0,0.0,0.0,0.0,0.0,0.0,0.0,0.0,0.0,0.0,0.0,0.0,0.0,0.0,0.0,0.0,0.0,0.0,0.0,0.0,0.0,0.0,0.0,0.0,0.0,0.0,0.0,0.0,0.0,0.0,0.0,0.0,0.0,0.0,0.0,0.0,0.0,0.0,0.0,0.0,-3.5392,0.0,0.0,0.0,0.0,0.0,0.0,0.0,0.0,0.0,0.0,0.0,0.0,0.0,0.0,0.0,0.0,0.0,0.0,0.0,0.0,0.0,0.0,0.0,0.0,0.0,0.0,0.0,0.0,0.0,0.0,0.0,0.0,0.0,0.0,-2.3789,-2.4022,-2.3928,-2.4957,-2.5358,-2.4569,-2.4943,-2.5358,-2.5651,-2.64,-2.7054,-2.7618,-2.803,-2.8444,-2.8751,-2.9125,-2.9432,-2.9633,-2.982,-2.9913,-2.9913,-2.982,-2.9766,-2.9766,-2.9766,-2.9553,-2.9192,-2.9192,-2.8911,-2.8457,-2.8551,-2.8123,-2.7442,-2.7819,-2.7482,-2.6987,-2.7081,-2.6987,-2.6814,0.0,0.0,0.0,0.0,0.0,0.0,0.0,0.0,0.0,0.0,0.0,0.0,0.0,0.0,0.0,0.0,0.0,0.0,0.0,0.0,0.0,0.0,0.0,0.0,0.0,0.0,0.0,0.0,0.0,0.0,0.0,0.0,0.0,0.0,0.0,0.0,0.0,0.0,0.0,0.0,0.0,0.0,-3.6218,0.0,0.0,0.0,0.0,0.0,0.0,0.0,0.0,0.0,0.0,0.0,0.0,0.0,0.0,0.0,0.0,0.0,0.0,0.0,0.0,0.0,0.0,0.0,0.0,0.0,0.0,0.0,0.0,0.0,0.0,0.0,0.0,0.0,-2.2458,-2.3728,-2.4569,-2.4315,-2.5798,-2.64,-2.5264,-2.644,-2.7175,-2.6894,-2.7949,-2.8484,-2.8288,-2.847,-2.8764,-2.9045,-2.9058,-2.9339,-2.9913,-2.9913,-2.9913,-2.9913,-2.9633,-2.9499,-2.9499,-2.9486,-2.9179,-2.8671,-2.9219,-2.8965,-2.8315,-2.9098,-2.8778,-2.7696,-2.7415,-2.7295,-2.7228,-2.6934,-2.6814,-2.6774,0.0,0.0,0.0,0.0,0.0,0.0,0.0,0.0,0.0,0.0,0.0,0.0,0.0,0.0,0.0,0.0,0.0,0.0,0.0,0.0,0.0,0.0,0.0,0.0,0.0,0.0,0.0,0.0,0.0,0.0,0.0,0.0,0.0,0.0,0.0,0.0,0.0,0.0,0.0,0.0,0.0,0.0,-3.5007,0.0,0.0,0.0,0.0,0.0,0.0,0.0,0.0,0.0,0.0,0.0,0.0,0.0,0.0,0.0,0.0,0.0,0.0,0.0,0.0,0.0,0.0,0.0,0.0,0.0,0.0,0.0,0.0,0.0,0.0,0.0,-2.2673,-2.3153,-2.3367,-2.4476,-2.5478,-2.6039,-2.672,-2.7094,-2.6987,-2.7348,-2.7722,-2.8096,-2.8417,-2.8751,-2.9098,-2.9192,-2.9285,-2.9352,-2.9566,-2.9753,-2.9913,-2.9913,-2.9913,-2.9913,-2.9833,-2.9793,-2.9793,-2.9579,-2.9392,-2.9232,-2.8965,-2.8831,-2.8791,-2.8831,-2.8657,-2.835,-2.827,-2.7843,-2.7228,-2.6934,-2.6694,-2.6493,0.0,0.0,0.0,0.0,0.0,0.0,0.0,0.0,0.0,0.0,0.0,0.0,0.0,0.0,0.0,0.0,0.0,0.0,0.0,0.0,0.0,0.0,0.0,0.0,0.0,0.0,0.0,0.0,0.0,0.0,0.0,0.0,0.0,0.0,0.0,0.0,0.0,0.0,0.0,0.0,0.0,0.0,-3.382,-3.2101,-3.1884,-3.2496,-3.1433,-3.1744,-3.2369,-3.1176,0.0,0.0,0.0,0.0,0.0,0.0,0.0,0.0,0.0,0.0,0.0,0.0,0.0,0.0,0.0,0.0,0.0,0.0,0.0,0.0,0.0,0.0,0.0,0.0,-2.318,-2.4022,-2.4436,-2.5291,-2.6159,-2.6921,-2.7375,-2.7749,-2.8056,-2.819,-2.8457,-2.8938,-2.8978,-2.9125,-2.9459,-2.9366,-2.9299,-2.9299,-2.9459,-2.9553,-2.9553,-2.9673,-2.9673,-2.9553,-2.9553,-2.9486,-2.9366,-2.9192,-2.9045,-2.8911,-2.8698,-2.8631,-2.8657,-2.8617,-2.8457,-2.823,0.0,0.0,0.0,0.0,-2.6533,-2.6386,0.0,0.0,0.0,0.0,0.0,0.0,0.0,0.0,0.0,0.0,0.0,0.0,0.0,0.0,0.0,0.0,0.0,0.0,0.0,0.0,0.0,0.0,0.0,0.0,0.0,0.0,0.0,0.0,0.0,0.0,0.0,0.0,0.0,0.0,0.0,0.0,0.0,0.0,0.0,0.0,0.0,0.0,-3.271,-3.0375,-3.0768,-3.2525,-3.1271,-3.1608,-3.2448,-3.1689,0.0,0.0,0.0,0.0,0.0,0.0,0.0,0.0,0.0,0.0,0.0,0.0,0.0,0.0,0.0,0.0,0.0,0.0,0.0,0.0,0.0,0.0,0.0,0.0,-2.3839,-2.4631,-2.5212,-2.5936,-2.6627,-2.7148,-2.7846,-2.8243,-2.8484,-2.8764,-2.9058,-2.9366,-2.9379,-2.9379,-2.9379,-2.9165,0.0,0.0,0.0,-2.9045,-2.9045,-2.9299,-2.9299,-2.9045,-2.9045,-2.8911,-2.8657,-2.8657,-2.8511,-2.8341,-2.8537,-2.8497,-2.8355,-2.8537,-2.827,-2.7696,-2.7629,-2.7428,-2.7108,-2.6587,-2.6386,-2.6386,0.0,0.0,0.0,0.0,0.0,0.0,0.0,0.0,0.0,0.0,0.0,0.0,0.0,0.0,0.0,0.0,0.0,0.0,0.0,0.0,0.0,0.0,0.0,0.0,0.0,0.0,0.0,0.0,0.0,0.0,0.0,0.0,0.0,0.0,0.0,0.0,0.0,0.0,0.0,0.0,0.0,0.0,-3.1919,-3.0835,-3.0494,-3.0444,-2.9615,-2.9725,-3.0113,-2.8903,-2.8998,-2.9458,-2.8443,0.0,0.0,0.0,0.0,0.0,0.0,0.0,0.0,0.0,0.0,0.0,0.0,0.0,0.0,0.0,0.0,0.0,0.0,0.0,0.0,-2.1579,-2.2571,-2.3418,-2.3891,-2.5538,-2.6774,-2.6894,-2.7642,-2.807,-2.7896,-2.8136,-2.8444,-2.8751,-2.8778,-2.8778,-2.8778,-2.8938,-2.8938,-2.8698,-2.8911,-2.9045,-2.9045,-2.9098,-2.9098,-2.9045,-2.9045,0.0,-2.8951,-2.8951,-2.8925,-2.8871,-2.8925,-2.8925,-2.8871,-2.8938,-2.8457,-2.7655,-2.7175,-2.6814,-2.6547,-2.6426,-2.6386,-2.6386,0.0,0.0,0.0,0.0,0.0,0.0,0.0,0.0,0.0,0.0,0.0,0.0,0.0,0.0,0.0,0.0,0.0,0.0,0.0,0.0,0.0,0.0,0.0,0.0,0.0,0.0,0.0,0.0,0.0,0.0,0.0,0.0,0.0,0.0,0.0,0.0,0.0,0.0,0.0,0.0,0.0,0.0,-2.9184,-2.8758,-2.8927,-2.9365,-2.9062,-2.9341,-2.986,-2.912,-2.8964,-2.8962,-2.8053,-2.7467,-2.698,0.0,0.0,0.0,0.0,0.0,0.0,0.0,0.0,0.0,0.0,0.0,0.0,0.0,0.0,-1.9236,0.0,0.0,-2.0283,-2.1805,-2.2689,-2.3267,-2.3664,-2.5494,-2.6545,-2.5783,-2.697,-2.7923,-2.7923,-2.819,-2.8444,-2.8591,-2.8604,-2.8604,-2.8604,-2.8751,-2.8764,-2.8604,-2.8751,-2.8751,-2.8591,-2.8751,-2.8751,-2.8591,-2.8751,-2.8818,-2.8818,-2.8818,-2.8818,-2.8818,-2.8818,-2.8738,-2.8591,-2.8591,-2.8243,-2.7669,-2.7375,-2.6907,-2.6386,-2.6386,-2.6386,-2.6413,0.0,0.0,0.0,0.0,0.0,0.0,0.0,0.0,0.0,0.0,0.0,0.0,0.0,0.0,0.0,0.0,0.0,0.0,0.0,0.0,0.0,0.0,0.0,0.0,0.0,0.0,0.0,0.0,0.0,0.0,0.0,0.0,0.0,0.0,0.0,0.0,0.0,0.0,0.0,0.0,0.0,0.0,-2.7207,-2.6945,-2.7515,-2.8356,-2.8221,-2.858,-2.902,-2.8995,-2.855,-2.7875,-2.7382,-2.7183,-2.684,-2.5344,-2.531,0.0,0.0,0.0,0.0,0.0,0.0,0.0,0.0,0.0,-1.9037,-1.9049,-1.8334,-1.7802,-1.8124,-1.8675,-1.9938,-2.2615,-2.3297,-2.3575,-2.3852,-2.5532,-2.6248,-2.4574,-2.6383,-2.7789,-2.8114,-2.8337,-2.8524,-2.8524,-2.8524,-2.8524,-2.8524,-2.8524,-2.8524,-2.8524,-2.8524,-2.839,-2.8234,-2.839,-2.839,-2.8234,-2.8457,-2.8577,-2.8524,-2.8631,-2.8631,-2.8524,-2.8524,-2.8417,-2.823,-2.8248,-2.7963,-2.7696,-2.7642,-2.7188,-2.656,-2.6493,-2.6466,-2.6493,0.0,0.0,0.0,0.0,0.0,0.0,0.0,0.0,0.0,0.0,0.0,0.0,0.0,0.0,0.0,0.0,0.0,0.0,0.0,0.0,0.0,0.0,0.0,0.0,0.0,0.0,0.0,0.0,0.0,0.0,0.0,0.0,0.0,0.0,0.0,0.0,0.0,0.0,0.0,0.0,0.0,0.0,-2.9241,-2.8777,-2.769,-2.6336,-2.5772,-2.5119,-2.461,-2.5057,-2.4661,-2.4075,-2.4739,-2.4603,-2.4061,-2.3065,0.0,-2.2052,-2.1354,-2.1231,-2.136,-2.171,-2.0335,-1.934,0.0,0.0,-1.7808,-1.7158,-1.8091,-1.8748,-1.784,-1.8988,-2.0846,-2.3062,-2.3587,-2.3864,-2.4037,-2.5647,-2.617,-2.432,-2.6267,-2.7709,-2.7749,-2.8016,-2.8274,-2.8274,-2.8274,-2.8274,-2.8274,-2.8274,-2.8274,-2.8274,-2.8274,-2.8261,-2.8221,-2.8261,-2.8261,-2.8234,-2.8457,-2.8457,-2.8301,-2.8751,-2.8698,-2.8274,-2.8274,-2.8337,-2.8537,-2.8341,-2.7963,-2.7669,-2.7415,-2.7255,-2.7134,-2.6867,-2.6774,-2.6747,0.0,0.0,0.0,0.0,0.0,0.0,0.0,0.0,0.0,0.0,0.0,0.0,0.0,0.0,0.0,0.0,0.0,0.0,0.0,0.0,0.0,0.0,0.0,0.0,0.0,0.0,0.0,0.0,0.0,0.0,0.0,0.0,0.0,0.0,0.0,0.0,0.0,0.0,0.0,0.0,0.0,0.0,-3.0293,-2.9919,-2.8735,-2.7186,-2.5918,-2.4757,0.0,0.0,-2.3789,-2.3153,-2.3701,-2.3581,-2.3073,-2.2178,-2.1977,0.0,-2.0503,-2.0667,-2.1115,0.0,-2.0022,-1.9903,-2.0886,-1.9614,-1.8407,-1.8648,-1.9233,-1.9661,-1.9631,-2.0184,-2.1388,0.0,-2.384,-2.39,-2.4085,-2.5532,-2.5922,-2.4134,-2.5869,-2.7255,-2.7428,-2.7953,-2.8154,-2.7896,-2.8127,-2.8073,-2.7655,-2.8047,-2.8154,-2.7896,-2.814,-2.814,-2.7883,-2.814,-2.814,-2.7883,-2.819,-2.8364,-2.8417,-2.8671,-2.8644,-2.839,-2.8043,-2.7963,-2.807,-2.7936,-2.7816,-2.7709,-2.7762,-2.7859,-2.7765,-2.6867,-2.668,-2.68,0.0,0.0,0.0,0.0,0.0,0.0,0.0,0.0,0.0,0.0,0.0,0.0,0.0,0.0,0.0,0.0,0.0,0.0,0.0,0.0,0.0,0.0,0.0,0.0,0.0,0.0,0.0,0.0,0.0,0.0,0.0,0.0,0.0,0.0,0.0,0.0,0.0,0.0,0.0,0.0,0.0,0.0,-3.1478,-3.0909,-2.9698,-2.8147,-2.6698,-2.5123,0.0,0.0,-2.3214,-2.2445,-2.2619,-2.2672,-2.2485,-2.1829,-2.1737,-2.1647,-2.0322,0.0,0.0,-2.0626,-2.0546,-2.0825,-2.1354,-2.0256,-1.9284,-2.0167,-2.0287,-2.0583,-2.1569,-2.176,-2.2442,-2.4517,-2.4671,-2.4609,-2.4808,-2.5775,-2.5964,-2.4606,-2.5788,-2.6881,-2.7014,-2.7631,-2.7843,-2.7709,-2.7896,-2.7886,-2.7295,-2.7913,-2.8087,-2.7709,-2.7909,-2.7923,-2.7696,-2.7909,-2.7909,-2.7696,-2.8083,-2.8337,-2.8484,-2.8484,-2.8484,-2.8457,-2.8016,-2.7816,-2.7816,-2.7816,-2.7816,-2.7829,-2.7963,-2.8154,-2.81,-2.6921,-2.6694,-2.6921,0.0,0.0,0.0,0.0,0.0,0.0,0.0,0.0,0.0,0.0,0.0,0.0,0.0,0.0,0.0,0.0,0.0,0.0,0.0,0.0,0.0,0.0,0.0,0.0,0.0,0.0,0.0,0.0,0.0,0.0,0.0,0.0,0.0,0.0,0.0,0.0,0.0,0.0,0.0,0.0,0.0,0.0,-3.2929,-3.2059,-3.0331,-2.8297,-2.7507,0.0,0.0,0.0,-2.2143,-2.1148,-2.1145,-2.1563,0.0,-2.1708,-2.1226,0.0,0.0,0.0,-2.1683,-2.2178,-2.1665,-2.1292,-2.2017,-2.098,-2.0125,-2.0841,-2.0993,-2.1545,-2.3345,-2.3724,-2.4283,-2.6083,-2.632,-2.6307,-2.632,-2.664,-2.66,-2.6039,-2.648,-2.6707,-2.644,-2.6947,-2.7402,-2.7682,-2.7709,-2.7575,-2.7281,-2.7913,-2.8087,-2.7709,-2.7709,-2.7709,-2.7696,-2.7709,-2.7709,-2.7709,-2.831,-2.8444,-2.8248,-2.8248,-2.8248,-2.8248,-2.8221,-2.8207,-2.8207,-2.8207,-2.8207,-2.8181,-2.7816,-2.7883,-2.8114,-2.7134,-2.7001,-2.7175,0.0,0.0,0.0,0.0,0.0,0.0,0.0,0.0,0.0,0.0,0.0,0.0,0.0,0.0,0.0,0.0,0.0,0.0,0.0,0.0,0.0,0.0,0.0,0.0,0.0,0.0,0.0,0.0,0.0,0.0,0.0,0.0,0.0,0.0,0.0,0.0,0.0,0.0,0.0,0.0,0.0,0.0,-3.3677,-3.2817,-3.1243,-2.9539,0.0,0.0,0.0,0.0,0.0,0.0,-2.0374,0.0,0.0,-2.0361,0.0,0.0,0.0,0.0,-2.2058,-2.1816,-2.1669,-2.1764,-2.2485,-2.2217,-2.196,-2.2478,-2.306,-2.3568,-2.4213,-2.4302,-2.4659,-2.5668,-2.5972,-2.6239,-2.6627,-2.66,-2.6319,-2.5732,-2.6012,0.0,0.0,-2.652,-2.7094,-2.7388,-2.7415,-2.7281,-2.6987,-2.7348,-2.7428,-2.7121,-2.7308,-2.7321,-2.7121,-2.7509,-2.7602,-2.7415,-2.8016,-2.8136,-2.7856,-2.814,-2.8114,-2.7843,-2.7843,-2.7843,-2.7843,-2.7843,-2.7843,-2.7856,-2.7949,-2.814,-2.8167,-2.7589,-2.7468,-2.7442,0.0,0.0,0.0,0.0,0.0,0.0,0.0,0.0,0.0,0.0,0.0,0.0,0.0,0.0,0.0,0.0,0.0,0.0,0.0,0.0,0.0,0.0,0.0,0.0,0.0,0.0,0.0,0.0,0.0,0.0,0.0,0.0,0.0,0.0,0.0,0.0,0.0,0.0,0.0,0.0,0.0,0.0,-3.3281,-3.2246,-3.1074,0.0,0.0,0.0,0.0,0.0,0.0,0.0,0.0,0.0,0.0,0.0,0.0,0.0,0.0,-2.1462,-2.268,-2.2473,-2.2674,-2.3104,-2.3718,-2.373,-2.3781,-2.4055,-2.4402,-2.4609,-2.4502,-2.4396,-2.4449,-2.4836,-2.505,-2.5411,-2.6106,-2.5945,-2.5705,-2.5531,-2.5678,-2.5718,0.0,0.0,-2.664,-2.6934,-2.7054,-2.6974,-2.668,-2.7054,-2.7134,-2.6827,-2.7001,-2.7014,-2.6827,-2.7201,-2.7348,-2.7268,-2.7749,-2.7883,-2.7709,-2.8087,-2.8043,-2.7856,-2.7749,-2.7762,-2.7856,-2.7749,-2.7762,-2.7883,-2.8154,-2.8221,-2.8194,-2.7802,-2.7779,-2.7837,0.0,0.0,0.0,0.0,0.0,0.0,0.0,0.0,0.0,0.0,0.0,0.0,0.0,0.0,0.0,0.0,0.0,0.0,0.0,0.0,0.0,0.0,0.0,0.0,0.0,0.0,0.0,0.0,0.0,0.0,0.0,0.0,0.0,0.0,0.0,0.0,0.0,0.0,0.0,0.0,0.0,0.0,-3.2035,-3.0625,0.0,0.0,0.0,0.0,0.0,0.0,0.0,0.0,0.0,0.0,0.0,0.0,0.0,-2.1283,-2.1871,-2.2686,-2.3514,-2.4102,-2.4663,-2.5157,-2.5424,-2.5491,-2.5478,-2.5438,-2.4957,-2.4449,0.0,0.0,-2.3701,-2.3728,-2.3794,-2.4142,-2.501,-2.489,-2.493,0.0,0.0,0.0,0.0,0.0,0.0,-2.6346,-2.664,-2.668,-2.64,-2.6921,-2.7094,-2.6814,-2.68,-2.68,-2.68,-2.6814,-2.6974,-2.7295,-2.7562,-2.7696,-2.7709,-2.8087,-2.8207,-2.8167,-2.7816,-2.7856,-2.8167,-2.7789,-2.7843,-2.8181,-2.8181,-2.8194,-2.8167,-2.7886,-2.8041,-2.829,0.0,0.0,0.0,0.0,0.0,0.0,0.0,0.0,0.0,0.0,0.0,0.0,0.0,0.0,0.0,0.0,0.0,0.0,0.0,0.0,0.0,0.0,0.0,0.0,0.0,0.0,0.0,0.0,0.0,0.0,0.0,0.0,0.0,0.0,0.0,0.0,0.0,0.0,0.0,0.0,0.0,0.0,-3.1657,0.0,0.0,0.0,0.0,0.0,0.0,0.0,0.0,0.0,0.0,0.0,-1.9893,0.0,0.0,-2.1884,-2.2485,-2.33,-2.4115,-2.4716,-2.497,-2.5104,-2.517,-2.5197,-2.501,-2.4342,-2.3728,-2.3086,0.0,0.0,0.0,-2.306,-2.4022,0.0,-2.5715,-2.5852,0.0,-2.5852,0.0,-2.5758,-2.5531,-2.5785,0.0,-2.6066,-2.6333,-2.6466,-2.6386,-2.6533,-2.6573,-2.6507,-2.6507,-2.6507,-2.6507,-2.6707,-2.7081,-2.7589,-2.7669,-2.7696,-2.7709,-2.8087,-2.7993,-2.7578,-2.7642,-2.7615,-2.7482,-2.7402,-2.7415,-2.7495,-2.7495,-2.7877,-2.8315,-2.8234,-2.8455,-2.8799,0.0,0.0,0.0,0.0,0.0,0.0,0.0,0.0,0.0,0.0,0.0,0.0,0.0,0.0,0.0,0.0,0.0,0.0,0.0,0.0,0.0,0.0,0.0,0.0,0.0,0.0,0.0,0.0,0.0,0.0,0.0,0.0,0.0,0.0,0.0,0.0,0.0,0.0,0.0,0.0,0.0,0.0,0.0,0.0,0.0,0.0,0.0,0.0,0.0,0.0,0.0,-2.0693,-2.0077,-2.0281,-2.0855,-2.1309,0.0,-2.2672,-2.314,-2.3915,-2.4663,-2.4997,-2.5184,-2.517,-2.4783,-2.4743,-2.4354,-2.3263,-2.2647,0.0,-2.1172,-2.1456,0.0,0.0,0.0,0.0,-2.5237,-2.5411,-2.5558,0.0,-2.6037,0.0,-2.5718,-2.5972,-2.6146,-2.6146,-2.6293,-2.6386,-2.6386,-2.6386,-2.6386,-2.6386,-2.6386,-2.6386,-2.6386,-2.6547,-2.6854,-2.7321,-2.7442,-2.7575,-2.7709,-2.7869,-2.7762,-2.7455,-2.7362,-2.7377,-2.75,-2.7202,-2.7229,-2.75,-2.7202,-2.75,-2.8167,-2.803,-2.8466,-2.9027,0.0,0.0,0.0,0.0,0.0,0.0,0.0,0.0,0.0,0.0,0.0,0.0,0.0,0.0,0.0,0.0,0.0,0.0,0.0,0.0,0.0,0.0,0.0,0.0,0.0,0.0,0.0,0.0,0.0,0.0,0.0,0.0,0.0,0.0,0.0,0.0,0.0,0.0,0.0,0.0,0.0,0.0,0.0,0.0,0.0,0.0,0.0,0.0,0.0,0.0,-2.3219,-2.2414,-2.1461,-2.1603,-2.2164,-2.2498,-2.2966,-2.3474,-2.3848,-2.4502,-2.5104,-2.5184,-2.5331,-2.5224,-2.4342,-2.4103,-2.3635,-2.219,0.0,-2.1306,-2.0402,-2.0717,-2.1145,-2.1266,0.0,-2.2993,-2.4489,-2.4516,-2.477,-2.5838,-2.6063,-2.6012,-2.6012,-2.6239,-2.6386,-2.6386,-2.6386,-2.6386,-2.6386,-2.6386,-2.6386,-2.6386,-2.6506,-2.6506,-2.6386,-2.6426,-2.6573,-2.6827,-2.7081,-2.7375,-2.7696,-2.7655,-2.7642,-2.7698,-2.7054,-2.719,-2.7784,-2.7109,-2.7243,-2.777,-2.7189,-2.7351,-2.8001,-2.774,-2.8372,-2.92,0.0,0.0,0.0,0.0,0.0,0.0,0.0,0.0,0.0,0.0,0.0,0.0,0.0,0.0,0.0,0.0,0.0,0.0,0.0,0.0,0.0,0.0,0.0,0.0,0.0,0.0,0.0,0.0,0.0,0.0,0.0,0.0,0.0,0.0,0.0,0.0,0.0,0.0,0.0,0.0,0.0,0.0,0.0,0.0,0.0,0.0,0.0,0.0,0.0,0.0,-2.3171,-2.1787,-2.1585,-2.211,-2.2819,-2.338,-2.3607,-2.3861,-2.4649,-2.4957,-2.5197,-2.5678,-2.5478,-2.493,-2.4048,-2.3631,0.0,0.0,-2.1424,-2.1422,-2.0736,-2.0882,-2.1352,-2.21,-2.2566,-2.33,-2.4796,-2.517,-2.5451,0.0,-2.6172,-2.6319,-2.6319,-2.636,0.0,-2.6386,-2.6386,-2.6386,-2.6386,-2.6386,-2.6386,-2.6386,-2.6946,-2.7039,-2.64,-2.6627,-2.6774,-2.6827,-2.6867,-2.7175,-2.7696,-2.7455,-2.7594,-2.7826,-2.7136,-2.7107,-2.7629,-2.7193,-2.7206,-2.7629,-2.7495,-2.7913,-2.8674,-2.8617,-2.895,-2.9377,0.0,0.0,0.0,0.0,0.0,0.0,0.0,0.0,0.0,0.0,0.0,0.0,0.0,0.0,0.0,0.0,0.0,0.0,0.0,0.0,0.0,0.0,0.0,0.0,0.0,0.0,0.0,0.0,0.0,0.0,0.0,0.0,0.0,0.0,0.0,0.0,0.0,0.0,0.0,0.0,0.0,0.0,0.0,0.0,0.0,0.0,0.0,0.0,0.0,0.0,-2.4486,-2.2986,-2.3057,-2.3584,-2.4341,-2.5426,-2.5478,-2.5377,-2.6556,-2.6536,-2.6287,-2.6575,-2.6068,-2.5157,-2.4174,0.0,0.0,0.0,-2.0928,-2.0965,-2.0326,-2.0589,0.0,-2.1505,-2.1957,-2.2767,-2.4195,-2.4516,0.0,-2.5929,-2.6079,-2.6226,0.0,-2.6253,-2.6238,-2.6472,-2.6472,-2.654,-2.6702,-2.6939,-2.7004,-2.7004,-2.7168,-2.7171,-2.6946,-2.668,-2.6827,-2.7378,-2.723,-2.7622,-2.8345,-2.788,-2.7932,-2.8219,-2.7508,-2.7457,-2.7961,-2.749,-2.7569,-2.7947,-2.7544,-2.7827,-2.849,-2.8332,-2.8675,-2.912,0.0,0.0,0.0,0.0,0.0,0.0,0.0,0.0,0.0,0.0,0.0,0.0,0.0,0.0,0.0,0.0,0.0,0.0,0.0,0.0,0.0,0.0,0.0,0.0,0.0,0.0,0.0,0.0,0.0,0.0,0.0,0.0,0.0,0.0,0.0,0.0,0.0,0.0,0.0,0.0,0.0,0.0,0.0,0.0,0.0,0.0,0.0,0.0,0.0,0.0,-2.6033,-2.4844,-2.4849,-2.5218,-2.5827,-2.7063,-2.7013,-2.6918,-2.7966,-2.7755,-2.72,-2.7255,-2.6486,-2.5408,-2.4302,-2.3196,0.0,0.0,-2.0658,-2.0644,-2.0175,-2.045,-2.0782,0.0,-2.1333,-2.2092,-2.3728,-2.3958,-2.4386,0.0,-2.594,0.0,-2.6186,-2.5999,-2.602,-2.6393,-2.6639,-2.6868,-2.7083,-2.7421,-2.7642,-2.7633,-2.7481,-2.7447,-2.7533,-2.7051,-2.708,-2.781,-2.7657,-2.7942,-2.8711,-2.8221,-2.8175,-2.841,-2.7815,-2.7841,-2.8267,-2.7933,-2.804,-2.8339,-2.777,-2.7905,-2.8403,-2.8158,-2.8371,-2.8886,0.0,0.0,0.0,0.0,0.0,0.0,0.0,0.0,0.0,0.0,0.0,0.0,0.0,0.0,0.0,0.0,0.0,0.0,0.0,0.0,0.0,0.0,0.0,0.0,0.0,0.0,0.0,0.0,0.0,0.0,0.0,0.0,0.0,0.0,0.0,0.0,0.0,0.0,0.0,0.0,0.0,0.0,0.0,0.0,0.0,0.0,0.0,0.0,0.0,0.0,0.0,-2.6562,-2.6523,-2.6406,-2.645,-2.6658,0.0,0.0,-2.7426,-2.7235,-2.7242,-2.7521,-2.6472,-2.5198,-2.4526,0.0,0.0,-2.1244,-2.1162,-2.1146,-2.106,-2.0874,-2.1071,0.0,0.0,-2.1937,-2.4052,-2.4345,-2.4565,-2.5166,0.0,0.0,-2.5585,-2.5571,-2.5711,-2.6093,-2.6856,-2.7324,-2.7527,-2.7692,-2.7742,-2.7619,-2.823,-2.8259,-2.7597,-2.7848,-2.7862,-2.7639,-2.7611,-2.7625,-2.7759,-2.7703,-2.7706,-2.7868,-2.7692,-2.787,0.0,-2.8238,-2.851,-2.8808,-2.8778,-2.8793,-2.8808,-2.8778,-2.8871,-2.8886,0.0,0.0,0.0,0.0,0.0,0.0,0.0,0.0,0.0,0.0,0.0,0.0,0.0,0.0,0.0,0.0,0.0,0.0,0.0,0.0,0.0,0.0,0.0,0.0,0.0,0.0,0.0,0.0,0.0,0.0,0.0,0.0,0.0,0.0,0.0,0.0,0.0,0.0,0.0,0.0,0.0,0.0,0.0,0.0,0.0,0.0,0.0,0.0,0.0,0.0,0.0,0.0,-2.751,-2.7635,0.0,0.0,-2.9355,-2.9835,-3.1129,-3.1302,-3.1125,-3.1268,-2.9606,-2.7926,-2.7725,0.0,-2.291,-2.2693,-2.187,-2.1203,-2.1203,-2.0902,-2.0945,0.0,0.0,0.0,-2.2818,-2.2809,-2.3245,-2.4786,-2.5188,0.0,0.0,-2.6027,-2.6067,-2.6533,-2.6961,-2.7343,-2.775,-2.7817,-2.7817,-2.7779,-2.8017,-2.8047,-2.7947,-2.7838,-2.7937,-2.823,-2.8125,-2.8118,-2.8417,-2.8152,-2.8086,-2.8125,-2.81,-2.8048,0.0,-2.826,-2.8468,-2.8622,-2.8622,-2.8725,-2.8886,-2.8886,-2.8886,-2.8886,0.0,0.0,0.0,0.0,0.0,0.0,0.0,0.0,0.0,0.0,0.0,0.0,0.0,0.0,0.0,0.0,0.0,0.0,0.0,0.0,0.0,0.0,0.0,0.0,0.0,0.0,0.0,0.0,0.0,0.0,0.0,0.0,0.0,0.0,0.0,0.0,0.0,0.0,0.0,0.0,0.0,0.0,0.0,0.0,0.0,0.0,0.0,0.0,0.0,0.0,0.0,0.0,0.0,0.0,0.0,0.0,-3.0455,-3.1305,-3.2844,-3.327,-3.3385,-3.3607,-3.1608,-2.9609,0.0,0.0,-2.3999,-2.4057,-2.2829,-2.1702,-2.1702,-2.1246,-2.0946,0.0,0.0,-2.097,-2.212,-2.2029,-2.2476,-2.4076,0.0,-2.496,-2.594,-2.6168,-2.6418,-2.6729,-2.6895,-2.7188,-2.7642,-2.7671,-2.7759,-2.7874,-2.7864,-2.7928,-2.808,-2.7834,-2.7947,-2.8489,-2.8273,-2.8269,-2.8476,-2.8344,-2.8107,-2.8022,-2.8136,-2.8093,0.0,-2.8122,-2.8403,-2.8564,-2.8476,-2.8622,-2.8886,-2.8886,-2.8886,-2.8886,0.0,0.0,0.0,0.0,0.0,0.0,0.0,0.0,0.0,0.0,0.0,0.0,0.0,0.0,0.0,0.0,0.0,0.0,0.0,0.0,0.0,0.0,0.0,0.0,0.0,0.0,0.0,0.0,0.0,0.0,0.0,0.0,0.0,0.0,0.0,0.0,0.0,0.0,0.0,0.0,0.0,0.0,0.0,0.0,0.0,0.0,0.0,0.0,0.0,0.0,0.0,0.0,0.0,0.0,0.0,0.0,-2.9748,-3.1535,-3.0943,-3.164,-3.2679,-3.3488,-3.1403,-2.9202,0.0,0.0,-2.5179,-2.5179,-2.399,-2.2974,-2.2974,-2.1987,-2.132,-2.1642,0.0,0.0,-2.243,-2.2562,-2.2686,0.0,-2.3599,-2.4093,-2.44,-2.5641,-2.6399,-2.6399,-2.6765,-2.6998,-2.6998,-2.6998,-2.7291,-2.7859,-2.7874,-2.7888,-2.7888,-2.7888,-2.7888,-2.7888,-2.7888,-2.7803,-2.7495,-2.7817,-2.7613,-2.7042,-2.7686,-2.7874,0.0,-2.7874,-2.833,-2.8856,-2.8549,-2.8622,-2.8886,-2.8886,-2.8886,-2.8886,0.0,0.0,0.0,0.0,0.0,0.0,0.0,0.0,0.0,0.0,0.0,0.0,0.0,0.0,0.0,0.0,0.0,0.0,0.0,0.0,0.0,0.0,0.0,0.0,0.0,0.0,0.0,0.0,0.0,0.0,0.0,0.0,0.0,0.0,0.0,0.0,0.0,0.0,0.0,0.0,0.0,0.0,0.0,0.0,0.0,0.0,0.0,0.0,0.0,0.0,0.0,0.0,0.0,0.0,0.0,0.0,0.0,0.0,-3.1659,-3.2431,-3.3151,-3.3412,-3.1926,-3.0429,-3.084,0.0,-2.6168,-2.6493,-2.528,-2.3911,-2.3143,-2.2708,-2.2341,-2.2053,-2.1759,0.0,0.0,0.0,0.0,-2.3644,-2.5081,-2.6082,-2.6157,-2.659,-2.6838,-2.6838,-2.691,-2.6983,-2.6983,-2.6778,-2.6852,-2.7276,-2.751,-2.7627,-2.7627,-2.7847,-2.7874,-2.7874,-2.7874,-2.7788,-2.7481,-2.7583,-2.7393,-2.7013,-2.7437,-2.7495,-2.7305,-2.7539,-2.7744,-2.7934,-2.8066,-2.8224,-2.8608,-2.8812,-2.8886,-2.8886,0.0,0.0,0.0,0.0,0.0,0.0,0.0,0.0,0.0,0.0,0.0,0.0,0.0,0.0,0.0,0.0,0.0,0.0,0.0,0.0,0.0,0.0,0.0,0.0,0.0,0.0,0.0,0.0,0.0,0.0,0.0,0.0,0.0,0.0,0.0,0.0,0.0,0.0,0.0,0.0,0.0,0.0,-3.0589,0.0,0.0,0.0,0.0,0.0,0.0,0.0,0.0,0.0,0.0,0.0,0.0,0.0,0.0,0.0,0.0,-3.2305,-3.3027,-3.334,-3.2012,0.0,0.0,0.0,-2.7262,-2.758,-2.6409,-2.5186,-2.4467,-2.3592,-2.2906,-2.2549,-2.1934,-2.1628,0.0,0.0,-2.2857,-2.3954,-2.5374,-2.6354,-2.6603,-2.6852,-2.6939,-2.6822,-2.6808,-2.6749,-2.6632,-2.6427,-2.6413,-2.6617,-2.6939,-2.7174,-2.7291,-2.7495,-2.7583,-2.7583,-2.7583,-2.7481,-2.7291,-2.7291,-2.7467,-2.7783,-2.7496,-2.7599,0.0,-2.7467,-2.7437,-2.7656,-2.7744,-2.7964,-2.8209,-2.8608,-2.871,-2.8739,0.0,0.0,0.0,0.0,0.0,0.0,0.0,0.0,0.0,0.0,0.0,0.0,0.0,0.0,0.0,0.0,0.0,0.0,0.0,0.0,0.0,0.0,0.0,0.0,0.0,0.0,0.0,0.0,0.0,0.0,0.0,0.0,0.0,0.0,0.0,0.0,0.0,0.0,0.0,0.0,0.0,0.0,0.0,0.0,0.0,0.0,0.0,0.0,0.0,0.0,0.0,0.0,0.0,0.0,0.0,0.0,0.0,0.0,0.0,0.0,0.0,0.0,0.0,0.0,0.0,0.0,0.0,-2.8301,-2.7403,-2.6591,-2.6554,-2.465,-2.3103,-2.3094,-2.2048,-2.1379,-2.1686,-2.2096,-2.2798,-2.4013,-2.4774,-2.5403,-2.593,-2.6574,-2.6822,-2.65,-2.6471,-2.6339,-2.6032,-2.6003,-2.5988,-2.6018,-2.6296,-2.6588,-2.6925,-2.6939,-2.6954,-2.6954,-2.6983,-2.7056,-2.7129,-2.7129,-2.7985,-2.9322,-2.7913,-2.8297,-2.9711,-2.8034,-2.7629,-2.8147,-2.7807,-2.788,-2.8251,-2.8424,-2.8571,-2.863,0.0,0.0,0.0,0.0,0.0,0.0,0.0,0.0,0.0,0.0,0.0,0.0,0.0,0.0,0.0,0.0,0.0,0.0,0.0,0.0,0.0,0.0,0.0,0.0,0.0,0.0,0.0,0.0,0.0,0.0,0.0,0.0,0.0,0.0,0.0,0.0,0.0,0.0,0.0,0.0,0.0,0.0,0.0,0.0,0.0,0.0,-2.7012,-2.709,0.0,0.0,0.0,0.0,0.0,0.0,0.0,0.0,0.0,0.0,0.0,0.0,0.0,0.0,0.0,0.0,0.0,0.0,0.0,0.0,0.0,-2.7733,-2.716,-2.5544,-2.4205,-2.3905,-2.2805,-2.1979,-2.2052,-2.3193,-2.4218,-2.4826,-2.5842,-2.631,-2.5696,-2.6237,-2.6486,-2.6149,-2.6135,-2.6091,-2.6018,-2.5783,-2.5754,-2.6003,-2.5857,-2.5915,-2.6237,-2.6486,-2.6617,-2.6617,-2.6866,-2.7623,-2.8676,-2.8676,-2.9536,-3.0943,-3.0589,-3.071,-3.1061,-3.0622,-3.0546,-3.0585,-2.9549,-2.9968,-3.0956,-3.0076,-2.9924,-3.0309,0.0,0.0,0.0,0.0,0.0,0.0,0.0,0.0,0.0,0.0,0.0,0.0,0.0,0.0,0.0,0.0,0.0,0.0,0.0,0.0,0.0,0.0,0.0,0.0,0.0,0.0,0.0,0.0,0.0,0.0,0.0,0.0,0.0,0.0,0.0,0.0,0.0,0.0,0.0,0.0,0.0,0.0,0.0,0.0,0.0,0.0,-2.6376,-2.6562,0.0,-2.6953,-2.7305,-2.7787,0.0,0.0,0.0,0.0,-2.8769,0.0,0.0,0.0,0.0,0.0,0.0,0.0,0.0,0.0,0.0,0.0,0.0,-2.7189,-2.6242,-2.4881,-2.3875,-2.3655,-2.2655,-2.2111,-2.255,-2.3354,-2.4232,-2.5169,-2.5769,-2.6076,-2.5988,-2.6164,-2.6149,-2.5813,-2.5798,-2.5725,-2.5579,-2.5418,-2.5388,-2.5579,-2.5403,-2.5535,-2.6018,-2.6193,-2.6354,-2.65,-2.738,-2.8243,-2.8941,-2.9634,-3.0831,-3.2226,-3.153,-3.1704,-3.2491,-3.1789,-3.1508,-3.1454,-3.0805,-3.1031,-3.1725,-3.1231,-3.1228,-3.1704,0.0,0.0,0.0,0.0,0.0,0.0,0.0,0.0,0.0,0.0,0.0,0.0,0.0,0.0,0.0,0.0,0.0,0.0,0.0,0.0,0.0,0.0,0.0,0.0,0.0,0.0,0.0,0.0,0.0,0.0,0.0,0.0,0.0,0.0,0.0,0.0,0.0,0.0,0.0,0.0,-2.8476,0.0,0.0,0.0,0.0,0.0,0.0,0.0,0.0,-2.6699,-2.7148,-2.7689,-2.8066,0.0,0.0,0.0,0.0,0.0,0.0,0.0,0.0,0.0,0.0,0.0,0.0,0.0,0.0,0.0,0.0,0.0,0.0,-2.3832,0.0,-2.3174,-2.2458,-2.2242,-2.3193,-2.3413,-2.3969,-2.5301,-2.5344,-2.5549,-2.6222,-2.6076,-2.5813,-2.5476,-2.5461,-2.5344,-2.5134,-2.5119,-2.5119,-2.5119,-2.5119,-2.5315,-2.5871,-2.6125,-2.6483,-2.6978,-2.835,-2.9067,-2.9277,-3.0512,-3.1974,-3.3268,-3.2096,0.0,-3.3964,-3.2683,-3.2211,-3.2141,-3.193,-3.2,-3.2175,-3.2223,-3.2515,-3.2895,0.0,0.0,0.0,0.0,0.0,0.0,0.0,0.0,0.0,0.0,0.0,0.0,0.0,0.0,0.0,0.0,0.0,0.0,0.0,0.0,0.0,0.0,0.0,0.0,0.0,0.0,0.0,0.0,0.0,0.0,0.0,0.0,0.0,0.0,0.0,0.0,0.0,0.0,0.0,0.0,0.0,0.0,0.0,0.0,0.0,0.0,0.0,0.0,0.0,-2.5869,-2.6465,-2.7187,-2.7637,0.0,0.0,0.0,0.0,0.0,-2.9375,-2.9241,0.0,0.0,0.0,0.0,0.0,0.0,0.0,0.0,0.0,0.0,0.0,-2.4013,-2.3222,-2.3811,-2.3338,-2.3237,-2.4203,-2.4818,-2.5154,-2.5125,-2.5813,-2.6018,-2.5413,-2.5476,-2.5476,-2.5154,-2.5125,-2.511,-2.5134,-2.5119,-2.5119,-2.5119,-2.5119,-2.5178,-2.5266,-2.6679,-2.7992,-2.9193,-2.9749,-3.065,-3.1886,-3.2155,-3.3044,-3.4475,0.0,-3.4874,-3.5172,-3.5248,-3.5314,-3.5177,-3.3918,-3.4195,-3.5177,-3.3974,-3.3689,-3.3839,0.0,0.0,0.0,0.0,0.0,0.0,0.0,0.0,0.0,0.0,0.0,0.0,0.0,0.0,0.0,0.0,0.0,0.0,0.0,0.0,0.0,0.0,0.0,0.0,0.0,0.0,0.0,0.0,0.0,0.0,0.0,0.0,0.0,0.0,0.0,0.0,0.0,0.0,0.0,0.0,0.0,0.0,0.0,0.0,0.0,0.0,0.0,0.0,0.0,0.0,-2.6348,-2.6758,-2.7187,0.0,0.0,0.0,0.0,0.0,-2.7085,-2.7343,-2.7873,0.0,0.0,0.0,0.0,0.0,0.0,0.0,0.0,0.0,0.0,0.0,-2.2866,-2.3703,-2.339,-2.3457,-2.4437,-2.4525,-2.4686,-2.5242,-2.5403,-2.5418,-2.5315,-2.5286,-2.5213,-2.5134,-2.5119,-2.5119,-2.5119,-2.5119,-2.5119,-2.5119,-2.5119,-2.5779,-2.7286,-2.8112,-2.8493,-2.8623,-3.0319,-3.154,-3.2137,-3.3012,-3.375,-3.4375,0.0,-3.4941,-3.541,-3.5605,-3.582,-3.5947,-3.5245,-3.5382,-3.5986,-3.5513,-3.5559,-3.5854,0.0,0.0,0.0,0.0,0.0,0.0,0.0,0.0,0.0,0.0,0.0,0.0,0.0,0.0,0.0,0.0,0.0,0.0,0.0,0.0,0.0,0.0,0.0,0.0,0.0,0.0,0.0,0.0,0.0,0.0,0.0,0.0,0.0,0.0,0.0,0.0,0.0,0.0,0.0,0.0,0.0,0.0,0.0,0.0,0.0,0.0,0.0,0.0,0.0,0.0,0.0,0.0,0.0,0.0,0.0,0.0,0.0,-2.7419,-2.516,-2.5488,-2.6236,0.0,0.0,-2.6321,-2.584,0.0,0.0,0.0,0.0,0.0,0.0,-2.2067,-2.255,-2.3354,-2.3471,-2.3735,-2.4635,-2.432,-2.4423,-2.5418,-2.5096,-2.4993,-2.5476,-2.5242,-2.5119,-2.5119,-2.5061,-2.5046,-2.5119,-2.4973,-2.4929,-2.5002,-2.5271,-2.6511,-2.8605,-2.9327,-2.945,-2.901,-3.1276,-3.2274,-3.219,-3.3392,-3.3926,-3.3926,-3.4023,-3.4512,-3.5234,-3.5234,-3.5547,-3.6016,-3.5918,-3.5937,-3.6055,-3.6387,-3.6797,-3.7207,0.0,0.0,0.0,0.0,0.0,0.0,0.0,0.0,0.0,0.0,0.0,0.0,0.0,0.0,0.0,0.0,0.0,0.0,0.0,0.0,0.0,0.0,0.0,0.0,0.0,0.0,0.0,0.0,0.0,0.0,0.0,0.0,0.0,0.0,0.0,0.0,0.0,0.0,0.0,0.0,0.0,0.0,0.0,0.0,0.0,0.0,0.0,0.0,0.0,0.0,0.0,0.0,0.0,0.0,0.0,0.0,0.0,-2.6427,-2.5548,-2.4729,-2.4087,-2.3825,0.0,0.0,-2.6525,0.0,0.0,0.0,0.0,0.0,0.0,-2.2389,-2.271,-2.3091,-2.3881,-2.4665,-2.5031,-2.5242,-2.5432,-2.552,-2.5491,-2.5476,-2.552,-2.5242,-2.5119,-2.5119,-2.4841,-2.4797,-2.5105,-2.4481,-2.4291,-2.4665,-2.5905,-2.6676,-2.6872,-2.9707,-3.179,-3.3013,-3.3204,-3.3267,-3.3267,-3.3394,-3.3476,-3.3496,-3.3887,-3.4336,-3.4746,-3.4746,-3.5254,-3.5976,-3.5586,-3.5684,-3.6016,-3.6055,-3.6348,-3.6777,0.0,0.0,0.0,0.0,0.0,0.0,0.0,0.0,0.0,0.0,0.0,0.0,0.0,0.0,0.0,0.0,0.0,0.0,0.0,0.0,0.0,0.0,0.0,0.0,0.0,0.0,0.0,0.0,0.0,0.0,0.0,0.0,0.0,0.0,0.0,0.0,0.0,0.0,0.0,0.0,0.0,0.0,0.0,0.0,0.0,0.0,0.0,0.0,0.0,0.0,0.0,0.0,0.0,0.0,0.0,0.0,0.0,-2.4416,-2.2663,-2.2717,-2.3174,-2.2574,0.0,0.0,0.0,0.0,0.0,0.0,0.0,0.0,0.0,0.0,-2.334,-2.3662,-2.4203,-2.4759,-2.5271,-2.5286,-2.5315,-2.5505,-2.5183,-2.4935,-2.4935,-2.4818,-2.4671,-2.4466,-2.4782,-2.5145,-2.5635,-2.5639,-2.5952,-2.6681,-2.7258,-2.7959,-2.8783,-3.0248,-3.1608,-3.3027,-3.3301,-3.3418,-3.3418,-3.3418,-3.3418,-3.3437,-3.3594,-3.3906,-3.4336,-3.459,-3.5078,-3.5644,-3.5742,-3.5879,-3.6016,-3.6016,-3.6465,-3.709,0.0,0.0,0.0,0.0,0.0,0.0,0.0,0.0,0.0,0.0,0.0,0.0,0.0,0.0,0.0,0.0,0.0,0.0,0.0,0.0,0.0,0.0,0.0,0.0,0.0,0.0,0.0,0.0,0.0,0.0,0.0,0.0,0.0,0.0,0.0,0.0,0.0,0.0,0.0,0.0,0.0,0.0,0.0,0.0,0.0,0.0,0.0,0.0,0.0,0.0,0.0,0.0,0.0,0.0,0.0,0.0,0.0,0.0,-2.0798,-2.1304,-2.226,0.0,0.0,0.0,0.0,0.0,0.0,0.0,0.0,0.0,0.0,0.0,0.0,-2.3881,-2.4379,-2.4847,-2.5183,-2.5037,-2.4949,-2.5066,-2.4686,-2.4423,-2.4423,-2.4423,-2.432,-2.4101,-2.4788,-2.5474,-2.5944,-2.6456,-2.7027,-2.7821,-2.8258,-2.8942,-2.9947,-3.0916,-3.1821,-3.2793,-3.3223,-3.3418,-3.3418,-3.3418,-3.3418,-3.3418,-3.3418,-3.3672,-3.4082,-3.4238,-3.4648,-3.5215,-3.5664,-3.5898,-3.6016,-3.6016,-3.6484,-3.709,0.0,0.0,0.0,0.0,0.0,0.0,0.0,0.0,0.0,0.0,0.0,0.0,0.0,0.0,0.0,0.0,0.0,0.0,0.0,0.0,0.0,0.0,0.0,0.0,0.0,0.0,0.0,0.0,0.0,0.0,0.0,0.0,0.0,0.0,0.0,0.0,0.0,0.0,0.0,0.0,0.0,0.0,0.0,0.0,0.0,0.0,0.0,0.0,0.0,0.0,0.0,0.0,0.0,0.0,0.0,0.0,0.0,-2.2151,-2.0639,-2.0706,0.0,0.0,0.0,0.0,0.0,0.0,0.0,0.0,0.0,0.0,-2.312,0.0,0.0,-2.3545,-2.4408,-2.5002,-2.4613,-2.4635,-2.4437,-2.4115,-2.4086,-2.4086,-2.4136,-2.4136,-2.4136,-2.4136,-2.4963,-2.5676,-2.6024,-2.6615,-2.7176,-2.7535,-2.89,-2.9586,-2.9586,-3.1712,-3.2793,-3.2793,-3.3203,-3.3418,-3.3418,-3.3418,-3.3418,-3.3418,-3.3418,-3.3672,-3.4023,-3.3613,-3.3926,-3.4746,-3.5215,-3.5644,-3.6016,-3.6016,-3.6289,-3.668,0.0,0.0,0.0,0.0,0.0,0.0,0.0,0.0,0.0,0.0,0.0,0.0,0.0,0.0,0.0,0.0,0.0,0.0,0.0,0.0,0.0,0.0,0.0,0.0,0.0,0.0,0.0,0.0,0.0,0.0,0.0,0.0,0.0,0.0,0.0,0.0,0.0,0.0,0.0,0.0,0.0,0.0,0.0,0.0,0.0,0.0,0.0,0.0,0.0,0.0,0.0,0.0,0.0,0.0,0.0,0.0,-2.0227,-2.0503,-2.0038,0.0,0.0,-2.1159,0.0,0.0,0.0,0.0,0.0,0.0,0.0,-2.372,-2.3501,-2.3632,0.0,-2.331,-2.3881,-2.4335,-2.4247,-2.4232,-2.4188,-2.4101,-2.3881,-2.4119,-2.4995,-2.5043,-2.5014,-2.4844,-2.6352,-2.709,-2.6689,-2.7992,-2.9046,-2.9855,-3.0289,-3.0525,-3.0525,-3.1442,-3.1894,-3.1914,-3.2637,-3.3144,-3.3418,-3.3418,-3.3418,-3.3418,-3.3418,-3.3496,-3.3633,-3.3809,-3.4394,-3.5195,-3.5351,-3.5644,-3.6016,-3.6016,-3.6289,-3.668,0.0,0.0,0.0,0.0,0.0,0.0,0.0,0.0,0.0,0.0,0.0,0.0,0.0,0.0,0.0,0.0,0.0,0.0,0.0,0.0,0.0,0.0,0.0,0.0,0.0,0.0,0.0,0.0,0.0,0.0,0.0,0.0,0.0,0.0,0.0,0.0,0.0,0.0,0.0,0.0,0.0,0.0,0.0,0.0,0.0,0.0,0.0,0.0,0.0,0.0,0.0,0.0,0.0,0.0,0.0,-1.9382,-1.9558,-1.9793,-1.9661,-2.0223,0.0,-2.1159,-2.1789,-2.2432,-2.274,0.0,0.0,0.0,0.0,-2.4027,-2.3823,-2.3837,-2.3764,-2.3369,-2.3735,-2.4042,-2.391,-2.3881,-2.3837,-2.3706,-2.3413,-2.3693,-2.492,-2.5105,-2.5024,-2.4674,-2.6803,-2.7678,-2.6653,-2.8592,-3.002,-3.0625,-3.0801,-3.0898,-3.0898,-3.1309,-3.1523,-3.1523,-3.2226,-3.2773,-3.3184,-3.334,-3.3418,-3.3418,-3.3418,-3.3418,-3.3437,-3.3711,-3.4336,-3.5117,-3.5117,-3.5488,-3.6016,-3.6016,-3.6289,-3.6641,0.0,0.0,0.0,0.0,0.0,0.0,0.0,0.0,0.0,0.0,0.0,0.0,0.0,0.0,0.0,0.0,0.0,0.0,0.0,0.0,0.0,0.0,0.0,0.0,0.0,0.0,0.0,0.0,0.0,0.0,0.0,0.0,0.0,0.0,0.0,0.0,0.0,0.0,0.0,0.0,0.0,0.0,0.0,0.0,0.0,0.0,0.0,0.0,0.0,0.0,0.0,0.0,0.0,0.0,0.0,-1.9286,-1.9558,-1.9764,-1.9433,0.0,0.0,-2.1276,-2.1993,0.0,-2.3076,-2.3618,-2.4203,-2.487,0.0,-2.4071,-2.4042,-2.3823,-2.3618,-2.3559,-2.3793,-2.3896,-2.3588,-2.3501,-2.3369,-2.3091,-2.2845,-2.3172,-2.4439,-2.4739,-2.4698,-2.4226,-2.6825,-2.7691,-2.6071,-2.8613,-3.0156,-3.0195,-3.0605,-3.0859,-3.0898,-3.1269,-3.1465,-3.1465,-3.1894,-3.2385,-3.2816,-3.3246,-3.3442,-3.3481,-3.3418,-3.3418,-3.3418,-3.3418,-3.3926,-3.4773,-3.4687,-3.5234,-3.6016,-3.6016,-3.6269,-3.6562,0.0,0.0,0.0,0.0,0.0,0.0,0.0,0.0,0.0,0.0,0.0,0.0,0.0,0.0,0.0,0.0,0.0,0.0,0.0,0.0,0.0,0.0,0.0,0.0,0.0,0.0,0.0,0.0,0.0,0.0,0.0,0.0,0.0,0.0,0.0,0.0,0.0,0.0,0.0,0.0,0.0,0.0,0.0,0.0,0.0,0.0,0.0,0.0,0.0,0.0,0.0,0.0,-2.0979,-2.0373,-1.9661,-1.9412,-1.9558,-1.9852,0.0,-2.0413,0.0,0.0,-2.2491,-2.3091,-2.3413,-2.3603,-2.3735,-2.3881,-2.3998,-2.4013,-2.3749,-2.3852,-2.3808,-2.3296,-2.3267,-2.3296,-2.3223,-2.2798,-2.255,-2.271,-2.3278,-2.4118,-2.547,-2.64,-2.6761,-2.637,-2.8202,-2.854,-2.6877,-2.8671,-2.9863,-3.0176,-3.0293,-3.0527,-3.0879,-3.0976,-3.1035,-3.1035,-3.1445,-3.1995,-3.2751,-3.3166,-3.3667,-3.4173,-3.3607,-3.3544,-3.3796,-3.3481,-3.4118,-3.51,-3.4838,-3.5414,-3.6384,-3.6084,-3.6074,-3.6152,0.0,0.0,0.0,0.0,0.0,0.0,0.0,0.0,0.0,0.0,0.0,0.0,0.0,0.0,0.0,0.0,0.0,0.0,0.0,0.0,0.0,0.0,0.0,0.0,0.0,0.0,0.0,0.0,0.0,0.0,0.0,0.0,0.0,0.0,0.0,0.0,0.0,0.0,0.0,0.0,0.0,0.0,0.0,0.0,0.0,0.0,0.0,0.0,0.0,0.0,0.0,0.0,0.0,0.0,-2.021,-1.9472,-1.9403,0.0,0.0,0.0,0.0,-2.2111,0.0,-2.3149,-2.3325,-2.3369,-2.3369,-2.3369,-2.3749,-2.3984,-2.3662,-2.3735,-2.3632,-2.2988,-2.2871,-2.2828,-2.2681,-2.2389,-2.2467,-2.3142,-2.3306,-2.4089,-2.5965,-2.6532,-2.672,-2.6464,-2.8038,-2.8356,-2.6848,-2.8344,-2.9355,-2.957,-2.9898,-3.0231,-3.0547,-3.0682,-3.0799,-3.0898,-3.1113,-3.1683,-3.2595,-3.3454,-3.4015,-3.436,-3.4047,-3.3985,-3.411,-3.3922,-3.4501,-3.5511,-3.5295,-3.5766,-3.6451,-3.6336,-3.6152,-3.6016,0.0,0.0,0.0,0.0,0.0,0.0,0.0,0.0,0.0,0.0,0.0,0.0,0.0,0.0,0.0,0.0,0.0,0.0,0.0,0.0,0.0,0.0,0.0,0.0,0.0,0.0,0.0,0.0,0.0,0.0,0.0,0.0,0.0,0.0,0.0,0.0,0.0,0.0,0.0,0.0,0.0,0.0,0.0,0.0,0.0,0.0,0.0,0.0,0.0,-2.4658,0.0,0.0,0.0,0.0,-2.0739,-1.9828,-1.9428,0.0,0.0,0.0,-2.1159,-2.2271,-2.2784,0.0,-2.3091,-2.3106,-2.3106,-2.3106,-2.3545,-2.3808,-2.3486,-2.3427,-2.3237,-2.2637,-2.2491,-2.2403,-2.2213,-2.2081,-2.2498,-2.3693,-2.3365,-2.3883,-2.61,-2.6185,-2.6067,-2.5993,-2.7285,-2.7603,-2.6547,-2.7803,-2.8652,-2.8863,-2.9455,-2.9925,-3.0248,-3.046,-3.0677,-3.0955,-3.1151,-3.17,-3.2551,-3.3781,-3.4366,-3.4427,-3.4365,-3.4342,-3.4485,-3.4423,-3.4969,-3.578,-3.5796,-3.6122,-3.6555,-3.6634,-3.6403,-3.6152,0.0,0.0,0.0,0.0,0.0,0.0,0.0,0.0,0.0,0.0,0.0,0.0,0.0,0.0,0.0,0.0,0.0,0.0,0.0,0.0,0.0,0.0,0.0,0.0,0.0,0.0,0.0,0.0,0.0,0.0,0.0,0.0,0.0,0.0,0.0,0.0,0.0,0.0,0.0,0.0,0.0,0.0,0.0,0.0,0.0,0.0,0.0,0.0,0.0,-2.5528,-2.4854,0.0,0.0,0.0,-2.0877,-2.0739,0.0,0.0,0.0,0.0,-2.1672,0.0,-2.2462,-2.2754,0.0,0.0,-2.3106,0.0,-2.3179,-2.3135,-2.2813,-2.2754,-2.2637,-2.2301,-2.2008,-2.1906,-2.2154,-2.1701,-2.19,-2.3373,-2.3782,-2.4481,-2.5844,-2.6494,-2.6679,-2.6381,-2.6851,-2.698,-2.6458,-2.6929,-2.7721,-2.868,-2.8813,-2.9337,-3.0354,-3.0528,-3.0747,-3.1111,-3.2105,-3.2567,-3.253,-3.3633,-3.4345,-3.4716,-3.4105,-3.4266,-3.4797,-3.4548,-3.4914,-3.5674,-3.5739,-3.6269,-3.6867,-3.7005,-3.7011,-3.6876,0.0,0.0,0.0,0.0,0.0,0.0,0.0,0.0,0.0,0.0,0.0,0.0,0.0,0.0,0.0,0.0,0.0,0.0,0.0,0.0,0.0,0.0,0.0,0.0,0.0,0.0,0.0,0.0,0.0,0.0,0.0,-3.8109,-3.8964,0.0,0.0,0.0,0.0,0.0,0.0,0.0,0.0,0.0,0.0,0.0,0.0,0.0,0.0,0.0,0.0,0.0,-2.5382,-2.4865,-2.4036,0.0,0.0,0.0,0.0,0.0,-1.9678,-2.0281,-2.0998,0.0,-2.2008,-2.2462,-2.2769,-2.2974,-2.3106,-2.3106,-2.3106,-2.3003,-2.2681,-2.2623,-2.2462,-2.1993,-2.1789,-2.1686,-2.1642,-2.1955,-2.2636,-2.3694,-2.4358,-2.5196,-2.6385,-2.6608,-2.673,-2.6971,-2.6996,-2.7184,-2.7549,-2.7625,-2.8021,-2.892,-2.9099,-2.9628,-3.046,-3.0641,-3.0983,-3.1506,-3.2004,-3.2302,-3.238,-3.312,-3.3953,-3.4755,-3.4512,-3.4698,-3.517,-3.5046,-3.5312,-3.591,-3.6234,-3.6554,-3.6917,-3.7252,-3.728,-3.7011,0.0,0.0,0.0,0.0,0.0,0.0,0.0,0.0,0.0,0.0,0.0,0.0,0.0,0.0,0.0,0.0,0.0,0.0,0.0,0.0,0.0,0.0,0.0,0.0,0.0,0.0,0.0,0.0,0.0,0.0,-3.5824,-3.6911,-3.8139,0.0,-3.8416,0.0,0.0,0.0,0.0,0.0,0.0,0.0,0.0,0.0,0.0,0.0,0.0,0.0,0.0,0.0,0.0,-2.5363,-2.4229,-2.3629,0.0,0.0,0.0,0.0,0.0,0.0,-2.015,-2.0794,-2.1452,-2.2037,0.0,0.0,-2.3003,-2.3091,-2.3106,-2.2988,-2.2579,-2.2506,-2.2301,-2.1672,-2.1569,-2.1496,-2.1247,-2.2256,-2.3278,-2.3996,-2.4739,-2.5633,-2.6754,-2.6465,-2.6447,-2.6942,-2.6831,-2.7179,-2.8024,-2.7941,-2.8233,-2.9003,-2.9286,-2.9705,-3.0356,-3.0799,-3.1294,-3.1787,-3.196,-3.2133,-3.2326,-3.2813,-3.3646,-3.465,-3.4774,-3.5004,-3.5418,-3.5418,-3.5687,-3.6163,-3.6618,-3.6879,-3.7135,-3.7586,-3.7549,-3.728,0.0,0.0,0.0,0.0,0.0,0.0,0.0,0.0,0.0,0.0,0.0,0.0,0.0,0.0,0.0,0.0,0.0,0.0,0.0,0.0,0.0,0.0,0.0,0.0,0.0,0.0,0.0,0.0,0.0,0.0,-3.5258,-3.5545,-3.6836,-3.8868,-3.8815,-3.8342,-3.7519,0.0,0.0,0.0,0.0,0.0,0.0,0.0,0.0,0.0,0.0,0.0,0.0,0.0,0.0,0.0,0.0,0.0,0.0,0.0,0.0,0.0,0.0,-1.9067,0.0,-2.012,-2.0779,0.0,0.0,-2.2432,-2.274,-2.3047,-2.3106,-2.293,-2.2315,-2.2213,-2.1993,-2.1335,-2.1233,-2.1233,-2.1218,-2.2256,-2.3278,-2.3996,-2.4739,-2.5521,-2.6345,-2.6035,-2.5732,-2.5801,-2.6024,-2.6348,-2.6854,-2.7142,-2.7773,-2.888,-2.8901,-2.9301,-3.0004,-3.0946,-3.1538,-3.1787,-3.2383,-3.2555,-3.2326,-3.3066,-3.3637,-3.4194,-3.4629,-3.5004,-3.5418,-3.5418,-3.5687,-3.6163,-3.6618,-3.7094,-3.755,-3.8005,-3.8191,-3.8037,0.0,0.0,0.0,0.0,0.0,0.0,0.0,0.0,0.0,0.0,0.0,0.0,0.0,0.0,0.0,0.0,0.0,0.0,0.0,0.0,0.0,0.0,0.0,0.0,0.0,0.0,0.0,0.0,0.0,-3.2097,-3.2314,-3.378,-3.4749,-3.5432,-3.7054,-3.7566,-3.7044,-3.6162,0.0,0.0,0.0,0.0,0.0,0.0,0.0,0.0,0.0,0.0,0.0,0.0,0.0,0.0,0.0,0.0,0.0,0.0,0.0,0.0,0.0,0.0,0.0,-1.9506,-2.0106,-2.0706,-2.1145,-2.1657,-2.2067,-2.2184,-2.2374,-2.2389,-2.195,-2.2037,-2.1964,-2.132,-2.1203,-2.1203,-2.1203,-2.2862,-2.401,-2.3727,-2.5514,-2.6718,-2.6415,-2.6738,-2.7007,-2.7013,-2.6993,-2.7252,-2.7912,-2.7862,-2.8248,-2.9116,-2.9425,-3.0013,-3.0884,-3.1505,-3.1993,-3.2383,-3.2612,-3.2669,-3.2576,-3.3124,-3.3696,-3.4152,-3.4629,-3.5004,-3.5418,-3.5418,-3.5521,-3.5749,-3.6515,-3.6908,-3.7136,-3.7902,-3.8191,-3.8166,0.0,0.0,0.0,0.0,0.0,0.0,0.0,0.0,0.0,0.0,0.0,0.0,0.0,0.0,0.0,0.0,0.0,0.0,0.0,0.0,0.0,0.0,0.0,0.0,0.0,0.0,0.0,0.0,0.0,0.0,0.0,0.0,-3.2968,-3.3409,-3.5305,0.0,0.0,0.0,0.0,-3.5357,0.0,0.0,-3.4123,0.0,0.0,0.0,-3.0698,-2.9897,0.0,0.0,0.0,0.0,0.0,0.0,0.0,0.0,0.0,0.0,-1.9837,0.0,0.0,0.0,-1.9858,-2.0062,-2.0603,-2.1057,-2.1437,-2.1657,-2.1876,-2.195,-2.173,-2.1876,-2.1847,-2.1306,-2.1203,-2.1203,-2.1203,-2.3239,-2.4432,-2.3781,-2.6082,-2.7383,-2.666,-2.7109,-2.7479,-2.754,-2.75,-2.7814,-2.8532,-2.8583,-2.8839,-2.9518,-2.9829,-3.045,-3.136,-3.1671,-3.2126,-3.2669,-3.2669,-3.2669,-3.269,-3.3348,-3.3841,-3.4152,-3.4714,-3.5148,-3.5418,-3.5418,-3.5521,-3.5707,-3.6328,-3.6763,-3.7115,-3.7736,-3.815,-3.8352,0.0,0.0,0.0,0.0,0.0,0.0,0.0,0.0,0.0,0.0,0.0,0.0,0.0,0.0,0.0,0.0,0.0,0.0,0.0,0.0,0.0,0.0,0.0,0.0,0.0,0.0,0.0,0.0,0.0,0.0,0.0,0.0,-3.1519,0.0,-3.3673,-3.4439,-3.5395,0.0,-3.6675,-3.5818,0.0,-3.3784,-3.391,0.0,0.0,0.0,-3.139,-3.0721,0.0,-2.9119,0.0,0.0,0.0,0.0,0.0,0.0,0.0,0.0,0.0,0.0,0.0,0.0,0.0,0.0,-2.0457,-2.0676,-2.0867,-2.1511,-2.1657,-2.1672,-2.1672,-2.1672,-2.1584,-2.1262,-2.1203,-2.1203,-2.1203,-2.3239,-2.4535,-2.4159,-2.625,-2.75,-2.7051,-2.7031,-2.7051,-2.7031,-2.754,-2.8025,-2.8468,-2.9003,-2.9518,-2.9973,-2.9994,-3.045,-3.136,-3.1381,-3.1836,-3.2669,-3.2669,-3.2669,-3.2711,-3.3637,-3.4111,-3.4173,-3.5024,-3.5418,-3.5418,-3.5418,-3.5687,-3.6101,-3.6121,-3.668,-3.7467,-3.7508,-3.8067,-3.8703,0.0,0.0,0.0,0.0,0.0,0.0,0.0,0.0,0.0,0.0,0.0,0.0,0.0,0.0,0.0,0.0,0.0,0.0,0.0,0.0,0.0,0.0,0.0,0.0,0.0,0.0,0.0,0.0,0.0,0.0,0.0,0.0,0.0,0.0,-3.1527,-3.2466,-3.3168,-3.4804,0.0,0.0,-3.4679,-3.4535,0.0,0.0,0.0,0.0,-3.2291,-3.1746,-3.1208,0.0,-2.992,-2.906,0.0,0.0,0.0,0.0,0.0,0.0,-2.2333,0.0,0.0,0.0,0.0,0.0,-1.9369,-1.9506,-1.9798,-2.0208,-2.0662,-2.0998,-2.0998,-2.1189,-2.132,-2.1233,-2.1203,-2.1203,-2.1203,-2.3239,-2.4535,-2.4159,-2.6491,-2.7832,-2.709,-2.7578,-2.7917,0.0,-2.8081,-2.847,-2.8746,-2.9106,-2.9518,-2.9973,-2.9994,-3.045,-3.136,-3.1381,-3.1836,-3.2669,-3.2669,-3.2669,-3.269,-3.3306,-3.3762,-3.4152,-3.4693,-3.5128,-3.5418,-3.5418,-3.55,-3.5687,-3.6349,-3.6763,-3.7074,-3.7757,-3.815,-3.844,0.0,0.0,0.0,0.0,0.0,0.0,0.0,0.0,0.0,0.0,0.0,0.0,0.0,0.0,0.0,0.0,0.0,0.0,0.0,0.0,0.0,0.0,0.0,0.0,0.0,0.0,0.0,0.0,0.0,0.0,0.0,0.0,0.0,0.0,0.0,0.0,0.0,0.0,0.0,0.0,-3.4534,0.0,0.0,-3.4198,-3.3814,0.0,0.0,0.0,-3.2277,-3.1522,-3.067,0.0,0.0,0.0,0.0,0.0,0.0,0.0,0.0,0.0,0.0,0.0,0.0,0.0,-1.999,-1.9426,-1.9147,-2.0023,-2.011,-2.0194,-2.0416,-2.0676,-2.0852,-2.0984,-2.1013,-2.1101,-2.1379,-2.3593,-2.5121,-2.4898,-2.7048,-2.8359,-2.7851,-2.8105,-2.829,-2.8193,-2.854,-2.8906,-2.9342,-2.9497,-2.9725,-2.9994,-2.9994,-3.045,-3.136,-3.1381,-3.1836,-3.2669,-3.2483,-3.2483,-3.2747,-3.3182,-3.3696,-3.4173,-3.4755,-3.519,-3.5418,-3.5418,-3.5418,-3.55,-3.6225,-3.6639,-3.6908,-3.7839,-3.8419,-3.8833,0.0,0.0,0.0,0.0,0.0,0.0,0.0,0.0,0.0,0.0,0.0,0.0,0.0,0.0,0.0,0.0,0.0,0.0,0.0,0.0,0.0,0.0,-3.3691,-3.3703,0.0,0.0,0.0,0.0,0.0,0.0,0.0,0.0,0.0,0.0,0.0,0.0,0.0,0.0,0.0,-3.4385,-3.391,-3.415,0.0,0.0,-3.3935,-3.3934,-3.3525,-3.3308,-3.3068,-3.2126,-3.0924,0.0,0.0,0.0,0.0,0.0,-2.5366,0.0,0.0,0.0,0.0,0.0,0.0,0.0,-2.1457,-2.0116,-1.9048,-2.0436,-2.0076,-1.9657,-2.0342,-2.0397,-2.0545,-2.0952,-2.1056,-2.1323,-2.1831,-2.4127,-2.5887,-2.6088,-2.7716,-2.8867,-2.8906,-2.8535,-2.8301,-2.8301,-2.8814,-2.9343,-2.9942,-2.9994,-2.9994,-2.9994,-2.9994,-3.0429,-3.136,-3.136,-3.1781,-3.2669,-3.2256,-3.2297,-3.2809,-3.3244,-3.3699,-3.4196,-3.5045,-3.5418,-3.5418,-3.5418,-3.5418,-3.548,-3.5976,-3.6432,-3.6908,-3.7839,-3.8688,-3.9413,0.0,0.0,0.0,0.0,0.0,0.0,0.0,0.0,0.0,0.0,0.0,0.0,0.0,0.0,0.0,0.0,0.0,0.0,0.0,0.0,-3.256,-3.2985,-3.2546,-3.3006,-3.4391,0.0,0.0,0.0,0.0,0.0,0.0,0.0,0.0,0.0,0.0,0.0,0.0,0.0,0.0,-3.2224,-3.2135,-3.3158,-3.4702,-3.3702,-3.3617,-3.3982,-3.3886,-3.3356,-3.2611,-3.2418,-3.216,-3.1748,0.0,0.0,0.0,-2.7319,0.0,0.0,0.0,0.0,0.0,0.0,-2.2942,0.0,-2.16,-2.1134,-2.0829,-2.1075,-2.0746,-2.0719,-2.172,-2.165,-2.1796,-2.2774,-2.3431,-2.368,-2.3263,-2.4201,-2.5565,-2.7239,-2.8026,-2.8555,-2.8887,-2.8535,-2.8301,-2.8301,-2.8814,-2.929,-2.9659,-2.9889,-2.9994,-2.9994,-2.9764,-3.0216,-3.136,-3.1141,-3.1593,-3.2669,-3.2644,-3.283,-3.3265,-3.372,-3.4256,-3.4712,-3.519,-3.5418,-3.5418,-3.5418,-3.5418,-3.55,-3.6349,-3.6722,-3.6908,-3.7839,-3.8295,-3.8543,0.0,0.0,0.0,0.0,0.0,0.0,0.0,0.0,0.0,0.0,0.0,0.0,0.0,0.0,0.0,0.0,0.0,0.0,0.0,0.0,-3.221,-3.1825,-3.1566,-3.1812,-3.2607,-3.1889,0.0,0.0,0.0,0.0,0.0,0.0,0.0,0.0,0.0,0.0,0.0,0.0,-2.9723,-3.0794,-3.1381,0.0,-3.3201,-3.3201,-3.3198,-3.3289,-3.3792,-3.3549,-3.2923,-3.3188,-3.3092,0.0,-3.2322,-3.146,-3.0468,0.0,-2.8618,-2.7814,0.0,0.0,0.0,-2.465,-2.3673,0.0,0.0,-2.1689,-2.1048,-2.1807,-2.1332,-2.0982,-2.1943,-2.1962,-2.2074,-2.2774,-2.3423,-2.4039,-2.4675,-2.536,-2.6308,-2.7541,-2.8079,-2.8457,-2.8887,-2.8535,-2.8388,-2.8654,-2.8973,-2.929,-2.9764,-2.9942,-2.9994,-2.9994,-2.9889,-3.0323,-3.136,-3.1251,-3.1649,-3.2669,-3.2669,-3.2954,-3.3389,-3.3924,-3.438,-3.4837,-3.5231,-3.5418,-3.5418,-3.5418,-3.5562,-3.5832,-3.6535,-3.6804,-3.6949,-3.7888,-3.8388,-3.8579,0.0,0.0,0.0,0.0,0.0,0.0,0.0,0.0,0.0,0.0,0.0,0.0,0.0,0.0,0.0,0.0,0.0,0.0,0.0,0.0,0.0,0.0,-3.0644,-3.0605,-3.0508,-3.0234,-2.9863,0.0,0.0,0.0,0.0,0.0,0.0,0.0,0.0,0.0,0.0,0.0,0.0,-2.967,0.0,-3.1227,-3.1688,-3.2325,-3.2451,-3.2385,-3.3336,-3.3434,-3.3195,-3.3553,-3.3504,-3.3262,-3.3147,-3.263,0.0,0.0,0.0,0.0,0.0,0.0,0.0,0.0,0.0,-2.358,0.0,0.0,0.0,-2.2713,-2.1971,-2.1397,-2.2351,-2.2327,-2.2351,-2.2883,-2.3265,-2.4081,-2.5758,-2.653,-2.7123,-2.7752,-2.7943,-2.8281,-2.8867,-2.8589,-2.8587,-2.9093,-2.9192,-2.9396,-2.9889,-2.9994,-2.9994,-2.9994,-3.0024,-3.0479,-3.136,-3.1409,-3.1864,-3.2669,-3.2809,-3.3078,-3.3534,-3.3989,-3.4505,-3.49,-3.5273,-3.5418,-3.5418,-3.5418,-3.5687,-3.6163,-3.6618,-3.6867,-3.7009,-3.7872,-3.8303,-3.8629,-3.9364,-3.9588,0.0,0.0,0.0,0.0,0.0,0.0,0.0,0.0,0.0,0.0,0.0,0.0,0.0,0.0,0.0,0.0,-3.5799,0.0,0.0,0.0,-2.9783,-2.9531,-2.916,-2.9473,-2.9434,0.0,0.0,0.0,0.0,0.0,0.0,0.0,-2.7943,0.0,0.0,0.0,-2.8055,0.0,-2.8601,-2.9828,0.0,-3.0587,-3.0876,-3.1737,-3.2358,-3.2566,-3.252,0.0,-3.2912,-3.3216,0.0,-3.2817,-3.2934,-3.1994,0.0,0.0,0.0,0.0,0.0,0.0,-2.58,-2.5227,-2.4485,0.0,-2.3859,-2.3725,0.0,-2.3007,-2.4488,0.0,0.0,-2.511,-2.5371,-2.5613,-2.6265,-2.64,-2.704,-2.8591,-2.7805,-2.7617,-2.8809,-2.877,-2.8832,-2.9337,-2.948,-2.9554,-2.9659,-2.9889,-2.9994,-2.9994,-3.0101,-3.0553,-3.136,-3.1532,-3.1984,-3.2747,-3.312,-3.3555,-3.4069,-3.4526,-3.4921,-3.5355,-3.5397,-3.5418,-3.5418,-3.5418,-3.5687,-3.6163,-3.6618,-3.7053,-3.7422,-3.7627,-3.7697,-3.7779,0.0,0.0,0.0,0.0,0.0,0.0,0.0,0.0,0.0,0.0,0.0,0.0,0.0,-3.951,-3.8919,0.0,-3.7153,-3.6005,-3.4204,-3.2803,0.0,0.0,-3.0332,-3.0117,-2.9668,-2.9609,-2.9355,0.0,-2.8672,0.0,0.0,0.0,0.0,0.0,-2.8008,-2.7988,-2.793,0.0,-2.8262,0.0,0.0,-2.9006,0.0,-2.9931,-3.0587,-3.1644,-3.185,-3.2113,-3.2409,0.0,-3.3028,0.0,0.0,0.0,0.0,-3.291,0.0,0.0,0.0,0.0,0.0,0.0,0.0,0.0,-2.5063,-2.4609,-2.4434,-2.4512,0.0,0.0,0.0,0.0,0.0,0.0,-2.5566,-2.5801,-2.6173,-2.6094,-2.6562,-2.8008,-2.75,0.0,-2.8672,-2.872,-2.8913,-2.9467,-2.957,-2.9659,-2.9837,-2.9942,-2.9994,-2.9994,-3.0323,-3.0776,-3.136,-3.1436,-3.189,-3.2747,-3.3161,-3.3617,-3.4093,-3.4817,-3.5252,-3.5418,-3.5418,-3.5418,-3.5438,-3.5707,-3.6101,-3.6556,-3.7032,-3.7322,-3.7484,-3.7586,-3.777,-3.7898,0.0,0.0,0.0,0.0,0.0,0.0,0.0,0.0,0.0,0.0,0.0,-3.761,-3.8506,-3.8921,-3.8503,-3.6638,-3.7299,-3.6576,-3.3684,-3.2954,-3.195,0.0,-3.0586,-3.0332,-2.9512,-2.9434,-2.918,0.0,0.0,0.0,0.0,0.0,0.0,0.0,0.0,-2.8008,-2.7904,0.0,-2.8437,-2.8887,-2.8457,-2.8476,-2.8765,-2.9285,-2.9984,-3.0712,-3.1,-3.1404,-3.1918,-3.2753,-3.2701,0.0,-3.3782,-3.3034,-3.1803,0.0,0.0,0.0,-3.0227,0.0,0.0,0.0,0.0,-2.7478,-2.5555,-2.5137,-2.5172,-2.5223,-2.5098,0.0,0.0,0.0,0.0,0.0,0.0,-2.583,0.0,-2.5947,-2.632,-2.755,-2.7629,0.0,0.0,-2.8834,-2.9152,-2.9554,-2.9556,-2.9579,-2.9808,-2.9808,-2.9932,-3.018,-3.0636,-3.1091,-3.1547,-3.1547,-3.2002,-3.2913,-3.3223,-3.3679,-3.4339,-3.5066,-3.5418,-3.5418,-3.5418,-3.5418,-3.5459,-3.5914,-3.639,-3.6846,-3.7322,-3.757,-3.7649,-3.7647,-3.777,-3.8032,-3.1035,-3.2747,0.0,0.0,0.0,0.0,0.0,0.0,-3.6844,-3.7303,-3.7309,-3.7309,-3.7248,-3.8447,-3.8987,-3.8554,-3.8028,-3.7019,-3.5517,-3.3579,-3.1466,-2.9098,-2.9785,-2.9453,-2.7826,-2.8535,-2.873,0.0,0.0,0.0,0.0,0.0,0.0,0.0,0.0,-2.791,-2.8242,-2.7851,-2.8164,-2.8887,-2.8457,-2.8301,-2.832,0.0,-2.8388,-2.8548,-2.9565,0.0,0.0,-3.0722,-3.1391,0.0,0.0,0.0,0.0,0.0,0.0,0.0,0.0,0.0,0.0,-2.7631,-2.8214,-2.8688,-2.5777,-2.6161,-2.6826,0.0,0.0,0.0,0.0,0.0,0.0,0.0,0.0,0.0,0.0,0.0,-2.6525,-2.7673,-2.8517,0.0,0.0,-2.9258,-2.9554,-2.9522,-2.9373,-2.9332,-2.9332,-2.9332,-2.9746,-3.0636,-3.1112,-3.1567,-3.1967,-3.1967,-3.2457,-3.3348,-3.3368,-3.3844,-3.4816,-3.5211,-3.5418,-3.5418,-3.5418,-3.5418,-3.5459,-3.5914,-3.639,-3.6846,-3.7322,-3.7777,-3.8171,-3.775,-3.7616,-3.763,0.0,0.0,0.0,0.0,-3.1407,0.0,-3.2853,-3.368,-3.478,-3.6687,-3.5871,-3.5804,-3.7461,-3.8124,-3.7699,-3.5776,-3.6267,-3.5591,-3.3035,-3.2197,-3.1385,-3.0254,-3.0508,-3.0234,-2.9355,-2.9609,0.0,0.0,0.0,0.0,0.0,0.0,0.0,0.0,0.0,-2.8164,0.0,0.0,0.0,0.0,0.0,-2.9219,-2.8711,0.0,-2.8535,-2.8354,-2.8708,-2.9325,0.0,-3.0504,-3.0586,-3.0629,-3.1498,-3.0727,-2.9828,-3.2022,-3.1103,-2.9638,0.0,0.0,-2.9786,-2.7954,0.0,0.0,0.0,0.0,0.0,0.0,0.0,0.0,0.0,0.0,0.0,0.0,0.0,0.0,0.0,0.0,-2.6963,-2.7238,-2.7966,0.0,0.0,-2.91,-2.9177,-2.9384,-2.9053,-2.898,-2.929,-2.9311,-2.9725,-3.0657,-3.0843,-3.1133,-3.1588,-3.1609,-3.2064,-3.2954,-3.3244,-3.3865,-3.4837,-3.5211,-3.5418,-3.5418,-3.5418,-3.5418,-3.548,-3.6246,-3.666,-3.6887,-3.7653,-3.8046,-3.8191,-3.8037,-3.7971,-3.8007,-3.1152,0.0,0.0,0.0,-3.0898,-3.1133,-3.1836,-3.2676,-3.3911,-3.5763,-3.525,-3.5468,-3.7247,-3.7734,-3.7065,-3.4956,-3.5953,-3.5413,-3.2346,-3.2187,-3.1738,-3.0684,-3.0937,-3.0762,-3.0,-3.0117,0.0,0.0,0.0,-2.9375,0.0,0.0,0.0,0.0,0.0,-2.8301,-2.832,-2.875,-2.918,0.0,0.0,-2.9922,0.0,0.0,-2.8926,-2.8301,0.0,-2.875,-2.9407,-2.991,-2.9739,-2.9553,-3.0752,-2.9827,-2.8708,-3.0845,-3.0245,-2.9164,-3.0608,-3.1051,0.0,-2.9219,-3.0177,0.0,-2.781,0.0,-2.8549,0.0,0.0,0.0,0.0,0.0,0.0,0.0,0.0,0.0,0.0,-2.6904,0.0,-2.7278,-2.795,0.0,0.0,-2.8857,-2.886,-2.8684,-2.8445,-2.8466,-2.9042,-2.9063,-2.9559,-3.0657,-3.0843,-3.1153,-3.1609,-3.1774,-3.2313,-3.3203,-3.3492,-3.4113,-3.5004,-3.5293,-3.5418,-3.5418,-3.5418,-3.5521,-3.5728,-3.6494,-3.6908,-3.7115,-3.7749,-3.8074,-3.8197,-3.8233,-3.8331,-3.85,-3.1562,-3.1172,-3.0898,-3.0898,-3.0918,-3.1055,-3.1445,-3.2969,-3.4238,-3.4668,-3.5508,-3.6211,-3.666,-3.7199,-3.708,-3.6093,-3.6835,-3.62,-3.3559,-3.3398,-3.2461,-3.0391,-3.1074,-3.0937,-2.9687,-3.0039,0.0,0.0,0.0,0.0,0.0,0.0,0.0,0.0,-2.8672,0.0,-2.832,-2.8769,-2.9219,-2.9763,-3.0547,-3.0371,-2.9648,-3.0039,-2.9414,-2.832,-2.832,-2.8574,-2.8906,-2.8906,-2.8906,-2.8906,-2.8906,-2.8613,-2.8281,-2.8335,-2.9059,-2.9828,-2.988,-3.141,-3.2637,-3.1146,-3.2319,0.0,0.0,0.0,-3.0263,0.0,0.0,0.0,0.0,0.0,0.0,0.0,0.0,0.0,0.0,0.0,0.0,0.0,-2.8401,0.0,-2.8157,-2.8582,-2.8502,-2.7643,-2.7631,-2.7885,0.0,-2.8628,-2.929,-3.0677,-3.1133,-3.1567,-3.2008,-3.2463,-3.3182,-3.4132,-3.4093,-3.4569,-3.5418,-3.5418,-3.5418,-3.5418,-3.5418,-3.5687,-3.6142,-3.6618,-3.7074,-3.7529,-3.7586,-3.7901,-3.8248,-3.8197,-3.8541,-3.8995,-3.1133,-3.0957,-3.0898,-3.0898,-3.1152,-3.1387,-3.1504,-3.2969,-3.4355,-3.5117,-3.5976,-3.666,-3.709,-3.7006,-3.6522,-3.5605,-3.5448,-3.4843,-3.3476,-3.3125,-3.2578,-3.1699,-3.1562,-3.1367,-3.1016,-3.082,-3.0664,-3.0547,0.0,0.0,-3.0176,0.0,0.0,0.0,0.0,0.0,-2.834,-2.9082,-2.9844,-3.0566,-3.0801,-3.0547,-3.0059,0.0,-2.959,-2.8769,-2.8769,-2.8828,-2.8867,-2.8555,-2.8652,-2.8867,-2.8555,-2.8379,-2.8441,-2.927,-2.9112,-2.89,-2.967,-2.9723,-2.944,-2.9076,-3.0317,-3.1169,0.0,0.0,0.0,0.0,0.0,0.0,0.0,0.0,0.0,0.0,0.0,0.0,0.0,0.0,0.0,-2.7421,-2.7271,-2.7431,-2.8336,-2.8218,-2.7976,-2.7652,-2.7729,-2.8033,-2.8587,0.0,-2.9766,-3.1153,-3.0988,-3.1402,-3.2483,-3.2607,-3.3182,-3.4072,-3.4484,-3.4879,-3.5418,-3.5418,-3.5418,-3.5418,-3.5418,-3.5687,-3.6142,-3.6618,-3.7074,-3.7529,-3.7586,-3.7679,-3.79,-3.8211,-3.8447,-3.8646,-3.1289,-3.1016,-3.0898,-3.0898,-3.1406,-3.1797,-3.1797,-3.293,-3.4101,-3.498,-3.584,-3.6484,-3.6719,-3.6523,-3.6191,-3.5703,-3.5254,-3.4629,-3.3769,-3.3476,-3.2988,-3.2207,-3.1934,-3.1719,-3.1523,-3.1113,0.0,-3.0898,0.0,0.0,-3.0176,0.0,0.0,0.0,0.0,-2.8301,-2.8359,-2.9199,-2.9961,-3.0605,-3.082,-3.0742,0.0,-3.0508,-2.9961,-2.9219,-2.9414,-2.9121,-2.8613,-2.8379,-2.8457,-2.8613,-2.8359,-2.8301,-2.8388,-2.9006,-2.9112,-2.9112,-2.9723,-2.9828,-2.9723,-2.9723,-3.0448,-3.0867,-2.9796,-3.0461,-3.0867,0.0,-2.9036,-2.8866,0.0,0.0,0.0,0.0,0.0,0.0,0.0,0.0,0.0,0.0,-2.7113,-2.7292,-2.8233,-2.742,-2.6947,-2.7081,-2.7431,-2.7803,-2.8247,0.0,-2.9973,-3.0739,-3.1298,-3.1961,-3.2669,-3.3455,-3.4072,-3.4443,-3.4838,-3.519,-3.5418,-3.5418,-3.5418,-3.5418,-3.5418,-3.579,-3.6432,-3.6701,-3.7068,-3.7575,-3.7624,-3.7717,-3.7808,-3.8334,-3.8462,-3.847,-3.168,-3.123,-3.0957,-3.0898,-3.1641,-3.2285,-3.2402,-3.3184,-3.4004,-3.4707,-3.5605,-3.6172,-3.6113,-3.6055,-3.6016,-3.6016,-3.5586,-3.498,-3.4199,-3.4043,-3.3496,-3.2383,-3.2287,-3.1992,-3.1621,-3.1133,-3.0898,0.0,-3.043,-3.0176,-3.0098,0.0,0.0,0.0,0.0,0.0,0.0,-2.9238,-2.9805,-3.0234,-3.0703,-3.0898,-3.0898,-3.0898,-3.0371,-2.9707,-3.0059,-2.9414,-2.8379,-2.8379,-2.8418,-2.8437,-2.832,-2.834,-2.8359,-2.832,-2.8953,-2.967,-2.967,-3.0401,-3.1176,-3.1176,-3.1278,-3.1103,-3.012,-3.0037,-2.9828,-2.8741,-2.8495,-2.8323,-2.7787,0.0,0.0,0.0,0.0,0.0,0.0,0.0,0.0,0.0,0.0,0.0,-2.7907,-2.6616,-2.6064,-2.6637,-2.7089,-2.7577,0.0,0.0,-2.9994,-3.018,-3.1774,-3.2731,-3.3021,-3.4569,-3.5231,-3.5024,-3.5293,-3.5418,-3.5418,-3.548,-3.55,-3.5521,-3.5583,-3.6101,-3.6887,-3.6887,-3.7164,-3.7644,-3.7808,-3.7913,-3.7969,-3.8418,-3.8557,-3.8517,-3.1621,-3.1465,-3.1309,-3.0957,-3.1894,-3.293,-3.3633,-3.4785,-3.5488,-3.5293,-3.6328,-3.6934,-3.6601,-3.623,-3.6016,-3.6016,-3.5293,-3.4766,-3.4609,-3.3926,-3.3437,-3.3203,-3.2539,-3.2129,-3.2051,-3.1289,-3.0898,-3.0898,-3.043,-3.0019,-2.9668,0.0,0.0,0.0,0.0,0.0,-2.8848,-2.9355,0.0,-3.0234,-3.0703,-3.0898,-3.0898,-3.0898,-3.0547,-3.0098,-3.0176,-2.959,-2.8809,-2.8809,-2.9043,-2.9219,-2.8516,-2.8535,-2.875,-2.8398,-2.8441,-2.8601,-2.8601,-2.8761,-2.8847,-2.8847,-2.9513,-3.012,-2.9984,-3.0639,-3.0949,-2.988,-2.9618,-2.9233,-2.7944,0.0,0.0,0.0,0.0,0.0,0.0,0.0,0.0,0.0,0.0,-2.6884,-2.7033,-2.7242,-2.7452,-2.7583,-2.7864,-2.8318,-2.9042,0.0,-2.9953,0.0,-3.1795,-3.3,0.0,0.0,-3.5397,-3.6432,-3.5749,-3.5418,-3.5438,-3.5811,-3.5997,-3.6018,-3.639,-3.6867,-3.7384,-3.7384,-3.7504,-3.773,-3.8156,-3.8125,-3.7969,-3.8418,-3.8608,-3.8549,-3.1894,-3.168,-3.166,-3.2129,-3.2715,-3.3496,-3.459,-3.5469,-3.5937,-3.5742,-3.5859,-3.5957,-3.5996,-3.6016,-3.6016,-3.6016,-3.5215,-3.4707,-3.4707,-3.3906,-3.3418,-3.3418,-3.2617,-3.2229,-3.2229,-3.1328,-3.0898,-3.0898,-3.0215,-2.9766,0.0,0.0,0.0,0.0,0.0,-2.8613,0.0,0.0,0.0,-2.9922,-3.0625,-3.0742,-3.0547,-3.0801,-3.0469,-2.9922,-3.0391,-3.0137,-2.9551,-2.9336,-2.9101,-2.8867,-2.8672,-2.8613,-2.8555,-2.8359,-2.8301,-2.8301,-2.8301,-2.8301,-2.8301,-2.8301,-2.8708,-2.9059,-2.9059,-2.9481,-2.9723,-2.9164,-2.9059,-2.878,-2.7839,-2.7148,0.0,0.0,0.0,0.0,0.0,0.0,-2.6979,0.0,0.0,0.0,0.0,-2.7586,0.0,0.0,-2.7814,-2.8371,-2.8407,0.0,-3.0325,0.0,0.0,0.0,-3.4714,0.0,-3.6018,-3.6453,-3.6246,-3.6142,-3.6142,-3.637,-3.6473,-3.6494,-3.6701,-3.7074,-3.7529,-3.7806,-3.8112,-3.8401,-3.8658,-3.8675,-3.859,-3.8806,-3.8793,-3.8574,-3.2422,-3.2168,-3.2246,-3.3242,-3.3652,-3.4199,-3.5234,-3.584,-3.6133,-3.6035,-3.541,-3.5117,-3.5488,-3.5742,-3.5879,-3.5879,-3.5078,-3.457,-3.457,-3.3848,-3.3418,-3.3418,-3.2617,-3.2229,-3.2229,-3.1328,-3.0898,-3.0898,-3.0098,-2.9648,-2.9607,0.0,0.0,0.0,0.0,0.0,0.0,0.0,-3.0,-2.9822,-3.0566,-3.0605,-3.0254,-3.0703,-3.0391,-2.9785,-3.0488,-3.0449,-3.0019,-2.9687,-2.9258,-2.8848,-2.8906,-2.875,-2.8535,-2.834,-2.8301,-2.8301,-2.8301,-2.8301,-2.8301,-2.8301,-2.8301,-2.8301,-2.8301,-2.8359,-2.8398,-2.832,-2.8301,-2.8184,-2.7904,-2.7441,0.0,0.0,0.0,0.0,0.0,0.0,0.0,0.0,0.0,0.0,-2.7266,0.0,0.0,0.0,-2.7482,-2.8157,-2.7953,-2.9435,-3.0458,0.0,0.0,-3.3741,-3.4486,0.0,-3.6618,-3.6556,-3.6722,-3.6804,-3.6804,-3.6908,-3.6949,-3.6949,-3.7053,-3.7363,-3.7839,-3.8309,-3.8718,-3.9007,-3.9071,-3.9066,-3.9103,-3.9103,-3.8865,-3.8574,-3.3223,-3.3262,-3.3281,-3.3398,-3.4414,-3.5254,-3.5371,-3.6074,-3.6465,-3.6074,-3.5937,-3.5918,-3.5957,-3.5664,-3.5449,-3.5449,-3.4648,-3.4141,-3.4141,-3.3691,-3.3418,-3.3418,-3.2617,-3.2229,-3.2229,-3.1328,-3.0898,-3.0898,-3.0391,-2.9941,-2.9626,0.0,0.0,0.0,0.0,0.0,0.0,-2.9805,-3.0176,-3.0176,-3.0684,-3.0605,-3.0254,-3.0703,-3.0586,-3.0156,-3.0234,-2.998,-2.9685,-2.9646,-3.0059,-3.0449,-2.9277,-2.916,-2.9297,-2.8516,-2.8301,-2.8301,-2.8301,-2.8301,-2.8301,-2.8301,-2.8301,-2.8301,-2.8301,-2.8594,-2.875,-2.8379,-2.8301,-2.8281,-2.8242,-2.7891,-2.7734,0.0,0.0,0.0,0.0,0.0,-2.7891,-2.7109,0.0,0.0,-2.6025,-2.6621,0.0,0.0,-2.7211,-2.793,-2.891,-2.9042,-2.9627,-3.0833,-3.253,-3.4196,-3.5894,-3.608,-3.6784,-3.7984,-3.7177,-3.6804,-3.6825,-3.7239,-3.7425,-3.7446,-3.7881,-3.8316,-3.8703,-3.9199,-3.9237,-3.9081,-3.9121,-3.8923,-3.8647,-3.8647,-3.8647,-3.8574,-3.416,-3.3984,-3.4062,-3.4844,-3.498,-3.5234,-3.6035,-3.623,-3.6211,-3.6035,-3.6016,-3.6113,-3.6387,-3.6035,-3.5664,-3.541,-3.4805,-3.4336,-3.4082,-3.3672,-3.3301,-3.3066,-3.248,-3.2051,-3.1777,-3.1191,-3.0898,0.0,0.0,-3.0117,-2.9941,0.0,0.0,0.0,0.0,-2.9551,-2.9375,-3.0234,-3.0449,-3.0234,-3.0703,-3.0605,-3.0254,-3.0703,-3.0605,-3.0234,-3.0508,-3.0508,-3.0332,-3.0039,-2.9844,-2.9668,-2.9394,-2.9434,-2.9453,-2.8848,-2.8848,-2.9004,-2.875,-2.8867,-2.9062,-2.9062,-2.9062,-2.9062,-2.9062,-2.918,-2.9258,-2.9101,-2.9062,-2.9062,-2.9062,-2.8926,-2.8867,-2.9023,0.0,0.0,0.0,0.0,0.0,-2.75,0.0,-2.7148,0.0,-2.6445,-2.7027,0.0,-2.8061,-2.8316,-2.8969,-2.9085,-2.9775,-3.1155,0.0,-3.3451,-3.5273,-3.6121,-3.6949,-3.7777,-3.7674,-3.7632,-3.7632,-3.7819,-3.8046,-3.8316,-3.8502,-3.8833,-3.9241,-3.9695,-3.9844,-3.9748,-3.98,-3.9573,-3.9208,-3.9011,-3.8812,-3.8574,-3.4883,-3.4668,-3.4785,-3.584,-3.5508,-3.541,-3.6328,-3.6211,-3.6016,-3.6016,-3.6016,-3.6094,-3.6269,-3.5898,-3.5469,-3.5039,-3.459,-3.4199,-3.3906,-3.3594,-3.3242,-3.2812,-3.2383,0.0,-3.1523,-3.1113,-3.0898,-3.0898,-3.0566,0.0,-3.0176,0.0,0.0,0.0,-3.0059,-3.0039,-2.9805,-3.0566,-3.0703,-3.043,-3.0762,-3.0605,-3.0254,-3.0703,-3.0605,-3.0234,-3.0566,-3.0684,-3.0625,-3.0156,-2.9687,-2.9336,-2.9512,-2.9626,-2.9512,-2.9199,-2.9336,-2.9512,-2.9199,-2.9336,-2.9626,-2.9626,-2.9626,-2.9626,-2.9626,-2.9668,-2.9746,-2.9746,-2.9648,-2.9626,-2.9626,-2.9626,-2.9665,-2.9726,0.0,0.0,0.0,-2.9541,0.0,-2.8002,-2.7734,-2.7282,-2.6495,-2.6604,-2.7247,0.0,-2.8737,-2.8834,-2.9164,-2.9301,-3.0034,0.0,0.0,0.0,-3.5148,-3.639,-3.7239,-3.7695,-3.8026,-3.8253,-3.8378,-3.8523,-3.875,-3.8993,-3.9117,-3.9364,-3.9716,-4.01,-4.0144,-4.0023,-3.9993,-3.9734,-3.9353,-3.9083,-3.8865,-3.8574,-3.5293,-3.5391,-3.5508,-3.5937,-3.6016,-3.6016,-3.6035,-3.6016,-3.6016,-3.6016,-3.6016,-3.5859,-3.5449,-3.5,-3.4551,-3.4121,-3.3691,-3.3437,-3.3437,-3.3418,-3.3242,0.0,-3.2383,-3.1953,-3.1523,-3.1113,-3.0898,-3.0898,0.0,0.0,-3.0176,0.0,-2.9785,-3.0195,-3.0195,-3.0195,-3.0215,-3.0684,-3.0879,-3.0879,-3.0898,-3.0605,-3.0254,-3.0703,-3.0605,-3.0195,-3.0195,-3.0195,-3.0137,-2.9726,-2.9844,-3.0117,-2.9707,-2.9626,-2.9626,-2.957,-2.9626,-2.9626,-2.957,-2.9626,-2.9626,-2.9626,-2.9626,-2.9626,-2.9626,-2.9883,-3.0195,-3.0195,-2.9863,-2.9626,-2.9626,-2.9626,-2.9707,-3.0117,0.0,0.0,0.0,-3.035,0.0,-2.8486,-2.8761,-2.8349,-2.6554,-2.699,0.0,0.0,-2.8943,-2.9386,-2.9755,0.0,0.0,-3.1569,-3.321,0.0,-3.608,-3.7032,-3.7715,-3.8171,-3.8191,-3.8419,-3.8786,-3.9241,-3.9468,-3.9488,-3.9943,-4.022,-4.0191,-4.0269,-4.0074,-3.9642,-3.9301,-3.8958,-3.8647,-3.8574,-3.8574,-3.8574,-3.5801,-3.582,-3.5859,-3.5996,-3.6016,-3.6016,-3.6016,-3.6016,-3.6016,-3.6016,-3.6016,-3.5859,-3.543,-3.5508,-3.5312,-3.457,-3.4375,-3.4043,-3.3457,-3.3418,-3.3105,-3.2402,-3.2246,-3.1836,-3.1113,-3.0957,-3.0898,-3.0898,0.0,0.0,0.0,-3.0527,-3.0547,-3.0664,-3.0664,-3.0664,-3.0684,-3.082,-3.0898,-3.0898,-3.0898,-3.0801,-3.0684,-3.084,-3.0801,-3.0664,-3.0664,-3.0664,-3.0605,-3.0156,-3.0078,-3.0176,-3.0039,-3.0215,-3.041,-3.0098,-3.0215,-3.041,-3.0078,-3.0234,-3.0469,-3.0469,-3.0469,-3.0469,-3.0469,-3.0739,-3.0991,-3.1222,-3.1179,-3.108,-3.108,-3.108,-3.112,-3.1259,-3.1237,0.0,-3.086,0.0,-2.9983,-2.862,-2.8585,-2.8133,-2.6814,-2.7571,0.0,0.0,0.0,-3.0084,0.0,0.0,0.0,0.0,-3.3475,0.0,-3.6556,-3.7177,-3.7736,-3.8191,-3.8233,-3.833,-3.8503,-3.8644,-3.8937,-3.9221,-3.9364,-3.9607,-3.9891,-3.987,-3.9786,-3.9642,-3.9321,-3.9103,-3.8958,-3.872,-3.8574,-3.8574,-3.6074,-3.6289,-3.6406,-3.6074,-3.6289,-3.6387,-3.6074,-3.6152,-3.6211,-3.6035,-3.6016,-3.5918,-3.5664,-3.5859,-3.5605,-3.4551,-3.4316,-3.3984,-3.3457,-3.3418,-3.3047,-3.2268,-3.2229,-3.1758,-3.0918,-3.0898,-3.0898,-3.0898,-3.0898,-3.0898,-3.0898,-3.0898,-3.0898,-3.0898,-3.0898,-3.0898,-3.0898,-3.0898,-3.0898,-3.0898,-3.0898,-3.0898,-3.0898,-3.0898,-3.0898,-3.0898,-3.0898,-3.0898,-3.084,-3.0547,-3.0449,-3.0449,-3.0449,-3.0664,-3.084,-3.0547,-3.0664,-3.082,-3.0527,-3.0664,-3.0898,-3.0898,-3.0898,-3.0957,-3.1054,-3.1405,-3.1816,-3.2049,-3.217,-3.2309,-3.2069,-3.2049,-3.1989,-3.1828,-3.1903,-3.1799,-3.1184,0.0,-3.0451,0.0,0.0,-2.8978,0.0,-2.9003,-2.9748,0.0,0.0,0.0,0.0,0.0,-3.2292,-3.3203,-3.4324,-3.552,-3.6838,-3.7529,-3.7913,-3.8016,-3.8445,-3.8615,-3.8688,-3.8849,-3.907,-3.9312,-3.9312,-3.9453,-3.9714,-3.957,-3.9518,-3.9518,-3.9103,-3.8958,-3.8958,-3.872,-3.8574,-3.8574,-3.6191,-3.6719,-3.7031,-3.6172,-3.6699,-3.6973,-3.6152,-3.6367,-3.6484,-3.6074,-3.6016,-3.6016,-3.6016,-3.5996,-3.5488,-3.4258,-3.3789,-3.3535,-3.3476,-3.3476,-3.3086,-3.2307,-3.2187,-3.1777,-3.0957,-3.0898,-3.0957,-3.0957,-3.0898,-3.0898,-3.0898,-3.0898,-3.0898,-3.0898,-3.0898,-3.0898,-3.0898,-3.0898,-3.0898,-3.0898,-3.0898,-3.0898,-3.0898,-3.0898,-3.0898,-3.0898,-3.0898,-3.0898,-3.0898,-3.0898,-3.0898,-3.0898,-3.0898,-3.0898,-3.0898,-3.0898,-3.0898,-3.0898,-3.0898,-3.0918,-3.0937,-3.0996,-3.1015,-3.1152,-3.1424,-3.2034,-3.2571,-3.263,-3.2953,-3.3114,-3.269,-3.2589,-3.2428,-3.1966,-3.2153,-3.2027,-3.1257,-3.1318,-3.1217,0.0,0.0,0.0,-3.0039,-3.0994,-3.1528,0.0,0.0,0.0,0.0,0.0,-3.3331,-3.4196,-3.5558,-3.651,-3.7019,-3.794,-3.8156,-3.7754,-3.8668,-3.909,-3.906,-3.9461,-3.9642,-3.9642,-3.9642,-3.9642,-3.957,-3.9321,-3.9176,-3.9103,-3.872,-3.8574,-3.8574,-3.8574,-3.8574,-3.8574,-3.6191,-3.6719,-3.7031,-3.6172,-3.6465,-3.6641,-3.6094,-3.6113,-3.6133,-3.6035,-3.6016,-3.6016,-3.6016,-3.5742,-3.541,-3.5098,-3.498,-3.4648,-3.3965,-3.3926,-3.3535,-3.2676,-3.2344,-3.1914,-3.1387,-3.1269,-3.1228,-3.1228,-3.0995,-3.0898,-3.0898,-3.0898,-3.0898,-3.0898,-3.0898,-3.0898,-3.0898,-3.0898,-3.0898,-3.0898,-3.0898,-3.0898,-3.0898,-3.0898,-3.0898,-3.0898,-3.0898,-3.0898,-3.0898,-3.0898,-3.0898,-3.0898,-3.0898,-3.0898,-3.0898,-3.0898,-3.0898,-3.0898,-3.0898,-3.1133,-3.1426,-3.1663,-3.2217,-3.2754,-3.2972,-3.3172,-3.3432,-3.3669,-3.3811,-3.3852,-3.3749,-3.344,-3.3173,-3.307,-3.2761,-3.2323,-3.1484,-3.1622,-3.143,0.0,-3.1045,-3.1402,-3.0724,-3.1554,-3.2129,0.0,0.0,-3.3031,-3.3798,-3.4573,-3.508,-3.5146,-3.6534,-3.7543,-3.8013,-3.8286,-3.8337,-3.8345,-3.8564,-3.868,-3.8708,-3.8806,-3.8865,-3.8865,-3.8865,-3.8865,-3.8865,-3.8793,-3.872,-3.872,-3.8647,-3.8574,-3.8574,-3.8574,-3.8574,-3.8574,-3.6523,-3.6992,-3.7324,-3.6465,-3.668,-3.6738,-3.6113,-3.6348,-3.6465,-3.6074,-3.6191,-3.623,-3.6035,-3.582,-3.5684,-3.5684,-3.5312,-3.4785,-3.4121,-3.4082,-3.3691,-3.2832,-3.2578,-3.2168,-3.1523,-3.1407,-3.1309,-3.1112,-3.0937,-3.0898,-3.0898,-3.0898,-3.0898,-3.0898,-3.0898,-3.0898,-3.0898,-3.0898,-3.0898,-3.0898,-3.1054,-3.1112,-3.1112,-3.1228,-3.1286,-3.1286,-3.1286,-3.1286,-3.1286,-3.1112,-3.1112,-3.1093,-3.1172,-3.129,-3.1388,-3.1485,-3.1191,-3.0937,-3.1133,-3.1348,-3.1622,-3.2177,-3.2894,-3.3476,-3.386,-3.4165,-3.4552,-3.4962,-3.5169,-3.519,-3.4755,-3.4486,-3.4113,-3.3472,-3.3182,-3.2706,-3.1816,-3.1843,-3.1919,-3.1588,-3.2209,-3.2731,-3.2929,-3.3608,-3.3897,-3.3534,-3.4106,0.0,-3.4798,-3.6156,-3.6638,-3.6184,-3.7334,-3.8076,-3.8147,-3.8136,-3.8311,-3.8531,-3.8531,-3.8577,-3.8574,-3.8574,-3.8574,-3.8574,-3.8574,-3.8574,-3.8574,-3.8574,-3.8574,-3.8574,-3.8574,-3.8574,-3.8574,-3.8574,-3.8574,-3.8574,-3.6894,-3.7305,-3.7598,-3.6894,-3.7051,-3.7031,-3.623,-3.6738,-3.6914,-3.6133,-3.6348,-3.6426,-3.6055,-3.6074,-3.6094,-3.6084,-3.5457,-3.4851,-3.4297,-3.4199,-3.3809,-3.3027,-3.2871,-3.2422,-3.1641,-3.1544,-3.1309,-3.0937,-3.0937,-3.0937,-3.0937,-3.0937,-3.0995,-3.1054,-3.1054,-3.1054,-3.1054,-3.1054,-3.1054,-3.1054,-3.1267,-3.1383,-3.1383,-3.1672,-3.1787,-3.1787,-3.1868,-3.1888,-3.185,-3.1678,-3.1523,-3.1544,-3.1663,-3.186,-3.2038,-3.2232,-3.178,-3.127,-3.1583,-3.178,-3.2136,-3.2933,-3.3538,-3.4064,-3.4595,-3.517,-3.5749,-3.6142,-3.6535,-3.6535,-3.5687,-3.5418,-3.4941,-3.3782,-3.341,-3.3016,-3.2194,0.0,-3.252,-3.3285,-3.3555,-3.4176,-3.5397,-3.581,-3.583,-3.5252,-3.6126,-3.6501,-3.6038,-3.7374,-3.7882,-3.7238,-3.8147,-3.8363,-3.7924,-3.7994,-3.8203,-3.8574,-3.8574,-3.8574,-3.8574,-3.8574,-3.8574,-3.8574,-3.8574,-3.8574,-3.8574,-3.8574,-3.8574,-3.8574,-3.8574,-3.8574,-3.8574,-3.8574,-3.8574,-3.8574,-3.6777,-3.707,-3.7344,-3.7226,-3.7246,-3.7129,-3.6641,-3.668,-3.6582,-3.6094,-3.6074,-3.6094,-3.6035,-3.6348,-3.6544,-3.6423,-3.6689,-3.6375,-3.5234,-3.4824,-3.4375,-3.3906,-3.3184,-3.2559,-3.207,-3.1584,-3.1287,-3.1208,-3.1208,-3.1208,-3.1208,-3.1208,-3.1383,-3.1672,-3.1672,-3.1672,-3.1672,-3.1672,-3.1672,-3.1672,-3.173,-3.173,-3.173,-3.1787,-3.1787,-3.1848,-3.223,-3.2409,-3.2411,-3.2793,-3.2755,-3.2515,-3.2835,-3.2614,-3.2211,-3.2512,-3.2554,-3.2395,-3.2534,-3.3175,-3.4085,-3.496,-3.5415,-3.5852,-3.6306,-3.6472,-3.6618,-3.668,-3.6763,-3.6639,-3.6101,-3.5376,-3.4797,-3.4629,-3.3575,-3.2789,-3.2587,0.0,-3.3223,-3.3348,-3.4403,-3.5335,-3.5956,-3.5901,-3.6237,-3.7131,-3.623,-3.6475,-3.8343,-3.7818,-3.7867,-3.8718,-3.893,-3.8855,-3.8451,-3.851,-3.8516,-3.8574,-3.8574,-3.8574,-3.8574,-3.8574,-3.8574,-3.8574,-3.8574,-3.8574,-3.8574,-3.8574,-3.8574,-3.8574,-3.8574,-3.8574,-3.8574,-3.8574,-3.8574,-3.8574,-3.709,-3.7344,-3.7637,-3.7637,-3.7441,-3.7148,-3.6738,-3.6855,-3.6855,-3.6426,-3.6562,-3.669,-3.6661,-3.6819,-3.6897,-3.6849,-3.6785,-3.6677,-3.6348,-3.5475,-3.4837,-3.4403,-3.3603,-3.293,-3.2519,-3.2015,-3.1801,-3.1801,-3.1979,-3.2038,-3.2038,-3.2216,-3.2394,-3.2571,-3.2571,-3.243,-3.2208,-3.2208,-3.2009,-3.1845,-3.2018,-3.2076,-3.2096,-3.2513,-3.2653,-3.2714,-3.3184,-3.3348,-3.3368,-3.3414,-3.3175,-3.2975,-3.3154,-3.3173,-3.3091,-3.3267,-3.3168,-3.3111,-3.3534,-3.4347,-3.5146,-3.5799,-3.6218,-3.668,-3.7384,-3.755,-3.7612,-3.786,-3.7703,-3.741,-3.6647,-3.6054,-3.5519,-3.5273,-3.4101,-3.3358,-3.3782,-3.3664,-3.3935,-3.5107,-3.5997,-3.6908,-3.786,-3.7816,-3.7934,-3.8253,-3.7481,-3.7508,-3.8615,-3.8226,-3.8189,-3.8838,-3.8858,-3.8741,-3.8574,-3.8574,-3.8574,-3.8574,-3.8574,-3.8574,-3.8574,-3.8574,-3.8574,-3.8574,-3.8574,-3.8574,-3.8574,-3.8574,-3.8574,-3.8574,-3.8574,-3.8574,-3.8574,-3.8574,-3.8574,-3.8574,-3.7324,-3.748,-3.7695,-3.7891,-3.7649,-3.7219,-3.6738,-3.7073,-3.7241,-3.6838,-3.7162,-3.74,-3.753,-3.7609,-3.7608,-3.7577,-3.7245,-3.7205,-3.7375,-3.6349,-3.5511,-3.5022,-3.4132,-3.3473,-3.306,-3.2688,-3.2471,-3.2411,-3.2774,-3.2894,-3.2894,-3.3175,-3.3316,-3.3436,-3.3436,-3.3233,-3.2849,-3.2727,-3.2545,-3.238,-3.251,-3.2646,-3.2769,-3.3351,-3.3534,-3.3596,-3.4051,-3.4297,-3.4238,-3.3981,-3.372,-3.3558,-3.3755,-3.3957,-3.4161,-3.4415,-3.4253,-3.4135,-3.4727,-3.5387,-3.5988,-3.6459,-3.6838,-3.7343,-3.815,-3.8419,-3.8605,-3.8869,-3.8726,-3.8276,-3.7391,-3.6865,-3.6418,-3.584,0.0,-3.4205,-3.4859,-3.4614,-3.5026,-3.6784,-3.7467,-3.8274,-3.9364,-3.9502,-3.933,-3.898,-3.8746,-3.8658,-3.8819,-3.8624,-3.8603,-3.872,-3.8647,-3.8574,-3.8574,-3.8574,-3.8574,-3.8574,-3.8574,-3.8574,-3.8574,-3.8574,-3.8574,-3.8574,-3.8574,-3.8574,-3.8574,-3.8574,-3.8574,-3.8574,-3.8574,-3.8574,-3.8574,-3.8574,-3.8574,-3.8574,-3.7148,-3.7012,-3.7012,-3.7793,-3.7791,-3.7499,-3.6808,-3.7233,-3.7557,-3.7193,-3.7488,-3.7944,-3.8326,-3.8728,-3.8929,-3.8853,-3.8812,-3.8629,-3.8221,-3.7345,-3.6684,-3.6314,-3.5043,-3.418,-3.3718,-3.3578,-3.3355,-3.3135,-3.3415,-3.3535,-3.3535,-3.3595,-3.3774,-3.4013,-3.4013,-3.3992,-3.393,-3.3496,-3.3537,-3.3868,-3.3492,-3.3575,-3.3969,-3.401,-3.4069,-3.4132,-3.4608,-3.4774,-3.4776,-3.48,-3.4758,-3.4839,-3.5287,-3.524,-3.5151,-3.5916,-3.6102,-3.6082,-3.6167,-3.6401,-3.6802,-3.7257,-3.7757,-3.8212,-3.8688,-3.9055,-3.9385,-3.9406,-3.9426,-3.9124,-3.8357,-3.776,-3.715,-3.6289,0.0,0.0,-3.5376,-3.608,-3.6804,-3.7384,-3.8212,-3.8889,-3.9426,-3.9561,-3.9575,-3.9534,-3.9321,-3.9438,-4.0157,-3.9169,-3.8773,-3.9103,-3.8793,-3.8574,-3.8574,-3.8574,-3.8574,-3.8574,-3.8574,-3.8574,-3.8574,-3.8574,-3.8574,-3.8574,-3.8574,-3.8574,-3.8574,-3.8574,-3.8574,-3.8574,-3.8574,-3.8574,-3.8574,-3.8574,-3.8574,-3.8574,-3.7187,-3.7594,-3.7992,-3.8603,-3.8831,-3.8786,-3.8296,-3.8427,-3.8477,-3.8407,-3.8497,-3.8768,-3.9161,-3.9323,-3.9382,-3.9302,-3.9122,-3.8917,-3.8603,-3.7852,-3.6994,-3.6098,-3.5787,-3.5443,-3.507,-3.4689,-3.4467,-3.4342,-3.437,-3.4411,-3.4411,-3.4595,-3.4778,-3.49,-3.49,-3.4755,-3.4546,-3.436,-3.4235,-3.4051,-3.3924,-3.3906,-3.4152,-3.4443,-3.4546,-3.4608,-3.5004,-3.5355,-3.5625,-3.5665,-3.5723,-3.5799,-3.5963,-3.596,-3.5977,-3.6835,-3.7044,-3.7167,-3.7723,-3.7522,-3.7405,-3.815,-3.846,-3.8792,-3.9537,-3.9847,-3.9902,-3.9902,-3.9762,-3.9409,-3.8869,-3.8344,-3.7954,-3.7922,0.0,-3.665,-3.7401,-3.7415,-3.7678,-3.86,-3.9103,-3.945,-3.9971,-3.98,-3.9759,-3.9994,-3.9706,-3.9734,-4.0238,-3.9662,-3.9156,-3.8865,-3.8958,-3.8958,-3.8958,-3.872,-3.8574,-3.8574,-3.8574,-3.8574,-3.8574,-3.8574,-3.8574,-3.8574,-3.8574,-3.8574,-3.8574,-3.8574,-3.8574,-3.8574,-3.8574,-3.8574,-3.8574,-3.8574,-3.8574,-3.8574,-3.7755,-3.8303,-3.8815,-3.9134,-3.9441,-3.9515,-3.9,-3.9081,-3.9262,-3.9263,-3.9354,-3.9627,-3.9962,-3.9982,-4.0,-3.9922,-3.9618,-3.9343,-3.9241,-3.8582,-3.758,-3.6136,-3.6497,-3.6497,-3.6095,-3.5791,-3.5628,-3.5628,-3.5556,-3.5394,-3.5271,-3.5521,-3.5562,-3.5418,-3.5418,-3.5335,-3.5169,-3.5024,-3.4879,-3.4693,-3.4548,-3.4486,-3.4548,-3.5004,-3.519,-3.5252,-3.5687,-3.6059,-3.6328,-3.6201,-3.628,-3.6439,-3.6517,-3.6763,-3.7201,-3.7939,-3.8129,-3.8274,-3.8827,-3.8605,-3.8295,-3.8848,-3.9096,-3.9385,-4.0075,-4.0323,-4.0427,-4.0427,-4.0215,-3.99,-3.9453,-3.9114,-3.8917,-3.8963,-3.8344,-3.8027,-3.8703,-3.8494,-3.8562,-3.9474,-3.9575,-3.9749,-4.0054,-3.9858,-3.9786,-4.0094,-3.9734,-3.959,-3.9734,-3.9662,-3.9301,-3.8793,-3.8958,-3.9103,-3.9176,-3.8793,-3.8574,-3.8574,-3.8574,-3.8574,-3.8574,-3.8574,-3.8574,-3.8574,-3.8574,-3.8574,-3.8574,-3.8574,-3.8574,-3.8574,-3.8574,-3.8574,-3.8574,-3.8574,-3.8574,-3.8574,-3.9061,-3.907,-3.9141,-3.907,-3.9354,-3.9353,-3.8647,-3.9053,-3.9584,-3.9686,-4.003,-4.0406,-4.082,-4.0882,-4.0882,-4.0882,-4.0489,-4.0241,-4.022,-3.9736,-3.873,-3.6908,-3.726,-3.7281,-3.6825,-3.6804,-3.6804,-3.6804,-3.6804,-3.6577,-3.6121,-3.6121,-3.5873,-3.5438,-3.5438,-3.5687,-3.608,-3.5625,-3.5707,-3.608,-3.5625,-3.5438,-3.548,-3.5935,-3.6121,-3.6183,-3.6639,-3.6804,-3.674,-3.6418,-3.6547,-3.6844,-3.6971,-3.7863,-3.8869,-3.9344,-3.9468,-3.9468,-3.9468,-3.9468,-3.9468,-3.9468,-3.9889,-4.022,-4.0241,-4.0572,-4.0882,-4.0882,-4.0882,-4.0811,-4.0382,-4.0247,-3.9935,-3.9134,-3.9281,-3.9323,-3.8869,-3.9294,-3.9566,-3.9566,-3.9667,-3.9714,-3.9714,-3.9714,-3.9714,-3.9714,-3.9373,-3.903,-3.8647,-3.8958,-3.9176,-3.9176,-3.8793,-3.8793,-3.9176,-3.8793,-3.8574,-3.8574,-3.8574,-3.8574,-3.8574,-3.8574,-3.8574,-3.8574,-3.8574,-3.8574,-3.8574,-3.8574,-3.8574,-3.8574,-3.8574,-3.8574,-3.8574,-3.8574,-3.8574,-3.8574,-3.9061,-3.9354,-3.9617,-3.9922,-4.0248,-4.0421,-4.0206,-4.0327,-4.053,-4.0513,-4.0604,-4.0737,-4.0862,-4.0882,-4.0882,-4.0882,-4.0758,-4.0551,-4.0241,-3.9736,-3.922,-3.875,-3.8543,-3.8233,-3.7777,-3.7446,-3.7281,-3.7281,-3.697,-3.6742,-3.6597,-3.6597,-3.6515,-3.639,-3.639,-3.6473,-3.6597,-3.6453,-3.6473,-3.6577,-3.6453,-3.639,-3.6411,-3.6556,-3.6597,-3.6618,-3.6763,-3.7011,-3.7281,-3.715,-3.7583,-3.8249,-3.8635,-3.8986,-3.9302,-3.9426,-3.9468,-3.953,-3.993,-4.0013,-4.0013,-4.0013,-4.0116,-4.0282,-4.0613,-4.0779,-4.0882,-4.0882,-4.0882,-4.0882,-4.074,-4.0708,-4.0634,-4.0348,-4.0206,-4.0023,-3.988,-4.0014,-3.9963,-3.9656,-3.9941,-4.0022,-3.9714,-3.9714,-3.9714,-3.9714,-3.957,-3.9493,-3.9465,-3.9533,-3.9301,-3.8793,-3.8958,-3.8958,-3.8793,-3.8647,-3.8574,-3.8574,-3.8574,-3.8574,-3.8574,-3.8574,-3.8574,-3.8574,-3.8574,-3.8574,-3.8574,-3.8574,-3.8574,-3.8574,-3.8574,-3.8574,-3.8574,-3.8574,-3.8574,-3.8574,-3.9769,-3.9973,-4.0288,-4.0484,-4.074,-4.0882,-4.0882,-4.0882,-4.0882,-4.0882,-4.0882,-4.0882,-4.0882,-4.0882,-4.0882,-4.0882,-4.0882,-4.0696,-4.0261,-4.0137,-3.9909,-3.9558,-3.9385,-3.9102,-3.846,-3.8005,-3.7777,-3.7777,-3.7488,-3.726,-3.7074,-3.7074,-3.697,-3.6804,-3.6804,-3.6908,-3.7074,-3.7074,-3.7074,-3.7074,-3.7074,-3.697,-3.6825,-3.7011,-3.7198,-3.7363,-3.755,-3.7902,-3.8295,-3.8295,-3.8667,-3.9137,-3.9592,-3.9736,-3.9778,-4.0013,-4.0075,-4.0137,-4.0406,-4.0489,-4.0489,-4.0489,-4.0468,-4.053,-4.082,-4.0882,-4.0882,-4.0882,-4.0882,-4.0882,-4.0668,-4.0811,-4.0882,-4.0668,-4.0596,-4.0525,-4.0525,-4.0382,-4.0238,-3.995,-4.0022,-4.0011,-3.9758,-3.9758,-3.9765,-3.9798,-3.9871,-3.9838,-3.9589,-3.9532,-3.9241,-3.8647,-3.8865,-3.8885,-3.8574,-3.8574,-3.8574,-3.8574,-3.8574,-3.8574,-3.8574,-3.8574,-3.8574,-3.8574,-3.8574,-3.8574,-3.8574,-3.8574,-3.8574,-3.8594,-3.875,-3.873,-3.8594,-3.8769,-3.8711,-3.8574,-4.0882,-4.0882,-4.0882,-4.0882,-4.0882,-4.0882,-4.0882,-4.0882,-4.0882,-4.0882,-4.0882,-4.0882,-4.0882,-4.0882,-4.0882,-4.0882,-4.0882,-4.0717,-4.0323,-4.0655,-4.051,-3.9682,-4.0013,-3.9827,-3.8931,-3.8543,-3.8295,-3.8253,-3.8253,-3.8005,-3.755,-3.755,-3.7322,-3.6929,-3.6929,-3.7156,-3.755,-3.755,-3.755,-3.755,-3.7591,-3.7363,-3.7032,-3.7508,-3.7943,-3.8357,-3.8703,-3.9117,-3.9468,-3.953,-3.953,-3.9612,-4.0137,-4.0282,-4.0365,-4.0758,-4.0882,-4.0882,-4.0882,-4.0903,-4.0944,-4.0944,-4.0965,-4.0986,-4.0903,-4.0882,-4.0882,-4.0882,-4.0903,-4.0873,-4.0443,-4.0771,-4.0935,-4.0504,-4.075,-4.0873,-4.0873,-4.0474,-4.0258,-4.0227,-3.9919,-3.981,-3.983,-3.9869,-3.9919,-3.9997,-4.0184,-4.0062,-3.9336,-3.9238,-3.9023,-3.8652,-3.8594,-3.8574,-3.8574,-3.8613,-3.8633,-3.8633,-3.8633,-3.8633,-3.8633,-3.8633,-3.8613,-3.8574,-3.8574,-3.8574,-3.8574,-3.8574,-3.8574,-3.8613,-3.9004,-3.8906,-3.8613,-3.9004,-3.8906,-3.8574,-4.0882,-4.0882,-4.0882,-4.0882,-4.0882,-4.0882,-4.0882,-4.0882,-4.0882,-4.0882,-4.0882,-4.0882,-4.0882,-4.0882,-4.0882,-4.0882,-4.0882,-4.0841,-4.0737,-4.082,-4.0779,-4.0593,-4.0365,-4.0137,-3.993,-3.9475,-3.9061,-3.8709,-3.8709,-3.8481,-3.8026,-3.8026,-3.7984,-3.7881,-3.7881,-3.7943,-3.8026,-3.8026,-3.8026,-3.8067,-3.8419,-3.8435,-3.8393,-3.8916,-3.9164,-3.9247,-3.9351,-3.9385,-3.953,-3.9881,-4.0075,-4.0158,-4.0593,-4.0737,-4.0758,-4.0841,-4.0882,-4.0882,-4.0882,-4.1131,-4.1421,-4.1421,-4.169,-4.1772,-4.1048,-4.0882,-4.0882,-4.0882,-4.1172,-4.1421,-4.1348,-4.171,-4.1959,-4.1885,-4.1378,-4.0841,-4.0529,-4.0153,-3.971,-3.9465,-3.9945,-4.0271,-4.0266,-4.0231,-4.0429,-4.0788,-4.0285,-4.0056,-4.0234,-3.957,-3.916,-3.9062,-3.875,-3.8574,-3.8574,-3.8906,-3.9062,-3.9062,-3.9062,-3.9062,-3.9062,-3.9062,-3.8887,-3.8574,-3.8574,-3.8574,-3.8574,-3.8574,-3.8574,-3.8594,-3.8672,-3.8652,-3.8594,-3.8672,-3.8652,-3.8574,-4.0882,-4.0882,-4.0882,-4.0882,-4.0882,-4.0882,-4.0882,-4.0882,-4.0882,-4.0882,-4.0882,-4.0882,-4.0882,-4.0882,-4.0882,-4.0882,-4.0882,-4.0882,-4.0882,-4.0882,-4.0882,-4.0882,-4.0655,-4.053,-4.053,-4.0303,-3.9847,-3.9096,-3.9096,-3.9061,-3.8833,-3.8605,-3.8502,-3.8502,-3.8274,-3.8191,-3.8191,-3.8419,-3.8502,-3.8543,-3.8931,-3.9096,-3.9137,-3.9385,-3.9612,-3.9798,-3.9798,-3.9992,-4.022,-4.0448,-4.053,-4.0572,-4.08,-4.0882,-4.0882,-4.0882,-4.0882,-4.0882,-4.0882,-4.1214,-4.1565,-4.1565,-4.199,-4.2198,-4.1648,-4.1545,-4.1545,-4.1545,-4.1731,-4.1897,-4.1677,-4.203,-4.2249,-4.2048,-4.1768,-4.1375,-4.0785,-4.0671,-4.0431,-3.9864,-4.0284,-4.0733,-4.0722,-4.0732,-4.0873,-4.1109,-4.0778,-4.0508,-4.0527,-3.9902,-3.9531,-3.9531,-3.9101,-3.8984,-3.9199,-3.9414,-3.9629,-3.9824,-3.9629,-3.9531,-3.9531,-3.9297,-3.9082,-3.8867,-3.8652,-3.8574,-3.8574,-3.8574,-3.8574,-3.8594,-3.8789,-3.875,-3.8594,-3.8809,-3.875,-3.8574,-4.0882,-4.0882,-4.0882,-4.0882,-4.0882,-4.0882,-4.0882,-4.0882,-4.0882,-4.0882,-4.0882,-4.0882,-4.0882,-4.0882,-4.0882,-4.0882,-4.0944,-4.0965,-4.0882,-4.0944,-4.0965,-4.0882,-4.0882,-4.0882,-4.0882,-4.0882,-4.0468,-3.9592,-3.9592,-3.955,-3.9468,-3.9075,-3.8889,-3.8889,-3.8585,-3.8419,-3.844,-3.8812,-3.8889,-3.8931,-3.9406,-3.9592,-3.9592,-3.9744,-4.0013,-4.0344,-4.0344,-4.0572,-4.0882,-4.0882,-4.0882,-4.0882,-4.0882,-4.0882,-4.0882,-4.0882,-4.0882,-4.0903,-4.0965,-4.1338,-4.171,-4.1772,-4.2145,-4.2497,-4.2497,-4.2447,-4.2322,-4.2322,-4.2311,-4.2225,-4.1854,-4.2138,-4.2348,-4.1976,-4.2138,-4.2006,-4.1196,-4.1252,-4.1164,-4.0512,-4.0798,-4.1068,-4.1121,-4.1189,-4.1172,-4.1172,-4.1172,-4.1016,-4.0644,-4.0234,-4.0,-4.0,-3.9551,-3.9512,-3.9883,-3.9961,-4.0176,-4.0527,-4.0254,-4.0078,-4.0,-3.9609,-3.9394,-3.9297,-3.8867,-3.8691,-3.8672,-3.8613,-3.8574,-3.8613,-3.8965,-3.8887,-3.8613,-3.8965,-3.8887,-3.8574,-4.0882,-4.0882,-4.0882,-4.0882,-4.0882,-4.0882,-4.0882,-4.0882,-4.0882,-4.0882,-4.0882,-4.0882,-4.0882,-4.0882,-4.0882,-4.0882,-4.1234,-4.1296,-4.0903,-4.1255,-4.1296,-4.0903,-4.0882,-4.0882,-4.0882,-4.0882,-4.0634,-4.0137,-4.0137,-3.993,-3.9468,-3.9406,-3.9385,-3.9364,-3.9323,-3.9351,-3.9351,-3.9344,-3.9385,-3.9426,-3.9951,-4.0137,-4.0179,-4.0551,-4.0737,-4.0779,-4.0779,-4.082,-4.0882,-4.0882,-4.0882,-4.0882,-4.0882,-4.0882,-4.0882,-4.0882,-4.0882,-4.0965,-4.1358,-4.1887,-4.2249,-4.2642,-4.3097,-4.3428,-4.3428,-4.2828,-4.2322,-4.2322,-4.2261,-4.2324,-4.2249,-4.2575,-4.2917,-4.2841,-4.2494,-4.2133,-4.1696,-4.1018,-4.0583,-4.0465,-4.0876,-4.117,-4.1152,-4.121,-4.1172,-4.1172,-4.1172,-4.1152,-4.1094,-4.0664,-4.043,-4.043,-4.0019,-3.9824,-3.9902,-4.0254,-4.0469,-4.0527,-4.0859,-4.0801,-4.043,-4.0371,-4.0137,-3.9766,-3.9316,-3.9121,-3.9082,-3.873,-3.8574,-3.8574,-3.8633,-3.8633,-3.8574,-3.8633,-3.8633,-3.8574,-4.0882,-4.0882,-4.0882,-4.0882,-4.0882,-4.0882,-4.0882,-4.0882,-4.0882,-4.0882,-4.0882,-4.0882,-4.0882,-4.111,-4.1255,-4.1255,-4.169,-4.1876,-4.1742,-4.1908,-4.1752,-4.1276,-4.1255,-4.1131,-4.0882,-4.0882,-4.0779,-4.0593,-4.0593,-4.0489,-4.0282,-4.0034,-3.9909,-3.9889,-3.964,-3.9468,-3.9488,-3.9736,-3.993,-3.9902,-4.0406,-4.0593,-4.0613,-4.08,-4.0882,-4.0882,-4.0882,-4.0882,-4.0882,-4.0882,-4.0882,-4.0882,-4.0882,-4.0882,-4.0924,-4.1193,-4.1069,-4.1027,-4.1752,-4.2177,-4.2373,-4.2807,-4.3036,-4.3233,-4.3233,-4.2774,-4.2412,-4.2638,-4.2479,-4.2393,-4.2642,-4.2882,-4.3081,-4.331,-4.2993,-4.2464,-4.1822,-4.1387,-4.1104,-4.0936,-4.1055,-4.1172,-4.1172,-4.1172,-4.1172,-4.1172,-4.1172,-4.1172,-4.1172,-4.0762,-4.0644,-4.0879,-4.0469,-4.0371,-4.0605,-4.0801,-4.0879,-4.0879,-4.1074,-4.1074,-4.0879,-4.0644,-4.0293,-3.9863,-3.9394,-3.9062,-3.8828,-3.8652,-3.8574,-3.8574,-3.8574,-3.8574,-3.8574,-3.8574,-3.8574,-3.8613]},{"header":{"parameterUnit":"m.s-1","parameterCategory":1,"la1":30.6,"la2":28.766,"lo1":-90.7593,"lo2":-88.6598,"dx":0.0162,"dy":0.0183,"nx":116,"ny":114,"refTime":"2023-01-27T06:00:00:Z","depth":0,"parameterNumber":3,"parameterNumberName":"V-component_of_WINDS"},"data":[0.0,0.0,0.0,0.0,0.0,0.0,0.0,0.0,0.0,0.0,0.0,0.0,0.0,0.0,0.0,0.0,0.0,0.0,0.0,0.0,0.0,0.0,0.0,0.0,0.0,0.0,0.0,0.0,0.0,0.0,0.0,0.0,0.0,0.0,0.0,0.0,0.0,0.0,0.0,0.0,0.0,0.0,0.0,0.0,0.0,0.0,0.0,0.0,0.0,0.0,0.0,0.0,0.0,0.0,0.0,0.0,0.0,0.0,0.0,0.0,0.0,0.0,0.0,0.0,0.0,0.0,0.0,0.0,0.0,0.0,0.0,0.0,0.0,0.0,0.0,0.0,0.0,0.0,0.0,0.0,0.0,0.0,0.0,0.0,0.0,0.0,0.0,0.0,0.0,0.0,0.0,0.0,0.0,0.0,0.0,0.0,0.0,0.0,0.0,0.0,0.0,0.0,0.0,0.0,0.0,0.0,0.0,0.0,0.0,0.0,0.0,0.0,0.0,0.0,0.0,0.0,0.0,0.0,0.0,0.0,0.0,0.0,0.0,0.0,0.0,0.0,0.0,0.0,0.0,0.0,0.0,0.0,0.0,0.0,0.0,0.0,0.0,0.0,0.0,0.0,0.0,0.0,0.0,0.0,0.0,0.0,0.0,0.0,0.0,0.0,0.0,0.0,0.0,0.0,0.0,0.0,0.0,0.0,0.0,0.0,0.0,0.0,0.0,0.0,0.0,0.0,0.0,0.0,0.0,0.0,0.0,0.0,0.0,0.0,0.0,0.0,0.0,0.0,0.0,0.0,0.0,0.0,0.0,0.0,0.0,0.0,0.0,0.0,0.0,0.0,0.0,0.0,0.0,0.0,0.0,0.0,0.0,0.0,0.0,0.0,0.0,0.0,0.0,0.0,0.0,0.0,0.0,0.0,0.0,0.0,0.0,0.0,0.0,0.0,0.0,0.0,0.0,0.0,0.0,0.0,0.0,0.0,0.0,0.0,0.0,0.0,0.0,0.0,0.0,0.0,0.0,0.0,0.0,0.0,0.0,0.0,0.0,0.0,0.0,0.0,0.0,0.0,0.0,0.0,0.0,0.0,0.0,0.0,0.0,0.0,0.0,0.0,0.0,0.0,0.0,0.0,0.0,0.0,0.0,0.0,0.0,0.0,0.0,0.0,0.0,0.0,0.0,0.0,0.0,0.0,0.0,0.0,0.0,0.0,0.0,0.0,0.0,0.0,0.0,0.0,0.0,0.0,0.0,0.0,0.0,0.0,0.0,0.0,0.0,0.0,0.0,0.0,0.0,0.0,0.0,0.0,0.0,0.0,0.0,0.0,0.0,0.0,0.0,0.0,0.0,0.0,0.0,0.0,0.0,0.0,0.0,0.0,0.0,0.0,0.0,0.0,0.0,0.0,0.0,0.0,0.0,0.0,0.0,0.0,0.0,0.0,0.0,0.0,0.0,0.0,0.0,0.0,0.0,0.0,0.0,0.0,0.0,0.0,0.0,0.0,0.0,0.0,0.0,0.0,0.0,0.0,0.0,0.0,0.0,0.0,0.0,0.0,0.0,0.0,0.0,0.0,0.0,0.0,0.0,0.0,0.0,0.0,0.0,0.0,0.0,0.0,0.0,0.0,0.0,0.0,0.0,0.0,0.0,0.0,0.0,0.0,0.0,0.0,0.0,0.0,0.0,0.0,0.0,0.0,0.0,0.0,0.0,0.0,0.0,0.0,0.0,0.0,0.0,0.0,0.0,0.0,0.0,0.0,0.0,0.0,0.0,0.0,0.0,0.0,0.0,0.0,0.0,0.0,0.0,0.0,0.0,0.0,0.0,0.0,0.0,0.0,0.0,0.0,0.0,0.0,0.0,0.0,0.0,0.0,0.0,0.0,0.0,0.0,0.0,0.0,0.0,0.0,0.0,0.0,0.0,0.0,0.0,0.0,0.0,0.0,0.0,0.0,0.0,0.0,0.0,0.0,0.0,0.0,0.0,0.0,0.0,0.0,0.0,0.0,0.0,0.0,0.0,0.0,0.0,0.0,0.0,0.0,0.0,0.0,0.0,0.0,0.0,0.0,0.0,0.0,0.0,0.0,0.0,0.0,0.0,0.0,0.0,0.0,0.0,0.0,0.0,0.0,0.0,0.0,0.0,0.0,0.0,0.0,0.0,0.0,0.0,0.0,0.0,0.0,0.0,0.0,0.0,0.0,0.0,0.0,0.0,0.0,0.0,0.0,0.0,0.0,0.0,0.0,0.0,0.0,0.0,0.0,0.0,0.0,0.0,0.0,0.0,0.0,0.0,0.0,0.0,0.0,0.0,0.0,0.0,0.0,0.0,0.0,0.0,0.0,0.0,0.0,0.0,0.0,0.0,0.0,0.0,0.0,0.0,0.0,0.0,0.0,0.0,0.0,0.0,0.0,0.0,0.0,0.0,0.0,0.0,0.0,0.0,0.0,0.0,0.0,0.0,0.0,0.0,0.0,0.0,0.0,0.0,0.0,0.0,0.0,0.0,0.0,0.0,0.0,0.0,0.0,0.0,0.0,0.0,0.0,0.0,0.0,0.0,0.0,0.0,0.0,0.0,0.0,0.0,0.0,0.0,0.0,0.0,0.0,0.0,0.0,0.0,0.0,0.0,0.0,0.0,0.0,0.0,0.0,0.0,0.0,0.0,0.0,0.0,0.0,0.0,0.0,0.0,0.0,0.0,0.0,0.0,0.0,0.0,0.0,0.0,0.0,0.0,0.0,0.0,0.0,0.0,0.0,0.0,0.0,0.0,0.0,0.0,0.0,0.0,0.0,0.0,0.0,0.0,0.0,0.0,0.0,0.0,0.0,0.0,0.0,0.0,0.0,0.0,0.0,0.0,0.0,0.0,0.0,0.0,0.0,0.0,0.0,0.0,0.0,0.0,0.0,0.0,0.0,0.0,0.0,0.0,0.0,0.0,0.0,0.0,0.0,0.0,0.0,0.0,0.0,0.0,0.0,0.0,0.0,0.0,0.0,0.0,0.0,0.0,0.0,0.0,0.0,0.0,0.0,0.0,0.0,0.0,0.0,0.0,0.0,0.0,0.0,0.0,0.0,0.0,0.0,0.0,0.0,0.0,0.0,0.0,0.0,0.0,0.0,0.0,0.0,0.0,0.0,0.0,0.0,0.0,0.0,0.0,0.0,0.0,0.0,0.0,0.0,0.0,0.0,0.0,0.0,0.0,0.0,0.0,0.0,0.0,0.0,0.0,0.0,0.0,0.0,0.0,0.0,0.0,0.0,0.0,0.0,0.0,0.0,0.0,0.0,0.0,0.0,0.0,0.0,0.0,0.0,0.0,0.0,0.0,0.0,0.0,0.0,0.0,0.0,0.0,0.0,0.0,0.0,0.0,0.0,0.0,0.0,0.0,0.0,0.0,0.0,0.0,0.0,0.0,0.0,0.0,0.0,0.0,0.0,0.0,0.0,0.0,0.0,0.0,0.0,0.0,0.0,0.0,0.0,0.0,0.0,0.0,0.0,0.0,0.0,0.0,0.0,0.0,0.0,0.0,0.0,0.0,0.0,0.0,0.0,0.0,0.0,0.0,0.0,0.0,0.0,0.0,0.0,0.0,0.0,0.0,0.0,0.0,0.0,0.0,0.0,0.0,0.0,0.0,0.0,0.0,0.0,0.0,0.0,0.0,0.0,0.0,0.0,0.0,0.0,0.0,0.0,0.0,0.0,0.0,0.0,0.0,0.0,0.0,0.0,0.0,0.0,0.0,0.0,0.0,0.0,0.0,0.0,0.0,0.0,0.0,0.0,0.0,0.0,0.0,0.0,0.0,0.0,0.0,0.0,0.0,0.0,0.0,0.0,0.0,0.0,0.0,0.0,0.0,0.0,0.0,0.0,0.0,0.0,0.0,0.0,0.0,0.0,0.0,0.0,0.0,0.0,0.0,0.0,0.0,0.0,0.0,0.0,0.0,0.0,0.0,0.0,0.0,0.0,0.0,0.0,0.0,0.0,0.0,0.0,0.0,0.0,0.0,0.0,0.0,0.0,0.0,0.0,0.0,0.0,0.0,0.0,0.0,0.0,0.0,0.0,0.0,0.0,0.0,0.0,0.0,0.0,0.0,0.0,0.0,0.0,0.0,0.0,0.0,0.0,0.0,0.0,0.0,0.0,0.0,0.0,0.0,0.0,0.0,0.0,0.0,0.0,0.0,0.0,0.0,0.0,0.0,0.0,0.0,0.0,0.0,0.0,0.0,0.0,0.0,0.0,0.0,0.0,0.0,0.0,0.0,0.0,0.0,0.0,0.0,0.0,0.0,0.0,0.0,0.0,0.0,0.0,0.0,0.0,0.0,0.0,0.0,0.0,0.0,0.0,0.0,0.0,0.0,0.0,0.0,0.0,0.0,0.0,0.0,0.0,0.0,0.0,0.0,0.0,0.0,0.0,0.0,0.0,0.0,0.0,0.0,0.0,0.0,0.0,0.0,0.0,0.0,0.0,0.0,0.0,0.0,0.0,0.0,0.0,0.0,0.0,0.0,0.0,0.0,0.0,0.0,0.0,0.0,0.0,0.0,0.0,0.0,0.0,0.0,0.0,0.0,0.0,0.0,0.0,0.0,0.0,0.0,0.0,0.0,0.0,0.0,0.0,0.0,0.0,0.0,0.0,0.0,0.0,0.0,0.0,0.0,0.0,0.0,0.0,0.0,0.0,0.0,0.0,0.0,0.0,0.0,0.0,0.0,0.0,0.0,0.0,0.0,0.0,0.0,0.0,0.0,0.0,0.0,0.0,0.0,0.0,0.0,0.0,0.0,0.0,0.0,0.0,0.0,0.0,0.0,0.0,0.0,0.0,0.0,0.0,0.0,0.0,0.0,0.0,0.0,0.0,0.0,0.0,0.0,0.0,0.0,0.0,0.0,0.0,0.0,0.0,0.0,0.0,0.0,0.0,0.0,0.0,0.0,0.0,0.0,0.0,0.0,0.0,0.0,0.0,0.0,0.0,0.0,0.0,0.0,0.0,0.0,0.0,0.0,0.0,0.0,0.0,0.0,0.0,0.0,0.0,0.0,0.0,0.0,0.0,0.0,0.0,0.0,0.0,0.0,0.0,0.0,0.0,0.0,0.0,0.0,0.0,0.0,0.0,0.0,0.0,0.0,0.0,0.0,0.0,0.0,0.0,0.0,0.0,0.0,0.0,0.0,0.0,0.0,0.0,0.0,0.0,0.0,0.0,0.0,0.0,0.0,0.0,0.0,0.0,0.0,0.0,0.0,0.0,0.0,0.0,0.0,0.0,0.0,0.0,0.0,0.0,0.0,0.0,0.0,0.0,0.0,0.0,0.0,0.0,0.0,0.0,0.0,0.0,0.0,0.0,0.0,0.0,0.0,0.0,0.0,0.0,0.0,0.0,0.0,0.0,0.0,0.0,0.0,0.0,0.0,0.0,0.0,0.0,0.0,0.0,0.0,0.0,0.0,0.0,0.0,0.0,0.0,0.0,0.0,0.0,0.0,0.0,0.0,0.0,0.0,0.0,0.0,0.0,0.0,0.0,0.0,0.0,0.0,0.0,0.0,0.0,0.0,0.0,0.0,0.0,0.0,0.0,0.0,0.0,0.0,0.0,0.0,0.0,0.0,0.0,0.0,0.0,0.0,0.0,0.0,0.0,0.0,0.0,0.0,0.0,0.0,0.0,0.0,0.0,0.0,0.0,0.0,0.0,0.0,0.0,0.0,0.0,0.0,0.0,0.0,0.0,0.0,0.0,0.0,0.0,0.0,0.0,0.0,0.0,0.0,0.0,0.0,0.0,0.0,0.0,0.0,0.0,0.0,0.0,0.0,0.0,0.0,0.0,0.0,0.0,0.0,0.0,0.0,0.0,0.0,0.0,0.0,0.0,0.0,0.0,0.0,0.0,0.0,0.0,0.0,0.0,0.0,0.0,0.0,0.0,0.0,0.0,0.0,0.0,0.0,0.0,0.0,0.0,0.0,0.0,0.0,0.0,0.0,0.0,0.0,0.0,0.0,0.0,0.0,0.0,0.0,0.0,0.0,0.0,0.0,0.0,0.0,0.0,0.0,0.0,0.0,0.0,0.0,0.0,0.0,0.0,0.0,0.0,0.0,0.0,5.5646,5.3859,0.0,0.0,0.0,0.0,0.0,0.0,0.0,0.0,0.0,0.0,0.0,0.0,0.0,0.0,0.0,0.0,0.0,0.0,0.0,0.0,0.0,0.0,0.0,0.0,0.0,0.0,0.0,0.0,0.0,0.0,0.0,0.0,0.0,0.0,0.0,0.0,0.0,0.0,0.0,0.0,0.0,0.0,0.0,0.0,0.0,0.0,0.0,0.0,0.0,0.0,0.0,0.0,0.0,0.0,0.0,0.0,0.0,0.0,0.0,0.0,0.0,0.0,0.0,0.0,0.0,0.0,0.0,0.0,0.0,0.0,0.0,0.0,0.0,0.0,0.0,0.0,0.0,0.0,0.0,0.0,0.0,0.0,0.0,0.0,0.0,0.0,0.0,0.0,0.0,0.0,0.0,0.0,0.0,0.0,0.0,0.0,0.0,0.0,0.0,0.0,0.0,0.0,0.0,0.0,0.0,0.0,0.0,0.0,0.0,0.0,0.0,0.0,0.0,0.0,6.0033,5.7781,0.0,0.0,0.0,0.0,0.0,0.0,0.0,0.0,0.0,0.0,0.0,0.0,0.0,0.0,0.0,0.0,0.0,0.0,0.0,0.0,0.0,0.0,0.0,0.0,0.0,0.0,0.0,0.0,0.0,0.0,0.0,0.0,0.0,0.0,0.0,0.0,0.0,0.0,0.0,0.0,0.0,0.0,0.0,0.0,0.0,0.0,0.0,0.0,0.0,0.0,0.0,0.0,0.0,0.0,0.0,0.0,0.0,0.0,0.0,0.0,0.0,0.0,0.0,0.0,0.0,0.0,0.0,0.0,0.0,0.0,0.0,0.0,0.0,0.0,0.0,0.0,0.0,0.0,0.0,0.0,0.0,0.0,0.0,0.0,0.0,0.0,0.0,0.0,0.0,0.0,0.0,0.0,0.0,0.0,0.0,0.0,0.0,0.0,0.0,0.0,0.0,0.0,0.0,0.0,0.0,0.0,0.0,0.0,6.7636,6.8677,6.875,6.7872,6.8042,6.8793,6.561,6.3245,6.1575,6.0646,0.0,0.0,0.0,0.0,0.0,0.0,0.0,0.0,0.0,0.0,0.0,0.0,0.0,0.0,0.0,0.0,0.0,0.0,0.0,0.0,0.0,0.0,0.0,0.0,0.0,0.0,0.0,0.0,0.0,0.0,0.0,0.0,0.0,0.0,0.0,0.0,0.0,0.0,0.0,0.0,0.0,0.0,0.0,0.0,0.0,0.0,0.0,0.0,0.0,0.0,0.0,0.0,0.0,0.0,0.0,0.0,0.0,0.0,0.0,0.0,0.0,0.0,0.0,0.0,0.0,0.0,0.0,0.0,0.0,0.0,0.0,0.0,0.0,0.0,0.0,0.0,0.0,0.0,0.0,0.0,0.0,0.0,0.0,0.0,0.0,0.0,5.7246,5.7338,0.0,0.0,0.0,0.0,0.0,0.0,0.0,0.0,0.0,0.0,0.0,0.0,0.0,6.4657,6.6802,6.986,7.0372,6.8412,7.3486,7.4505,7.194,7.3164,7.342,7.2922,7.2395,0.0,6.4122,6.2558,0.0,0.0,0.0,0.0,0.0,0.0,0.0,0.0,0.0,0.0,0.0,0.0,0.0,0.0,0.0,0.0,0.0,0.0,0.0,0.0,0.0,0.0,0.0,0.0,0.0,0.0,0.0,0.0,0.0,0.0,0.0,0.0,0.0,0.0,0.0,0.0,0.0,0.0,0.0,0.0,0.0,0.0,0.0,0.0,0.0,0.0,0.0,0.0,0.0,0.0,0.0,0.0,0.0,0.0,0.0,0.0,0.0,0.0,0.0,0.0,0.0,0.0,0.0,0.0,0.0,0.0,0.0,0.0,0.0,0.0,0.0,0.0,0.0,0.0,0.0,0.0,0.0,0.0,0.0,0.0,0.0,0.0,0.0,0.0,0.0,5.7298,5.8455,5.7114,5.8403,5.8823,0.0,0.0,0.0,0.0,0.0,0.0,0.0,0.0,0.0,6.6345,6.7615,6.9189,7.1027,7.3817,7.4918,7.4404,7.7304,7.8185,7.7304,7.7524,7.7708,7.7745,7.6864,7.4677,7.1556,6.8582,6.5892,6.3539,0.0,0.0,0.0,0.0,6.2277,6.2023,0.0,0.0,0.0,0.0,0.0,0.0,0.0,0.0,0.0,0.0,0.0,0.0,0.0,0.0,0.0,0.0,0.0,0.0,0.0,0.0,0.0,0.0,0.0,0.0,0.0,0.0,0.0,0.0,0.0,0.0,0.0,0.0,0.0,0.0,0.0,0.0,0.0,0.0,0.0,0.0,0.0,0.0,0.0,0.0,0.0,0.0,0.0,0.0,0.0,0.0,0.0,0.0,0.0,0.0,0.0,0.0,0.0,0.0,0.0,0.0,0.0,0.0,0.0,0.0,0.0,0.0,0.0,0.0,0.0,0.0,0.0,0.0,0.0,0.0,0.0,0.0,0.0,5.8609,5.9837,5.7442,5.9761,6.0528,0.0,0.0,0.0,0.0,0.0,0.0,6.4971,6.71,6.8972,7.0403,7.1798,7.3413,7.5249,7.7268,7.8479,7.8919,7.991,8.0608,8.0975,8.0388,8.0314,8.0645,7.9653,7.8479,7.7017,7.3413,7.0146,6.7393,6.6953,6.5962,6.4861,6.6292,6.6439,6.6109,0.0,0.0,0.0,0.0,0.0,0.0,0.0,0.0,0.0,0.0,0.0,0.0,0.0,0.0,0.0,0.0,0.0,0.0,0.0,0.0,0.0,0.0,0.0,0.0,0.0,0.0,0.0,0.0,0.0,0.0,0.0,0.0,0.0,0.0,0.0,0.0,0.0,0.0,0.0,0.0,0.0,0.0,0.0,0.0,0.0,0.0,0.0,0.0,0.0,0.0,0.0,0.0,0.0,0.0,0.0,0.0,0.0,0.0,0.0,0.0,0.0,0.0,0.0,0.0,0.0,0.0,0.0,0.0,0.0,0.0,0.0,0.0,0.0,0.0,0.0,0.0,0.0,0.0,0.0,5.9724,6.3434,0.0,0.0,0.0,0.0,6.2645,6.4846,6.6633,6.7467,6.9082,7.1394,7.4515,7.5432,7.7011,7.947,8.0351,8.0461,7.9764,8.1305,8.1709,8.1012,8.0975,8.0534,7.9874,8.0571,7.9543,7.709,7.4625,7.2129,6.9779,6.8238,6.71,6.6476,6.732,6.7614,6.7687,0.0,0.0,0.0,0.0,0.0,0.0,0.0,0.0,0.0,0.0,0.0,0.0,0.0,0.0,0.0,0.0,0.0,0.0,0.0,0.0,0.0,0.0,0.0,0.0,0.0,0.0,0.0,0.0,0.0,0.0,0.0,0.0,0.0,0.0,0.0,0.0,0.0,0.0,0.0,0.0,0.0,0.0,0.0,0.0,0.0,0.0,0.0,0.0,0.0,0.0,0.0,0.0,0.0,0.0,0.0,0.0,0.0,0.0,0.0,0.0,0.0,0.0,0.0,0.0,0.0,0.0,0.0,0.0,0.0,0.0,0.0,0.0,0.0,0.0,0.0,0.0,0.0,0.0,0.0,6.3367,6.6113,0.0,6.4971,6.5301,6.5962,6.6659,6.8495,7.0403,7.2239,7.3854,7.5542,7.7231,7.8552,7.969,8.0571,8.1379,8.1636,8.1342,8.1929,8.2039,8.1782,8.1782,8.1342,8.0571,8.0314,7.9433,7.8038,7.6607,7.4918,7.323,7.3707,7.2753,7.1211,7.2055,7.2018,7.1578,0.0,0.0,0.0,0.0,0.0,0.0,0.0,0.0,0.0,0.0,0.0,0.0,0.0,0.0,0.0,0.0,0.0,0.0,0.0,0.0,0.0,0.0,0.0,0.0,0.0,0.0,0.0,0.0,0.0,0.0,0.0,0.0,0.0,0.0,0.0,0.0,0.0,0.0,0.0,0.0,0.0,0.0,5.424,0.0,0.0,0.0,0.0,0.0,0.0,0.0,0.0,0.0,0.0,0.0,0.0,0.0,0.0,0.0,0.0,0.0,0.0,0.0,0.0,0.0,0.0,0.0,0.0,0.0,0.0,0.0,0.0,0.0,0.0,0.0,0.0,0.0,0.0,6.3628,6.5999,6.5742,6.8568,6.9669,6.7504,6.8531,6.9669,7.0477,7.2532,7.4331,7.5622,7.7011,7.8148,7.8993,8.0021,8.0865,8.1415,8.1929,8.2186,8.2186,8.1929,8.1782,8.1782,8.1782,8.1195,8.0204,8.0204,7.9433,7.8185,7.8442,7.7268,7.5395,7.6173,7.5506,7.4147,7.4404,7.4147,7.367,0.0,0.0,0.0,0.0,0.0,0.0,0.0,0.0,0.0,0.0,0.0,0.0,0.0,0.0,0.0,0.0,0.0,0.0,0.0,0.0,0.0,0.0,0.0,0.0,0.0,0.0,0.0,0.0,0.0,0.0,0.0,0.0,0.0,0.0,0.0,0.0,0.0,0.0,0.0,0.0,0.0,0.0,5.8528,0.0,0.0,0.0,0.0,0.0,0.0,0.0,0.0,0.0,0.0,0.0,0.0,0.0,0.0,0.0,0.0,0.0,0.0,0.0,0.0,0.0,0.0,0.0,0.0,0.0,0.0,0.0,0.0,0.0,0.0,0.0,0.0,0.0,6.1704,6.5191,6.7504,6.6806,7.0881,7.2532,6.9412,7.2642,7.4661,7.3891,7.679,7.8259,7.7457,7.8222,7.9029,7.98,7.9837,8.0608,8.2186,8.2186,8.2186,8.2186,8.1415,8.1048,8.1048,8.1012,8.0167,7.8772,8.0277,7.958,7.753,7.9947,7.9066,7.6093,7.5322,7.4992,7.4808,7.4001,7.367,7.356,0.0,0.0,0.0,0.0,0.0,0.0,0.0,0.0,0.0,0.0,0.0,0.0,0.0,0.0,0.0,0.0,0.0,0.0,0.0,0.0,0.0,0.0,0.0,0.0,0.0,0.0,0.0,0.0,0.0,0.0,0.0,0.0,0.0,0.0,0.0,0.0,0.0,0.0,0.0,0.0,0.0,0.0,5.9578,0.0,0.0,0.0,0.0,0.0,0.0,0.0,0.0,0.0,0.0,0.0,0.0,0.0,0.0,0.0,0.0,0.0,0.0,0.0,0.0,0.0,0.0,0.0,0.0,0.0,0.0,0.0,0.0,0.0,0.0,0.0,6.1459,6.3613,6.42,6.7247,7.0,7.1541,7.3413,7.4441,7.4147,7.5139,7.6166,7.7194,7.8075,7.8993,7.9947,8.0204,8.0461,8.0645,8.1232,8.1746,8.2186,8.2186,8.2186,8.2186,8.1966,8.1856,8.1856,8.1269,8.0755,8.0314,7.958,7.9213,7.9103,7.9213,7.8736,7.7892,7.7671,7.6497,7.4808,7.4001,7.334,7.2789,0.0,0.0,0.0,0.0,0.0,0.0,0.0,0.0,0.0,0.0,0.0,0.0,0.0,0.0,0.0,0.0,0.0,0.0,0.0,0.0,0.0,0.0,0.0,0.0,0.0,0.0,0.0,0.0,0.0,0.0,0.0,0.0,0.0,0.0,0.0,0.0,0.0,0.0,0.0,0.0,0.0,0.0,6.3775,6.1501,6.0601,6.0319,5.9116,5.8771,5.8697,5.6679,0.0,0.0,0.0,0.0,0.0,0.0,0.0,0.0,0.0,0.0,0.0,0.0,0.0,0.0,0.0,0.0,0.0,0.0,0.0,0.0,0.0,0.0,0.0,0.0,6.3686,6.5999,6.7136,6.9486,7.1872,7.3964,7.5212,7.624,7.7084,7.7451,7.8185,7.9507,7.9617,8.0021,8.0938,8.0681,8.0498,8.0498,8.0938,8.1195,8.1195,8.1525,8.1525,8.1195,8.1195,8.1012,8.0681,8.0204,7.98,7.9433,7.8846,7.8662,7.8736,7.8626,7.8185,7.7561,0.0,0.0,0.0,0.0,7.2899,7.2496,0.0,0.0,0.0,0.0,0.0,0.0,0.0,0.0,0.0,0.0,0.0,0.0,0.0,0.0,0.0,0.0,0.0,0.0,0.0,0.0,0.0,0.0,0.0,0.0,0.0,0.0,0.0,0.0,0.0,0.0,0.0,0.0,0.0,0.0,0.0,0.0,0.0,0.0,0.0,0.0,0.0,0.0,6.8964,6.5701,6.487,6.5057,6.3063,6.1536,6.0389,5.9599,0.0,0.0,0.0,0.0,0.0,0.0,0.0,0.0,0.0,0.0,0.0,0.0,0.0,0.0,0.0,0.0,0.0,0.0,0.0,0.0,0.0,0.0,0.0,0.0,6.6397,6.8603,7.022,7.1745,7.3156,7.4588,7.6246,7.7598,7.8259,7.9029,7.9837,8.0681,8.0718,8.0718,8.0718,8.0131,0.0,0.0,0.0,7.98,7.98,8.0498,8.0498,7.98,7.98,7.9433,7.8736,7.8736,7.8332,7.7604,7.8405,7.8295,7.764,7.8405,7.7671,7.6093,7.5909,7.5359,7.4478,7.3046,7.2496,7.2496,0.0,0.0,0.0,0.0,0.0,0.0,0.0,0.0,0.0,0.0,0.0,0.0,0.0,0.0,0.0,0.0,0.0,0.0,0.0,0.0,0.0,0.0,0.0,0.0,0.0,0.0,0.0,0.0,0.0,0.0,0.0,0.0,0.0,0.0,0.0,0.0,0.0,0.0,0.0,0.0,0.0,0.0,6.8645,6.7467,6.6721,6.6228,6.5361,6.5226,6.5133,6.3239,6.2722,6.2637,6.1171,0.0,0.0,0.0,0.0,0.0,0.0,0.0,0.0,0.0,0.0,0.0,0.0,0.0,0.0,0.0,0.0,0.0,0.0,0.0,0.0,6.544,6.8198,7.0757,7.2451,7.313,7.356,7.3891,7.5946,7.7121,7.6644,7.7304,7.8148,7.8993,7.9066,7.9066,7.9066,7.9507,7.9507,7.8846,7.9433,7.98,7.98,7.9947,7.9947,7.98,7.98,0.0,7.9543,7.9543,7.947,7.9323,7.947,7.947,7.9323,7.9507,7.8185,7.5983,7.4661,7.367,7.2936,7.2606,7.2496,7.2496,0.0,0.0,0.0,0.0,0.0,0.0,0.0,0.0,0.0,0.0,0.0,0.0,0.0,0.0,0.0,0.0,0.0,0.0,0.0,0.0,0.0,0.0,0.0,0.0,0.0,0.0,0.0,0.0,0.0,0.0,0.0,0.0,0.0,0.0,0.0,0.0,0.0,0.0,0.0,0.0,0.0,0.0,6.9173,6.9859,6.962,6.897,6.8674,6.8088,6.7264,6.6181,6.5439,6.467,6.3194,6.1873,6.0421,0.0,0.0,0.0,0.0,0.0,0.0,0.0,0.0,0.0,0.0,0.0,0.0,0.0,0.0,6.1475,0.0,0.0,6.6343,6.8118,7.0091,7.1875,7.3101,7.3518,7.3934,7.4616,7.5897,7.6717,7.6717,7.7451,7.8148,7.8552,7.8589,7.8589,7.8589,7.8993,7.9029,7.8589,7.8993,7.8993,7.8552,7.8993,7.8993,7.8552,7.8993,7.9176,7.9176,7.9176,7.9176,7.9176,7.9176,7.8956,7.8552,7.8552,7.7598,7.6019,7.5212,7.3927,7.2496,7.2496,7.2496,7.2569,0.0,0.0,0.0,0.0,0.0,0.0,0.0,0.0,0.0,0.0,0.0,0.0,0.0,0.0,0.0,0.0,0.0,0.0,0.0,0.0,0.0,0.0,0.0,0.0,0.0,0.0,0.0,0.0,0.0,0.0,0.0,0.0,0.0,0.0,0.0,0.0,0.0,0.0,0.0,0.0,0.0,0.0,6.9514,7.1121,7.1447,7.1076,7.0961,6.9426,6.7545,6.7896,6.6854,6.5273,6.4507,6.404,6.304,5.9346,5.9446,0.0,0.0,0.0,0.0,0.0,0.0,0.0,0.0,0.0,6.0841,6.2064,6.2646,6.3651,6.5913,6.7057,6.8403,7.0648,7.1701,7.2555,7.341,7.3628,7.4122,7.5352,7.5814,7.635,7.698,7.7855,7.8369,7.8369,7.8369,7.8369,7.8369,7.8369,7.8369,7.8369,7.8369,7.8002,7.731,7.8002,7.8002,7.731,7.8185,7.8516,7.8369,7.8662,7.8662,7.8369,7.8369,7.8075,7.7561,7.7347,7.6827,7.6093,7.5946,7.4698,7.2973,7.2789,7.2716,7.2789,0.0,0.0,0.0,0.0,0.0,0.0,0.0,0.0,0.0,0.0,0.0,0.0,0.0,0.0,0.0,0.0,0.0,0.0,0.0,0.0,0.0,0.0,0.0,0.0,0.0,0.0,0.0,0.0,0.0,0.0,0.0,0.0,0.0,0.0,0.0,0.0,0.0,0.0,0.0,0.0,0.0,0.0,6.8471,6.8836,6.9407,6.9973,6.9392,6.7634,6.5823,6.7241,6.6179,6.4605,6.6609,6.6243,6.4569,6.1897,0.0,5.8981,5.7115,5.6786,5.7321,5.865,5.8231,5.8651,0.0,0.0,6.3406,6.605,6.6934,6.7605,6.898,7.0252,7.1231,7.1776,7.2592,7.3447,7.4253,7.396,7.3901,7.4572,7.5482,7.613,7.624,7.6974,7.742,7.742,7.742,7.742,7.742,7.742,7.742,7.742,7.742,7.7384,7.7273,7.7384,7.7384,7.731,7.8185,7.8185,7.7494,7.8993,7.8846,7.742,7.742,7.7855,7.8405,7.7604,7.6827,7.6019,7.5322,7.4882,7.4551,7.3817,7.356,7.3487,0.0,0.0,0.0,0.0,0.0,0.0,0.0,0.0,0.0,0.0,0.0,0.0,0.0,0.0,0.0,0.0,0.0,0.0,0.0,0.0,0.0,0.0,0.0,0.0,0.0,0.0,0.0,0.0,0.0,0.0,0.0,0.0,0.0,0.0,0.0,0.0,0.0,0.0,0.0,0.0,0.0,0.0,6.5523,6.5652,6.5113,6.4632,6.7081,6.6435,0.0,0.0,6.4919,6.3613,6.5118,6.4787,6.3392,6.0933,6.0382,0.0,5.8917,5.8363,5.841,0.0,6.0277,6.1713,6.4762,6.4914,6.5266,6.8402,6.8767,6.9134,7.1089,7.1868,7.2496,0.0,7.3372,7.3558,7.4402,7.3628,7.3202,7.3729,7.4338,7.4882,7.5359,7.654,7.709,7.6644,7.7017,7.687,7.5983,7.6796,7.709,7.6644,7.7053,7.7053,7.6607,7.7053,7.7053,7.6607,7.7451,7.7928,7.8075,7.8772,7.8699,7.8002,7.7047,7.6827,7.7121,7.6754,7.6423,7.613,7.6276,7.6283,7.6026,7.3817,7.3303,7.3634,0.0,0.0,0.0,0.0,0.0,0.0,0.0,0.0,0.0,0.0,0.0,0.0,0.0,0.0,0.0,0.0,0.0,0.0,0.0,0.0,0.0,0.0,0.0,0.0,0.0,0.0,0.0,0.0,0.0,0.0,0.0,0.0,0.0,0.0,0.0,0.0,0.0,0.0,0.0,0.0,0.0,0.0,6.3135,6.285,6.1571,6.0361,6.3863,6.3575,0.0,0.0,6.1883,6.1251,6.2144,6.2291,6.1777,5.9771,5.9722,6.0087,5.9228,0.0,0.0,6.0115,6.2079,6.433,6.6212,6.6515,6.7251,7.033,7.0458,7.0616,7.2525,7.2875,7.3118,7.3808,7.3468,7.3283,7.3875,7.3295,7.2814,7.2748,7.3332,7.3854,7.4221,7.5659,7.6497,7.613,7.6644,7.6356,7.4992,7.643,7.6907,7.613,7.668,7.6717,7.6093,7.668,7.668,7.6093,7.7157,7.7855,7.8259,7.8259,7.8259,7.8185,7.6974,7.6423,7.6423,7.6423,7.6423,7.646,7.6827,7.709,7.6943,7.3964,7.334,7.3964,0.0,0.0,0.0,0.0,0.0,0.0,0.0,0.0,0.0,0.0,0.0,0.0,0.0,0.0,0.0,0.0,0.0,0.0,0.0,0.0,0.0,0.0,0.0,0.0,0.0,0.0,0.0,0.0,0.0,0.0,0.0,0.0,0.0,0.0,0.0,0.0,0.0,0.0,0.0,0.0,0.0,0.0,6.2258,6.0773,5.9689,5.8994,5.9496,0.0,0.0,0.0,5.6394,5.6942,5.79,5.9245,0.0,5.9441,5.812,0.0,0.0,0.0,5.9575,6.1141,6.3144,6.5287,6.7763,6.8622,6.961,7.2087,7.2612,7.2735,7.3204,7.3287,7.3104,7.2647,7.2561,7.2524,7.2561,7.3193,7.3083,7.1541,7.2753,7.3377,7.2642,7.4037,7.5285,7.6056,7.613,7.5763,7.4955,7.643,7.6907,7.613,7.613,7.613,7.6093,7.613,7.613,7.613,7.7781,7.8148,7.7347,7.7347,7.7347,7.7347,7.7273,7.7237,7.7237,7.7237,7.7237,7.7163,7.6423,7.6607,7.698,7.4551,7.4184,7.4661,0.0,0.0,0.0,0.0,0.0,0.0,0.0,0.0,0.0,0.0,0.0,0.0,0.0,0.0,0.0,0.0,0.0,0.0,0.0,0.0,0.0,0.0,0.0,0.0,0.0,0.0,0.0,0.0,0.0,0.0,0.0,0.0,0.0,0.0,0.0,0.0,0.0,0.0,0.0,0.0,0.0,0.0,5.9981,5.8449,5.6508,5.4546,0.0,0.0,0.0,0.0,0.0,0.0,5.4312,0.0,0.0,5.5941,0.0,0.0,0.0,0.0,6.1226,6.3134,6.4999,6.6982,6.9459,6.9668,6.9913,7.1839,7.071,6.9429,6.9579,6.959,6.9878,7.0762,7.1358,7.2092,7.3156,7.3083,7.2312,7.0697,7.1468,0.0,0.0,7.2863,7.4441,7.5249,7.5322,7.4955,7.4147,7.5139,7.5359,7.4515,7.5028,7.5065,7.4515,7.5579,7.5836,7.5322,7.6974,7.7304,7.6533,7.7053,7.698,7.6497,7.6497,7.6497,7.6497,7.6497,7.6497,7.6533,7.679,7.7053,7.7127,7.5799,7.5469,7.5395,0.0,0.0,0.0,0.0,0.0,0.0,0.0,0.0,0.0,0.0,0.0,0.0,0.0,0.0,0.0,0.0,0.0,0.0,0.0,0.0,0.0,0.0,0.0,0.0,0.0,0.0,0.0,0.0,0.0,0.0,0.0,0.0,0.0,0.0,0.0,0.0,0.0,0.0,0.0,0.0,0.0,0.0,5.7645,5.5852,5.3822,0.0,0.0,0.0,0.0,0.0,0.0,0.0,0.0,0.0,0.0,0.0,0.0,0.0,0.0,6.0816,6.2953,6.4808,6.6556,6.8308,7.0121,7.0158,7.0058,7.112,6.9389,6.7614,6.732,6.7026,6.7173,6.8238,6.8825,6.9816,7.1725,7.1284,7.0624,7.0146,7.055,7.066,0.0,0.0,7.3193,7.4001,7.4331,7.4111,7.3303,7.4331,7.4551,7.3707,7.4184,7.4221,7.3707,7.4735,7.5139,7.4918,7.624,7.6607,7.613,7.6907,7.7047,7.6533,7.624,7.6276,7.6533,7.624,7.6276,7.6607,7.709,7.7273,7.72,7.6387,7.6063,7.5709,0.0,0.0,0.0,0.0,0.0,0.0,0.0,0.0,0.0,0.0,0.0,0.0,0.0,0.0,0.0,0.0,0.0,0.0,0.0,0.0,0.0,0.0,0.0,0.0,0.0,0.0,0.0,0.0,0.0,0.0,0.0,0.0,0.0,0.0,0.0,0.0,0.0,0.0,0.0,0.0,0.0,0.0,5.5207,5.3044,0.0,0.0,0.0,0.0,0.0,0.0,0.0,0.0,0.0,0.0,0.0,0.0,0.0,5.8474,6.0089,6.2328,6.4604,6.6219,6.776,6.9119,6.9853,7.0036,7.0,6.9889,6.8568,6.7173,0.0,0.0,6.5118,6.5191,6.5375,6.6329,6.8715,6.8385,6.8495,0.0,0.0,0.0,0.0,0.0,0.0,7.2386,7.3193,7.3303,7.2532,7.3964,7.4441,7.367,7.3634,7.3634,7.3634,7.367,7.4111,7.4992,7.5726,7.6093,7.613,7.6907,7.7237,7.7127,7.6423,7.6533,7.7127,7.635,7.6497,7.7163,7.7163,7.72,7.7127,7.6356,7.6008,7.5665,0.0,0.0,0.0,0.0,0.0,0.0,0.0,0.0,0.0,0.0,0.0,0.0,0.0,0.0,0.0,0.0,0.0,0.0,0.0,0.0,0.0,0.0,0.0,0.0,0.0,0.0,0.0,0.0,0.0,0.0,0.0,0.0,0.0,0.0,0.0,0.0,0.0,0.0,0.0,0.0,0.0,0.0,5.2298,0.0,0.0,0.0,0.0,0.0,0.0,0.0,0.0,0.0,0.0,0.0,5.4656,0.0,0.0,6.0126,6.1777,6.4016,6.6256,6.7907,6.8605,6.8972,6.9155,6.9229,6.8715,6.688,6.5191,6.3429,0.0,0.0,0.0,6.3356,6.5999,0.0,7.0412,7.1027,0.0,7.1027,0.0,7.077,7.0146,7.0844,0.0,7.1615,7.2349,7.2716,7.2496,7.2899,7.301,7.2826,7.2826,7.2826,7.2826,7.3377,7.4404,7.5799,7.6019,7.6093,7.613,7.6907,7.665,7.5512,7.5946,7.5873,7.5506,7.5285,7.5322,7.5542,7.5542,7.5819,7.624,7.602,7.5854,7.5515,0.0,0.0,0.0,0.0,0.0,0.0,0.0,0.0,0.0,0.0,0.0,0.0,0.0,0.0,0.0,0.0,0.0,0.0,0.0,0.0,0.0,0.0,0.0,0.0,0.0,0.0,0.0,0.0,0.0,0.0,0.0,0.0,0.0,0.0,0.0,0.0,0.0,0.0,0.0,0.0,0.0,0.0,0.0,0.0,0.0,0.0,0.0,0.0,0.0,0.0,0.0,5.3731,5.4422,5.5721,5.7299,5.8547,0.0,6.2291,6.3576,6.5705,6.776,6.8678,6.9192,6.9155,6.8091,6.7523,6.6459,6.3697,6.1801,0.0,5.7973,5.8951,0.0,0.0,0.0,0.0,6.9339,6.9816,7.022,0.0,7.1293,0.0,7.066,7.1358,7.1835,7.1835,7.2239,7.2496,7.2496,7.2496,7.2496,7.2496,7.2496,7.2496,7.2496,7.2936,7.378,7.5065,7.5395,7.5763,7.613,7.657,7.6276,7.5432,7.5175,7.4962,7.4792,7.4485,7.4558,7.4792,7.4485,7.4792,7.5336,7.497,7.4889,7.4883,0.0,0.0,0.0,0.0,0.0,0.0,0.0,0.0,0.0,0.0,0.0,0.0,0.0,0.0,0.0,0.0,0.0,0.0,0.0,0.0,0.0,0.0,0.0,0.0,0.0,0.0,0.0,0.0,0.0,0.0,0.0,0.0,0.0,0.0,0.0,0.0,0.0,0.0,0.0,0.0,0.0,0.0,0.0,0.0,0.0,0.0,0.0,0.0,0.0,0.0,5.3882,5.6539,5.7784,5.9355,6.0896,6.1814,6.3099,6.4494,6.5521,6.732,6.8972,6.9192,6.9596,6.9302,6.688,6.5553,6.3852,6.0554,0.0,5.7175,5.5676,5.6726,5.79,5.823,0.0,6.3172,6.7283,6.7357,6.8054,7.0991,7.1366,7.1468,7.1468,7.2092,7.2496,7.2496,7.2496,7.2496,7.2496,7.2496,7.2496,7.2496,7.2577,7.2577,7.2496,7.2606,7.301,7.3707,7.4404,7.5212,7.6093,7.5983,7.5946,7.5842,7.4331,7.3949,7.4312,7.3729,7.3846,7.4275,7.3699,7.3889,7.4397,7.3702,7.3671,7.3893,0.0,0.0,0.0,0.0,0.0,0.0,0.0,0.0,0.0,0.0,0.0,0.0,0.0,0.0,0.0,0.0,0.0,0.0,0.0,0.0,0.0,0.0,0.0,0.0,0.0,0.0,0.0,0.0,0.0,0.0,0.0,0.0,0.0,0.0,0.0,0.0,0.0,0.0,0.0,0.0,0.0,0.0,0.0,0.0,0.0,0.0,0.0,0.0,0.0,0.0,5.6993,5.8663,5.8904,6.0542,6.2695,6.4237,6.4861,6.5558,6.7724,6.8568,6.9229,7.055,7.0,6.8495,6.6072,6.427,0.0,0.0,5.6922,5.6171,5.4551,5.5665,5.7491,5.9505,6.1373,6.4016,6.8128,6.9155,6.9926,0.0,7.1908,7.2312,7.2312,7.2422,0.0,7.2496,7.2496,7.2496,7.2496,7.2496,7.2496,7.2496,7.3039,7.3047,7.2532,7.3156,7.356,7.3707,7.3817,7.4661,7.6093,7.5432,7.5049,7.4921,7.4052,7.323,7.2449,7.2489,7.2526,7.2449,7.2333,7.2717,7.326,7.3115,7.3026,7.2939,0.0,0.0,0.0,0.0,0.0,0.0,0.0,0.0,0.0,0.0,0.0,0.0,0.0,0.0,0.0,0.0,0.0,0.0,0.0,0.0,0.0,0.0,0.0,0.0,0.0,0.0,0.0,0.0,0.0,0.0,0.0,0.0,0.0,0.0,0.0,0.0,0.0,0.0,0.0,0.0,0.0,0.0,0.0,0.0,0.0,0.0,0.0,0.0,0.0,0.0,5.6313,5.8917,6.0857,6.287,6.4672,6.5596,6.6372,6.7204,6.851,6.9354,7.0075,7.0843,6.949,6.7287,6.4443,0.0,0.0,0.0,5.452,5.4087,5.2951,5.4523,0.0,5.7517,5.9516,6.234,6.6476,6.7357,0.0,7.0999,7.1651,7.2055,0.0,7.2129,7.1843,7.1757,7.1757,7.194,7.238,7.2292,7.2226,7.2226,7.2665,7.2914,7.3039,7.3054,7.3458,7.4212,7.3809,7.4372,7.5812,7.4568,7.4214,7.4482,7.333,7.2473,7.1903,7.2084,7.2054,7.1866,7.152,7.1788,7.2325,7.1925,7.1874,7.2074,0.0,0.0,0.0,0.0,0.0,0.0,0.0,0.0,0.0,0.0,0.0,0.0,0.0,0.0,0.0,0.0,0.0,0.0,0.0,0.0,0.0,0.0,0.0,0.0,0.0,0.0,0.0,0.0,0.0,0.0,0.0,0.0,0.0,0.0,0.0,0.0,0.0,0.0,0.0,0.0,0.0,0.0,0.0,0.0,0.0,0.0,0.0,0.0,0.0,0.0,5.4275,5.7137,6.0738,6.3411,6.5355,6.5741,6.6858,6.8116,6.9001,7.0012,7.0857,7.1003,6.8997,6.6189,6.3308,5.9841,0.0,0.0,5.2781,5.2409,5.1879,5.3448,5.5035,0.0,5.7248,5.9883,6.4317,6.494,6.6323,0.0,7.0787,0.0,7.1945,7.1431,7.1007,7.0828,7.0778,7.1151,7.2197,7.1902,7.1775,7.1988,7.2297,7.2685,7.3154,7.2834,7.3157,7.4135,7.3483,7.3751,7.4796,7.3519,7.316,7.353,7.2462,7.1824,7.1531,7.183,7.1872,7.1713,7.1181,7.1296,7.1646,7.1028,7.1112,7.1494,0.0,0.0,0.0,0.0,0.0,0.0,0.0,0.0,0.0,0.0,0.0,0.0,0.0,0.0,0.0,0.0,0.0,0.0,0.0,0.0,0.0,0.0,0.0,0.0,0.0,0.0,0.0,0.0,0.0,0.0,0.0,0.0,0.0,0.0,0.0,0.0,0.0,0.0,0.0,0.0,0.0,0.0,0.0,0.0,0.0,0.0,0.0,0.0,0.0,0.0,0.0,5.2271,5.5296,5.9309,6.3077,6.3964,0.0,0.0,6.9847,7.0718,7.0967,7.1696,6.8961,6.5642,6.3892,0.0,0.0,5.4104,5.3044,5.2503,5.2454,5.2654,5.3836,0.0,0.0,5.7521,6.3069,6.3836,6.4838,6.7534,0.0,0.0,7.0293,7.0257,7.0164,7.0023,6.9734,7.0264,7.1945,7.1211,7.1108,7.1951,7.2595,7.2667,7.2127,7.2784,7.282,7.2237,7.2164,7.22,7.2316,7.217,7.1709,7.0975,7.1672,7.1436,0.0,7.1459,7.1687,7.1526,7.1453,7.149,7.1526,7.1453,7.1458,7.1494,0.0,0.0,0.0,0.0,0.0,0.0,0.0,0.0,0.0,0.0,0.0,0.0,0.0,0.0,0.0,0.0,0.0,0.0,0.0,0.0,0.0,0.0,0.0,0.0,0.0,0.0,0.0,0.0,0.0,0.0,0.0,0.0,0.0,0.0,0.0,0.0,0.0,0.0,0.0,0.0,0.0,0.0,0.0,0.0,0.0,0.0,0.0,0.0,0.0,0.0,0.0,0.0,5.1468,5.4091,0.0,0.0,6.2772,6.509,6.7332,6.8885,6.9907,7.0229,6.6692,6.2908,6.2271,0.0,5.3972,5.33,5.2798,5.248,5.248,5.2559,5.3172,0.0,0.0,0.0,5.9443,5.9613,6.0952,6.5423,6.6482,0.0,0.0,6.938,6.9031,6.8895,6.8225,6.8536,7.0223,6.9945,6.9945,7.0296,7.1126,7.166,7.1866,7.2286,7.2541,7.2595,7.2091,7.1842,7.1682,7.1241,7.0847,7.0495,7.0883,7.0526,0.0,7.0609,7.0905,7.0842,7.0842,7.1096,7.1494,7.1494,7.1494,7.1494,0.0,0.0,0.0,0.0,0.0,0.0,0.0,0.0,0.0,0.0,0.0,0.0,0.0,0.0,0.0,0.0,0.0,0.0,0.0,0.0,0.0,0.0,0.0,0.0,0.0,0.0,0.0,0.0,0.0,0.0,0.0,0.0,0.0,0.0,0.0,0.0,0.0,0.0,0.0,0.0,0.0,0.0,0.0,0.0,0.0,0.0,0.0,0.0,0.0,0.0,0.0,0.0,0.0,0.0,0.0,0.0,5.9932,6.2959,6.4809,6.6912,6.864,6.9096,6.4986,6.0876,0.0,0.0,5.251,5.2484,5.2348,5.2233,5.2233,5.2421,5.2835,0.0,0.0,5.375,5.6697,5.6648,5.7984,6.2516,0.0,6.4813,6.7575,6.7948,6.7934,6.7855,6.72,6.7293,6.8416,6.8488,6.8706,6.9207,6.9842,7.0447,7.1059,7.1114,7.1405,7.1863,7.1319,7.0858,7.048,7.0154,6.9787,6.9358,6.9859,6.975,0.0,6.9823,7.0299,7.0698,7.048,7.0842,7.1494,7.1494,7.1494,7.1494,0.0,0.0,0.0,0.0,0.0,0.0,0.0,0.0,0.0,0.0,0.0,0.0,0.0,0.0,0.0,0.0,0.0,0.0,0.0,0.0,0.0,0.0,0.0,0.0,0.0,0.0,0.0,0.0,0.0,0.0,0.0,0.0,0.0,0.0,0.0,0.0,0.0,0.0,0.0,0.0,0.0,0.0,0.0,0.0,0.0,0.0,0.0,0.0,0.0,0.0,0.0,0.0,0.0,0.0,0.0,0.0,5.6692,6.0739,6.292,6.5232,6.7376,6.885,6.4565,6.0206,0.0,0.0,5.1911,5.1911,5.174,5.1601,5.1601,5.2114,5.277,5.3566,0.0,0.0,5.5692,5.6018,5.6683,0.0,6.0103,6.1756,6.3564,6.5722,6.7019,6.7019,6.6874,6.6822,6.6822,6.6822,6.7547,6.9171,6.9207,6.9243,6.9243,6.9243,6.9243,6.9243,6.9243,6.8814,6.8054,6.885,6.8343,6.6931,6.8525,6.9207,0.0,6.9207,7.0118,7.1422,7.0661,7.0842,7.1494,7.1494,7.1494,7.1494,0.0,0.0,0.0,0.0,0.0,0.0,0.0,0.0,0.0,0.0,0.0,0.0,0.0,0.0,0.0,0.0,0.0,0.0,0.0,0.0,0.0,0.0,0.0,0.0,0.0,0.0,0.0,0.0,0.0,0.0,0.0,0.0,0.0,0.0,0.0,0.0,0.0,0.0,0.0,0.0,0.0,0.0,0.0,0.0,0.0,0.0,0.0,0.0,0.0,0.0,0.0,0.0,0.0,0.0,0.0,0.0,0.0,0.0,5.7706,5.9421,6.0897,6.1378,5.8495,5.5752,5.6507,0.0,5.0673,5.1165,5.1122,5.1131,5.1525,5.1761,5.2473,5.4243,5.3856,0.0,0.0,0.0,0.0,5.9077,6.2667,6.517,6.5771,6.6439,6.6845,6.6845,6.6815,6.6786,6.6786,6.6279,6.646,6.751,6.809,6.838,6.838,6.8923,6.9207,6.9207,6.9207,6.8778,6.8017,6.8271,6.78,6.6858,6.7909,6.8054,6.7583,6.8162,6.8669,6.914,6.9466,7.0077,7.0806,7.1313,7.1494,7.1494,0.0,0.0,0.0,0.0,0.0,0.0,0.0,0.0,0.0,0.0,0.0,0.0,0.0,0.0,0.0,0.0,0.0,0.0,0.0,0.0,0.0,0.0,0.0,0.0,0.0,0.0,0.0,0.0,0.0,0.0,0.0,0.0,0.0,0.0,0.0,0.0,0.0,0.0,0.0,0.0,0.0,0.0,4.6879,0.0,0.0,0.0,0.0,0.0,0.0,0.0,0.0,0.0,0.0,0.0,0.0,0.0,0.0,0.0,0.0,5.5953,5.7205,5.7746,5.5446,0.0,0.0,0.0,4.9692,5.0142,5.0328,5.0515,5.0867,5.1322,5.2058,5.3446,5.3448,5.353,0.0,0.0,5.6573,5.9289,6.2802,6.5229,6.5844,6.646,6.6677,6.6388,6.6351,6.6207,6.5917,6.541,6.5374,6.5881,6.6677,6.7257,6.7547,6.8054,6.8271,6.8271,6.8271,6.8017,6.7547,6.7547,6.7138,6.6457,6.721,6.7252,0.0,6.7348,6.7909,6.8452,6.8669,6.9213,7.004,7.0806,7.106,7.1132,0.0,0.0,0.0,0.0,0.0,0.0,0.0,0.0,0.0,0.0,0.0,0.0,0.0,0.0,0.0,0.0,0.0,0.0,0.0,0.0,0.0,0.0,0.0,0.0,0.0,0.0,0.0,0.0,0.0,0.0,0.0,0.0,0.0,0.0,0.0,0.0,0.0,0.0,0.0,0.0,0.0,0.0,0.0,0.0,0.0,0.0,0.0,0.0,0.0,0.0,0.0,0.0,0.0,0.0,0.0,0.0,0.0,0.0,0.0,0.0,0.0,0.0,0.0,0.0,0.0,0.0,0.0,4.9018,4.9436,4.9878,4.9942,5.0822,5.1586,5.1719,5.2258,5.2915,5.3675,5.4689,5.6428,5.9434,6.1317,6.2875,6.4178,6.5772,6.6388,6.5591,6.5518,6.5192,6.4432,6.4359,6.4323,6.4396,6.5084,6.5808,6.6641,6.6677,6.6714,6.6714,6.6786,6.6757,6.6727,6.6727,6.633,6.5665,6.6361,6.6665,6.6731,6.6649,6.7535,6.8801,6.818,6.8361,6.9054,6.9911,7.0273,7.0418,0.0,0.0,0.0,0.0,0.0,0.0,0.0,0.0,0.0,0.0,0.0,0.0,0.0,0.0,0.0,0.0,0.0,0.0,0.0,0.0,0.0,0.0,0.0,0.0,0.0,0.0,0.0,0.0,0.0,0.0,0.0,0.0,0.0,0.0,0.0,0.0,0.0,0.0,0.0,0.0,0.0,0.0,0.0,0.0,0.0,0.0,4.6786,4.6921,0.0,0.0,0.0,0.0,0.0,0.0,0.0,0.0,0.0,0.0,0.0,0.0,0.0,0.0,0.0,0.0,0.0,0.0,0.0,0.0,0.0,4.9521,5.0548,5.0816,5.1467,5.3067,5.3889,5.4399,5.4581,5.7406,5.9941,6.1254,6.3961,6.512,6.3599,6.4939,6.5555,6.4722,6.4685,6.4577,6.4396,6.3816,6.3744,6.4359,6.3997,6.4142,6.4939,6.5555,6.5881,6.5881,6.6496,6.6482,6.5949,6.5949,6.5568,6.4873,6.5041,6.5114,6.512,6.5112,6.532,6.5776,6.676,6.6916,6.6766,6.8151,6.9027,6.9499,0.0,0.0,0.0,0.0,0.0,0.0,0.0,0.0,0.0,0.0,0.0,0.0,0.0,0.0,0.0,0.0,0.0,0.0,0.0,0.0,0.0,0.0,0.0,0.0,0.0,0.0,0.0,0.0,0.0,0.0,0.0,0.0,0.0,0.0,0.0,0.0,0.0,0.0,0.0,0.0,0.0,0.0,0.0,0.0,0.0,0.0,4.5799,4.6007,0.0,4.6684,4.7293,4.8007,0.0,0.0,0.0,0.0,4.983,0.0,0.0,0.0,0.0,0.0,0.0,0.0,0.0,0.0,0.0,0.0,0.0,4.9688,5.0679,5.1013,5.1492,5.2666,5.3698,5.4725,5.5812,5.7804,5.9977,6.2295,6.378,6.4541,6.4323,6.4758,6.4722,6.3889,6.3852,6.3671,6.3309,6.2911,6.2838,6.3309,6.2875,6.32,6.4396,6.483,6.5229,6.5591,6.5695,6.5541,6.5193,6.4838,6.4277,6.3589,6.3937,6.4113,6.4112,6.4463,6.4601,6.467,6.55,6.561,6.5407,6.6595,6.7544,6.8185,0.0,0.0,0.0,0.0,0.0,0.0,0.0,0.0,0.0,0.0,0.0,0.0,0.0,0.0,0.0,0.0,0.0,0.0,0.0,0.0,0.0,0.0,0.0,0.0,0.0,0.0,0.0,0.0,0.0,0.0,0.0,0.0,0.0,0.0,0.0,0.0,0.0,0.0,0.0,0.0,4.9323,0.0,0.0,0.0,0.0,0.0,0.0,0.0,0.0,4.6244,4.7022,4.7838,4.8612,0.0,0.0,0.0,0.0,0.0,0.0,0.0,0.0,0.0,0.0,0.0,0.0,0.0,0.0,0.0,0.0,0.0,0.0,5.1254,0.0,5.1897,5.323,5.5051,5.7406,5.7949,5.9325,6.2621,6.273,6.3237,6.4903,6.4541,6.3889,6.3056,6.3019,6.273,6.2014,6.1978,6.1978,6.1978,6.1978,6.2657,6.4033,6.4057,6.4332,6.4931,6.4429,6.4152,6.4056,6.3434,6.2753,6.2077,6.2823,0.0,6.3211,6.3971,6.4253,6.4288,6.4393,6.4358,6.4358,6.5163,6.5934,6.6705,0.0,0.0,0.0,0.0,0.0,0.0,0.0,0.0,0.0,0.0,0.0,0.0,0.0,0.0,0.0,0.0,0.0,0.0,0.0,0.0,0.0,0.0,0.0,0.0,0.0,0.0,0.0,0.0,0.0,0.0,0.0,0.0,0.0,0.0,0.0,0.0,0.0,0.0,0.0,0.0,0.0,0.0,0.0,0.0,0.0,0.0,0.0,0.0,0.0,4.4919,4.5838,4.709,4.7868,0.0,0.0,0.0,0.0,0.0,5.0879,5.2482,0.0,0.0,0.0,0.0,0.0,0.0,0.0,0.0,0.0,0.0,0.0,5.1643,5.2004,5.3324,5.5317,5.7514,5.9905,6.1426,6.2259,6.2186,6.3889,6.4396,6.2702,6.3056,6.3056,6.2259,6.2186,6.215,6.2014,6.1978,6.1978,6.1978,6.1978,6.2123,6.234,6.2471,6.2322,6.1899,6.237,6.2324,6.1745,6.1605,6.1177,6.0472,0.0,6.1639,6.1694,6.2459,6.2736,6.2813,6.3457,6.3308,6.2813,6.356,6.4373,6.5352,0.0,0.0,0.0,0.0,0.0,0.0,0.0,0.0,0.0,0.0,0.0,0.0,0.0,0.0,0.0,0.0,0.0,0.0,0.0,0.0,0.0,0.0,0.0,0.0,0.0,0.0,0.0,0.0,0.0,0.0,0.0,0.0,0.0,0.0,0.0,0.0,0.0,0.0,0.0,0.0,0.0,0.0,0.0,0.0,0.0,0.0,0.0,0.0,0.0,0.0,4.5635,4.6346,4.709,0.0,0.0,0.0,0.0,0.0,5.0145,5.1425,5.2559,0.0,0.0,0.0,0.0,0.0,0.0,0.0,0.0,0.0,0.0,0.0,5.4033,5.6011,5.6819,5.8058,6.0484,6.0701,6.11,6.2476,6.2875,6.2911,6.2657,6.2585,6.2404,6.2014,6.1978,6.1978,6.1978,6.1978,6.1978,6.1978,6.1978,6.1664,6.0927,6.098,6.1278,6.1734,6.1312,6.0912,6.06,6.0172,5.9806,5.9539,0.0,6.052,6.1332,6.167,6.2042,6.242,6.2774,6.2697,6.2488,6.3251,6.3986,6.485,0.0,0.0,0.0,0.0,0.0,0.0,0.0,0.0,0.0,0.0,0.0,0.0,0.0,0.0,0.0,0.0,0.0,0.0,0.0,0.0,0.0,0.0,0.0,0.0,0.0,0.0,0.0,0.0,0.0,0.0,0.0,0.0,0.0,0.0,0.0,0.0,0.0,0.0,0.0,0.0,0.0,0.0,0.0,0.0,0.0,0.0,0.0,0.0,0.0,0.0,0.0,0.0,0.0,0.0,0.0,0.0,0.0,4.9338,4.9916,5.0844,5.1911,0.0,0.0,5.4266,5.298,0.0,0.0,0.0,0.0,0.0,0.0,5.4617,5.5812,5.7804,5.8094,5.8746,6.0783,6.0194,6.0448,6.2911,6.2114,6.186,6.3056,6.2476,6.1978,6.1978,6.1833,6.1797,6.1978,6.1616,6.1507,6.1688,6.1579,6.097,5.9972,5.9797,6.0215,6.1164,6.0081,5.9596,5.9596,5.9021,5.8761,5.8761,5.893,5.9776,6.1028,6.1028,6.1569,6.2381,6.2212,6.2245,6.2448,6.3024,6.3734,6.4444,0.0,0.0,0.0,0.0,0.0,0.0,0.0,0.0,0.0,0.0,0.0,0.0,0.0,0.0,0.0,0.0,0.0,0.0,0.0,0.0,0.0,0.0,0.0,0.0,0.0,0.0,0.0,0.0,0.0,0.0,0.0,0.0,0.0,0.0,0.0,0.0,0.0,0.0,0.0,0.0,0.0,0.0,0.0,0.0,0.0,0.0,0.0,0.0,0.0,0.0,0.0,0.0,0.0,0.0,0.0,0.0,0.0,5.0097,5.1382,5.2731,5.3628,5.2889,0.0,0.0,5.4688,0.0,0.0,0.0,0.0,0.0,0.0,5.5414,5.621,5.7152,5.9108,6.0856,6.1761,6.2476,6.2947,6.3164,6.3092,6.3056,6.3164,6.2476,6.1978,6.1978,6.129,6.1181,6.1942,6.0593,6.0122,6.0856,6.0296,5.9916,5.9828,5.926,5.8702,5.8203,5.8095,5.8058,5.8058,5.7986,5.7983,5.8017,5.8693,5.9471,6.0182,6.0182,6.1061,6.2313,6.1637,6.1806,6.2381,6.2448,6.2956,6.37,0.0,0.0,0.0,0.0,0.0,0.0,0.0,0.0,0.0,0.0,0.0,0.0,0.0,0.0,0.0,0.0,0.0,0.0,0.0,0.0,0.0,0.0,0.0,0.0,0.0,0.0,0.0,0.0,0.0,0.0,0.0,0.0,0.0,0.0,0.0,0.0,0.0,0.0,0.0,0.0,0.0,0.0,0.0,0.0,0.0,0.0,0.0,0.0,0.0,0.0,0.0,0.0,0.0,0.0,0.0,0.0,0.0,4.924,5.0456,5.1629,5.2666,5.3181,0.0,0.0,0.0,0.0,0.0,0.0,0.0,0.0,0.0,0.0,5.7768,5.8565,5.9905,6.1281,6.2549,6.2585,6.2657,6.3128,6.2331,6.1716,6.1716,6.1426,6.1064,6.0557,6.1145,6.1081,6.0029,5.9857,5.9509,5.8886,5.8621,5.829,5.7887,5.8106,5.7912,5.7205,5.7679,5.7881,5.7881,5.7881,5.7881,5.7915,5.8186,5.8727,5.9471,5.9911,6.0757,6.1738,6.1907,6.2144,6.2381,6.2381,6.3159,6.4241,0.0,0.0,0.0,0.0,0.0,0.0,0.0,0.0,0.0,0.0,0.0,0.0,0.0,0.0,0.0,0.0,0.0,0.0,0.0,0.0,0.0,0.0,0.0,0.0,0.0,0.0,0.0,0.0,0.0,0.0,0.0,0.0,0.0,0.0,0.0,0.0,0.0,0.0,0.0,0.0,0.0,0.0,0.0,0.0,0.0,0.0,0.0,0.0,0.0,0.0,0.0,0.0,0.0,0.0,0.0,0.0,0.0,0.0,4.9902,5.096,5.2125,0.0,0.0,0.0,0.0,0.0,0.0,0.0,0.0,0.0,0.0,0.0,0.0,5.9108,6.0339,6.1498,6.2331,6.1969,6.1752,6.2041,6.11,6.0448,6.0448,6.0448,6.0194,5.9651,6.0215,6.0012,5.8788,5.8559,5.8125,5.7359,5.7145,5.6802,5.6322,5.7088,5.726,5.6799,5.7543,5.7881,5.7881,5.7881,5.7881,5.7881,5.7881,5.8321,5.9032,5.9302,6.0013,6.0994,6.1772,6.2178,6.2381,6.2381,6.3193,6.4241,0.0,0.0,0.0,0.0,0.0,0.0,0.0,0.0,0.0,0.0,0.0,0.0,0.0,0.0,0.0,0.0,0.0,0.0,0.0,0.0,0.0,0.0,0.0,0.0,0.0,0.0,0.0,0.0,0.0,0.0,0.0,0.0,0.0,0.0,0.0,0.0,0.0,0.0,0.0,0.0,0.0,0.0,0.0,0.0,0.0,0.0,0.0,0.0,0.0,0.0,0.0,0.0,0.0,0.0,0.0,0.0,0.0,5.0342,5.0137,5.1249,0.0,0.0,0.0,0.0,0.0,0.0,0.0,0.0,0.0,0.0,5.7224,0.0,0.0,5.8275,6.0412,6.1688,6.0919,6.0783,6.0484,5.9687,5.9615,5.9615,5.9552,5.9552,5.9552,5.9552,5.8277,5.7838,5.8624,5.6593,5.5718,5.6455,5.5813,5.5497,5.5497,5.6336,5.6799,5.6799,5.7509,5.7881,5.7881,5.7881,5.7881,5.7881,5.7881,5.8321,5.893,5.822,5.8761,6.0182,6.0994,6.1738,6.2381,6.2381,6.2854,6.3531,0.0,0.0,0.0,0.0,0.0,0.0,0.0,0.0,0.0,0.0,0.0,0.0,0.0,0.0,0.0,0.0,0.0,0.0,0.0,0.0,0.0,0.0,0.0,0.0,0.0,0.0,0.0,0.0,0.0,0.0,0.0,0.0,0.0,0.0,0.0,0.0,0.0,0.0,0.0,0.0,0.0,0.0,0.0,0.0,0.0,0.0,0.0,0.0,0.0,0.0,0.0,0.0,0.0,0.0,0.0,0.0,4.8532,4.9347,4.9285,0.0,0.0,5.2371,0.0,0.0,0.0,0.0,0.0,0.0,0.0,5.8709,5.8166,5.8492,0.0,5.7695,5.9108,6.0231,6.0013,5.9977,5.9868,5.9651,5.9108,5.8589,5.8178,5.8115,5.7872,5.7307,5.749,5.7276,5.6429,5.5837,5.5208,5.4419,5.4223,5.409,5.409,5.4872,5.5243,5.5277,5.6528,5.7408,5.7881,5.7881,5.7881,5.7881,5.7881,5.8017,5.8254,5.8558,5.9573,6.096,6.1231,6.1738,6.2381,6.2381,6.2854,6.3531,0.0,0.0,0.0,0.0,0.0,0.0,0.0,0.0,0.0,0.0,0.0,0.0,0.0,0.0,0.0,0.0,0.0,0.0,0.0,0.0,0.0,0.0,0.0,0.0,0.0,0.0,0.0,0.0,0.0,0.0,0.0,0.0,0.0,0.0,0.0,0.0,0.0,0.0,0.0,0.0,0.0,0.0,0.0,0.0,0.0,0.0,0.0,0.0,0.0,0.0,0.0,0.0,0.0,0.0,0.0,4.7823,4.8257,4.8837,4.8511,5.0053,0.0,5.2371,5.3929,5.5522,5.6283,0.0,0.0,0.0,0.0,5.947,5.8963,5.8999,5.8818,5.784,5.8746,5.9506,5.918,5.9108,5.8999,5.8673,5.7949,5.7201,5.6635,5.6553,5.6204,5.5419,5.5725,5.5514,5.4495,5.4344,5.3881,5.3044,5.3348,5.3518,5.3518,5.4228,5.46,5.46,5.5818,5.6765,5.7476,5.7746,5.7881,5.7881,5.7881,5.7881,5.7915,5.8389,5.9471,6.0825,6.0825,6.1467,6.2381,6.2381,6.2854,6.3463,0.0,0.0,0.0,0.0,0.0,0.0,0.0,0.0,0.0,0.0,0.0,0.0,0.0,0.0,0.0,0.0,0.0,0.0,0.0,0.0,0.0,0.0,0.0,0.0,0.0,0.0,0.0,0.0,0.0,0.0,0.0,0.0,0.0,0.0,0.0,0.0,0.0,0.0,0.0,0.0,0.0,0.0,0.0,0.0,0.0,0.0,0.0,0.0,0.0,0.0,0.0,0.0,0.0,0.0,0.0,4.7735,4.8257,4.8764,4.8098,0.0,0.0,5.2661,5.4436,0.0,5.7116,5.8456,5.9905,6.1362,0.0,5.9579,5.9506,5.8963,5.8456,5.8311,5.8891,5.9144,5.8383,5.8166,5.784,5.7152,5.6367,5.5599,5.5053,5.4919,5.4509,5.378,5.3364,5.3052,5.2866,5.2426,5.2232,5.23,5.301,5.345,5.3518,5.416,5.4499,5.4499,5.5243,5.5952,5.6696,5.7439,5.7777,5.7845,5.7881,5.7881,5.7881,5.7881,5.8761,6.0076,6.008,6.1028,6.2381,6.2381,6.2821,6.3328,0.0,0.0,0.0,0.0,0.0,0.0,0.0,0.0,0.0,0.0,0.0,0.0,0.0,0.0,0.0,0.0,0.0,0.0,0.0,0.0,0.0,0.0,0.0,0.0,0.0,0.0,0.0,0.0,0.0,0.0,0.0,0.0,0.0,0.0,0.0,0.0,0.0,0.0,0.0,0.0,0.0,0.0,0.0,0.0,0.0,0.0,0.0,0.0,0.0,0.0,0.0,0.0,4.6845,4.7707,4.8511,4.7895,4.8257,4.8981,0.0,5.0524,0.0,0.0,5.5667,5.7152,5.7949,5.842,5.8746,5.9108,5.9398,5.9434,5.8782,5.9035,5.8927,5.7659,5.7587,5.7659,5.7478,5.6428,5.5812,5.621,5.5173,5.417,5.3548,5.3096,5.2521,5.1755,5.1672,5.162,5.1493,5.1458,5.1725,5.2266,5.2469,5.2875,5.3484,5.3653,5.3754,5.3754,5.4465,5.5139,5.5739,5.6446,5.7012,5.7439,5.7772,5.7808,5.7662,5.7845,5.865,5.9886,6.0038,6.0878,6.2076,6.2341,6.2482,6.2618,0.0,0.0,0.0,0.0,0.0,0.0,0.0,0.0,0.0,0.0,0.0,0.0,0.0,0.0,0.0,0.0,0.0,0.0,0.0,0.0,0.0,0.0,0.0,0.0,0.0,0.0,0.0,0.0,0.0,0.0,0.0,0.0,0.0,0.0,0.0,0.0,0.0,0.0,0.0,0.0,0.0,0.0,0.0,0.0,0.0,0.0,0.0,0.0,0.0,0.0,0.0,0.0,0.0,0.0,4.7903,4.7744,4.8025,0.0,0.0,0.0,0.0,5.4725,0.0,5.7297,5.7732,5.784,5.784,5.784,5.8782,5.9361,5.8565,5.8746,5.8492,5.6899,5.6609,5.65,5.6138,5.5414,5.4918,5.5019,5.3759,5.2555,5.1654,5.0968,5.0385,5.0034,5.0066,5.0246,5.0493,5.0611,5.0845,5.1217,5.1524,5.2099,5.2909,5.2876,5.3078,5.3518,5.389,5.4327,5.4787,5.6231,5.7033,5.7327,5.7514,5.7551,5.7476,5.7588,5.8425,5.9688,5.9771,6.0718,6.2037,6.215,6.2302,6.2381,0.0,0.0,0.0,0.0,0.0,0.0,0.0,0.0,0.0,0.0,0.0,0.0,0.0,0.0,0.0,0.0,0.0,0.0,0.0,0.0,0.0,0.0,0.0,0.0,0.0,0.0,0.0,0.0,0.0,0.0,0.0,0.0,0.0,0.0,0.0,0.0,0.0,0.0,0.0,0.0,0.0,0.0,0.0,0.0,0.0,0.0,0.0,0.0,0.0,4.5062,0.0,0.0,0.0,0.0,4.6994,4.7428,4.7636,0.0,0.0,0.0,5.2371,5.5124,5.6391,0.0,5.7152,5.7188,5.7188,5.7188,5.8275,5.8927,5.813,5.7985,5.7514,5.6029,5.5667,5.545,5.4979,5.4653,5.4314,5.3846,5.2325,5.0928,4.9872,4.8988,4.8386,4.8249,4.8473,4.8787,4.9148,4.9392,4.9627,4.9866,5.0381,5.1056,5.1998,5.2101,5.2471,5.3214,5.3416,5.3683,5.404,5.5944,5.6913,5.7014,5.7051,5.7156,5.7252,5.7289,5.8055,5.9254,5.9427,6.0415,6.1749,6.1883,6.211,6.2302,0.0,0.0,0.0,0.0,0.0,0.0,0.0,0.0,0.0,0.0,0.0,0.0,0.0,0.0,0.0,0.0,0.0,0.0,0.0,0.0,0.0,0.0,0.0,0.0,0.0,0.0,0.0,0.0,0.0,0.0,0.0,0.0,0.0,0.0,0.0,0.0,0.0,0.0,0.0,0.0,0.0,0.0,0.0,0.0,0.0,0.0,0.0,0.0,0.0,4.4665,4.4954,0.0,0.0,0.0,4.689,4.6994,0.0,0.0,0.0,0.0,5.3639,0.0,5.5595,5.6319,0.0,0.0,5.7188,0.0,5.7369,5.7261,5.6464,5.6319,5.6029,5.5196,5.4472,5.4218,5.4834,5.3711,5.287,5.2962,5.1147,4.9643,4.8992,4.7796,4.6796,4.6157,4.6743,4.6849,4.6293,4.6878,4.7774,4.8933,4.9036,4.968,5.0893,5.1698,5.2068,5.2034,5.3168,5.3801,5.4006,5.4616,5.5231,5.5828,5.6204,5.6608,5.7063,5.7214,5.7678,5.8358,5.9187,5.9917,6.0605,6.1434,6.175,6.183,0.0,0.0,0.0,0.0,0.0,0.0,0.0,0.0,0.0,0.0,0.0,0.0,0.0,0.0,0.0,0.0,0.0,0.0,0.0,0.0,0.0,0.0,0.0,0.0,0.0,0.0,0.0,0.0,0.0,0.0,0.0,4.6747,4.6954,0.0,0.0,0.0,0.0,0.0,0.0,0.0,0.0,0.0,0.0,0.0,0.0,0.0,0.0,0.0,0.0,0.0,4.4748,4.4858,4.4733,0.0,0.0,0.0,0.0,0.0,4.8251,5.0198,5.1973,0.0,5.4472,5.5595,5.6355,5.6862,5.7188,5.7188,5.7188,5.6935,5.6138,5.5993,5.5595,5.4436,5.3929,5.3675,5.3566,5.2678,5.175,5.1102,4.953,4.8273,4.7723,4.6792,4.6181,4.6132,4.6524,4.6731,4.6653,4.7016,4.7689,4.861,4.8549,4.9188,5.0693,5.0995,5.1564,5.2434,5.3001,5.3231,5.323,5.3784,5.4601,5.562,5.5771,5.6208,5.6834,5.6911,5.7343,5.803,5.884,5.9651,6.0391,6.1239,6.1588,6.175,0.0,0.0,0.0,0.0,0.0,0.0,0.0,0.0,0.0,0.0,0.0,0.0,0.0,0.0,0.0,0.0,0.0,0.0,0.0,0.0,0.0,0.0,0.0,0.0,0.0,0.0,0.0,0.0,0.0,0.0,4.8083,4.6508,4.6369,0.0,4.6292,0.0,0.0,0.0,0.0,0.0,0.0,0.0,0.0,0.0,0.0,0.0,0.0,0.0,0.0,0.0,0.0,4.4264,4.405,4.3976,0.0,0.0,0.0,0.0,0.0,0.0,4.9872,5.1466,5.3096,5.4544,0.0,0.0,5.6935,5.7152,5.7188,5.6899,5.5884,5.5703,5.5196,5.3639,5.3385,5.3204,5.2589,5.1957,5.1079,4.9749,4.8421,4.7333,4.6573,4.5838,4.5578,4.5967,4.6123,4.6372,4.6871,4.6965,4.7337,4.815,4.8025,4.8593,5.0026,5.0259,5.1192,5.2903,5.2799,5.2694,5.2622,5.3285,5.424,5.5317,5.5516,5.6017,5.668,5.668,5.7111,5.7873,5.8601,5.9451,6.0303,6.1035,6.1424,6.1588,0.0,0.0,0.0,0.0,0.0,0.0,0.0,0.0,0.0,0.0,0.0,0.0,0.0,0.0,0.0,0.0,0.0,0.0,0.0,0.0,0.0,0.0,0.0,0.0,0.0,0.0,0.0,0.0,0.0,0.0,4.7432,4.7169,4.7361,4.7892,4.6773,4.5999,4.5514,0.0,0.0,0.0,0.0,0.0,0.0,0.0,0.0,0.0,0.0,0.0,0.0,0.0,0.0,0.0,0.0,0.0,0.0,0.0,0.0,0.0,0.0,4.7192,0.0,4.98,5.143,0.0,0.0,5.5522,5.6283,5.7043,5.7188,5.6754,5.5233,5.4979,5.4436,5.2806,5.2552,5.2552,5.2516,5.1957,5.1079,4.9749,4.8421,4.7127,4.5862,4.5094,4.4682,4.4688,4.4513,4.4731,4.5475,4.5395,4.5882,4.7128,4.7162,4.7466,4.8133,4.9525,5.1089,5.2903,5.2587,5.248,5.2622,5.3175,5.3831,5.4589,5.5284,5.6017,5.668,5.668,5.7111,5.7873,5.8601,5.9363,6.0092,6.0821,6.1119,6.1169,0.0,0.0,0.0,0.0,0.0,0.0,0.0,0.0,0.0,0.0,0.0,0.0,0.0,0.0,0.0,0.0,0.0,0.0,0.0,0.0,0.0,0.0,0.0,0.0,0.0,0.0,0.0,0.0,0.0,4.7141,4.8362,4.8019,4.8048,4.8324,4.6793,4.6081,4.5951,4.4856,0.0,0.0,0.0,0.0,0.0,0.0,0.0,0.0,0.0,0.0,0.0,0.0,0.0,0.0,0.0,0.0,0.0,0.0,0.0,0.0,0.0,0.0,0.0,4.8279,4.9764,5.1249,5.2335,5.3603,5.4617,5.4907,5.5377,5.5414,5.4327,5.4544,5.4363,5.277,5.248,5.248,5.248,5.1651,5.0479,4.9055,4.8238,4.7223,4.5867,4.6312,4.6427,4.5744,4.5711,4.5693,4.566,4.569,4.6096,4.6937,4.7435,4.8265,4.9425,5.0419,5.145,5.2587,5.2445,5.2409,5.2513,5.3138,5.3794,5.4523,5.5284,5.6017,5.668,5.668,5.6846,5.721,5.8436,5.9065,5.9429,6.0655,6.1119,6.1227,0.0,0.0,0.0,0.0,0.0,0.0,0.0,0.0,0.0,0.0,0.0,0.0,0.0,0.0,0.0,0.0,0.0,0.0,0.0,0.0,0.0,0.0,0.0,0.0,0.0,0.0,0.0,0.0,0.0,0.0,0.0,0.0,4.8533,4.861,4.6958,0.0,0.0,0.0,0.0,4.4549,0.0,0.0,4.3284,0.0,0.0,0.0,4.1962,4.201,0.0,0.0,0.0,0.0,0.0,0.0,0.0,0.0,0.0,0.0,4.303,0.0,0.0,0.0,4.8388,4.9655,5.0995,5.2118,5.3059,5.3603,5.4146,5.4327,5.3784,5.4146,5.4074,5.2733,5.248,5.248,5.248,5.1439,5.0233,4.9029,4.8289,4.7428,4.6177,4.6955,4.7237,4.6522,4.6455,4.6404,4.6333,4.6302,4.6603,4.7239,4.7736,4.873,5.0187,5.0684,5.1413,5.2409,5.2409,5.2409,5.2442,5.3367,5.4026,5.4523,5.5554,5.6249,5.668,5.668,5.6846,5.7144,5.8138,5.8833,5.9396,6.039,6.1053,6.1525,0.0,0.0,0.0,0.0,0.0,0.0,0.0,0.0,0.0,0.0,0.0,0.0,0.0,0.0,0.0,0.0,0.0,0.0,0.0,0.0,0.0,0.0,0.0,0.0,0.0,0.0,0.0,0.0,0.0,0.0,0.0,0.0,4.8884,0.0,4.7426,4.6969,4.7184,0.0,4.5696,4.5131,0.0,4.2855,4.3501,0.0,0.0,0.0,4.2325,4.209,0.0,4.2269,0.0,0.0,0.0,0.0,0.0,0.0,0.0,0.0,0.0,0.0,0.0,0.0,0.0,0.0,5.0633,5.1176,5.1647,5.3241,5.3603,5.3639,5.3639,5.3639,5.3422,5.2625,5.248,5.248,5.248,5.1439,5.0443,4.9671,4.8598,4.7631,4.6853,4.6819,4.6853,4.6819,4.6522,4.6642,4.7378,4.7098,4.7239,4.7968,4.8001,4.873,5.0187,5.022,5.0949,5.2409,5.2409,5.2409,5.2475,5.3831,5.4456,5.4556,5.6051,5.668,5.668,5.668,5.7111,5.7773,5.7806,5.8701,5.996,6.0026,6.092,6.2089,0.0,0.0,0.0,0.0,0.0,0.0,0.0,0.0,0.0,0.0,0.0,0.0,0.0,0.0,0.0,0.0,0.0,0.0,0.0,0.0,0.0,0.0,0.0,0.0,0.0,0.0,0.0,0.0,0.0,0.0,0.0,0.0,0.0,0.0,4.925,4.8589,4.759,4.577,0.0,0.0,4.4188,4.4103,0.0,0.0,0.0,0.0,4.1988,4.1372,4.0948,0.0,4.1946,4.131,0.0,0.0,0.0,0.0,0.0,0.0,4.2673,0.0,0.0,0.0,0.0,0.0,4.7491,4.8279,4.9003,5.0017,5.114,5.1973,5.1973,5.2444,5.277,5.2552,5.248,5.248,5.248,5.1439,5.0443,4.9671,4.9045,4.8206,4.6921,4.7767,4.8112,0.0,4.72,4.7149,4.7256,4.7035,4.7239,4.7968,4.8001,4.873,5.0187,5.022,5.0949,5.2409,5.2409,5.2409,5.2442,5.3301,5.403,5.4523,5.5521,5.6216,5.668,5.668,5.6812,5.7111,5.8171,5.8833,5.933,6.0423,6.1053,6.1516,0.0,0.0,0.0,0.0,0.0,0.0,0.0,0.0,0.0,0.0,0.0,0.0,0.0,0.0,0.0,0.0,0.0,0.0,0.0,0.0,0.0,0.0,0.0,0.0,0.0,0.0,0.0,0.0,0.0,0.0,0.0,0.0,0.0,0.0,0.0,0.0,0.0,0.0,0.0,0.0,4.4302,0.0,0.0,4.387,4.3377,0.0,0.0,0.0,4.1406,4.1641,4.1449,0.0,0.0,0.0,0.0,0.0,0.0,0.0,0.0,0.0,0.0,0.0,0.0,0.0,4.5702,4.6326,4.6949,4.7897,4.9003,4.9981,5.0691,5.1176,5.1611,5.1937,5.2009,5.2226,5.2915,5.2222,5.1505,5.1049,5.0076,4.912,4.824,4.868,4.8754,4.8222,4.7972,4.7753,4.7532,4.7436,4.757,4.8001,4.8001,4.873,5.0187,5.022,5.0949,5.2409,5.2111,5.2111,5.2407,5.3102,5.3794,5.4556,5.562,5.6316,5.668,5.668,5.668,5.6812,5.7972,5.8634,5.9065,6.0556,6.1483,6.2146,0.0,0.0,0.0,0.0,0.0,0.0,0.0,0.0,0.0,0.0,0.0,0.0,0.0,0.0,0.0,0.0,0.0,0.0,0.0,0.0,0.0,0.0,5.0542,5.044,0.0,0.0,0.0,0.0,0.0,0.0,0.0,0.0,0.0,0.0,0.0,0.0,0.0,0.0,0.0,4.4812,4.4192,4.4205,0.0,0.0,4.3729,4.3531,4.291,4.2633,4.2325,4.1028,4.0575,0.0,0.0,0.0,0.0,0.0,4.1905,0.0,0.0,0.0,0.0,0.0,0.0,0.0,4.4859,4.5049,4.5425,4.6445,4.7154,4.8048,4.9414,4.9856,5.0218,5.0895,5.1148,5.1798,5.3363,5.3095,5.2783,5.2901,5.118,4.9999,5.0067,4.9424,4.9018,4.9018,4.8673,4.8356,4.8033,4.8001,4.8001,4.8001,4.8001,4.8696,5.0187,5.0187,5.0984,5.2409,5.1746,5.1812,5.2506,5.3202,5.393,5.4725,5.6084,5.668,5.668,5.668,5.668,5.6779,5.7574,5.8303,5.9065,6.0556,6.1914,6.3073,0.0,0.0,0.0,0.0,0.0,0.0,0.0,0.0,0.0,0.0,0.0,0.0,0.0,0.0,0.0,0.0,0.0,0.0,0.0,0.0,5.1232,5.2026,5.1333,5.0946,5.1107,0.0,0.0,0.0,0.0,0.0,0.0,0.0,0.0,0.0,0.0,0.0,0.0,0.0,0.0,4.6343,4.6215,4.5534,4.4617,4.5133,4.4611,4.3593,4.347,4.2694,4.174,4.1494,4.1348,4.1469,0.0,0.0,0.0,4.2574,0.0,0.0,0.0,0.0,0.0,0.0,4.3721,0.0,4.3921,4.4061,4.4163,4.4435,4.5922,4.7088,4.698,4.8342,4.9389,4.9118,5.0105,5.1367,5.2712,5.19,5.1417,5.2186,5.0431,4.9458,5.0033,4.9424,4.9018,4.9018,4.8673,4.8388,4.8163,4.8066,4.8001,4.8001,4.8098,4.8829,5.0187,5.0323,5.1054,5.2409,5.2241,5.2539,5.3235,5.3964,5.4688,5.5416,5.6316,5.668,5.668,5.668,5.668,5.6812,5.8171,5.8767,5.9065,6.0556,6.1285,6.1682,0.0,0.0,0.0,0.0,0.0,0.0,0.0,0.0,0.0,0.0,0.0,0.0,0.0,0.0,0.0,0.0,0.0,0.0,0.0,0.0,5.2051,5.2835,5.2535,5.2295,5.231,5.2294,0.0,0.0,0.0,0.0,0.0,0.0,0.0,0.0,0.0,0.0,0.0,0.0,4.8032,4.7305,4.6965,0.0,4.5697,4.5697,4.507,4.4076,4.3741,4.294,4.214,4.2479,4.2355,0.0,4.2505,4.2322,4.2129,0.0,4.3033,4.3139,0.0,0.0,0.0,4.3681,4.3374,0.0,0.0,4.2566,4.28,4.3382,4.4226,4.4997,4.5492,4.6435,4.7203,4.7347,4.8291,4.9425,5.0592,5.0864,5.1217,5.2071,5.0267,4.9289,5.0033,4.9424,4.8923,4.8767,4.8578,4.8388,4.8098,4.8033,4.8001,4.8001,4.8066,4.8763,5.0187,5.0255,5.102,5.2409,5.2409,5.2738,5.3434,5.4158,5.4887,5.5615,5.6382,5.668,5.668,5.668,5.6912,5.7342,5.8469,5.8899,5.9131,6.1078,6.1733,6.189,0.0,0.0,0.0,0.0,0.0,0.0,0.0,0.0,0.0,0.0,0.0,0.0,0.0,0.0,0.0,0.0,0.0,0.0,0.0,0.0,0.0,0.0,5.3078,5.301,5.2841,5.2367,5.1725,0.0,0.0,0.0,0.0,0.0,0.0,0.0,0.0,0.0,0.0,0.0,0.0,4.8064,0.0,4.7067,4.6759,4.6272,4.5706,4.4985,4.4138,4.3474,4.3066,4.3629,4.3272,4.2669,4.2906,4.3203,0.0,0.0,0.0,0.0,0.0,0.0,0.0,0.0,0.0,4.298,0.0,0.0,0.0,4.2605,4.2773,4.315,4.4464,4.4782,4.5075,4.577,4.6409,4.7134,4.8064,4.9246,5.0479,5.1649,4.9896,4.8984,4.9999,4.9393,4.8897,4.878,4.8584,4.8324,4.8066,4.8001,4.8001,4.8001,4.8166,4.8895,5.0187,5.0387,5.1116,5.2409,5.2506,5.2937,5.3665,5.4394,5.5085,5.5852,5.6448,5.668,5.668,5.668,5.7111,5.7873,5.8601,5.8999,5.9371,6.1501,6.2199,6.2273,5.1184,5.2535,0.0,0.0,0.0,0.0,0.0,0.0,0.0,0.0,0.0,0.0,0.0,0.0,0.0,0.0,0.0,0.0,5.2702,0.0,0.0,0.0,5.1455,5.115,5.0507,5.1048,5.098,0.0,0.0,0.0,0.0,0.0,0.0,0.0,4.8277,0.0,0.0,0.0,4.8348,0.0,4.8798,4.7967,0.0,4.7439,4.7205,4.6394,4.5052,4.4516,4.4453,0.0,4.3675,4.2803,0.0,4.3649,4.2824,4.3336,0.0,0.0,0.0,0.0,0.0,0.0,4.4914,4.4027,4.2516,0.0,4.2064,4.1511,0.0,4.3156,4.3503,0.0,0.0,4.4722,4.4844,4.5156,4.5953,4.6191,4.731,5.0023,4.8402,4.7834,4.9898,4.9333,4.907,4.968,4.8821,4.8227,4.8163,4.8066,4.8001,4.8001,4.8762,4.9493,5.0187,5.0955,5.1685,5.2407,5.3003,5.3699,5.439,5.5118,5.5885,5.6581,5.6647,5.668,5.668,5.668,5.7111,5.7873,5.8601,5.9297,6.0033,6.1102,6.1517,6.165,0.0,0.0,0.0,0.0,0.0,0.0,0.0,0.0,0.0,0.0,0.0,0.0,0.0,5.2789,5.2596,0.0,5.1371,5.1182,5.2543,5.1864,0.0,0.0,5.2536,5.2164,5.1386,5.1285,5.0845,0.0,4.9661,0.0,0.0,0.0,0.0,0.0,4.8511,4.8477,4.8376,0.0,4.8951,0.0,0.0,4.8877,0.0,4.8132,4.7439,4.6694,4.6127,4.6183,4.65,0.0,4.5773,0.0,0.0,0.0,0.0,4.3872,0.0,0.0,0.0,0.0,0.0,0.0,0.0,0.0,4.3084,4.2625,4.232,4.2455,0.0,0.0,0.0,0.0,0.0,0.0,4.4282,4.4688,4.4879,4.497,4.6007,4.8511,4.7631,0.0,4.9164,4.9001,4.8841,4.892,4.8492,4.8163,4.8099,4.8033,4.8001,4.8001,4.8763,4.9492,5.0187,5.0554,5.1284,5.2407,5.3069,5.3798,5.456,5.5719,5.6415,5.668,5.668,5.668,5.6713,5.7144,5.7773,5.8502,5.9264,5.9728,6.0133,6.1035,6.1334,6.1393,0.0,0.0,0.0,0.0,0.0,0.0,0.0,0.0,0.0,0.0,0.0,5.5108,5.4485,5.419,5.4104,5.4445,5.2899,5.2357,5.3386,5.2738,5.2394,0.0,5.2976,5.2536,5.1116,5.098,5.0541,0.0,0.0,0.0,0.0,0.0,0.0,0.0,0.0,4.8511,4.821,0.0,4.9255,5.0033,4.9289,4.9323,4.9697,4.8619,4.7869,4.7405,4.7171,4.7559,4.8109,4.7545,4.758,0.0,4.6819,4.6634,4.6491,0.0,0.0,0.0,4.5668,0.0,0.0,0.0,0.0,4.3446,4.3384,4.2996,4.284,4.3578,4.347,0.0,0.0,0.0,0.0,0.0,0.0,4.4626,0.0,4.4603,4.5245,4.7241,4.7376,0.0,0.0,4.8707,4.8517,4.8227,4.7996,4.7799,4.7703,4.7703,4.7901,4.8299,4.9028,4.9756,5.0485,5.0485,5.1214,5.2672,5.3169,5.3897,5.4821,5.6117,5.668,5.668,5.668,5.668,5.6746,5.7475,5.8237,5.8966,5.9728,6.0125,6.0398,6.1135,6.1334,6.131,5.3484,5.3966,0.0,0.0,0.0,0.0,0.0,0.0,5.4495,5.5174,5.5312,5.5312,5.5353,5.4527,5.4911,5.7158,5.4058,5.3238,5.6156,5.3868,5.1728,5.0272,5.1589,5.1014,4.8075,4.9424,4.9763,0.0,0.0,0.0,0.0,0.0,0.0,0.0,0.0,4.8342,4.8917,4.824,4.8781,5.0033,4.9289,4.9018,4.9052,0.0,4.8923,4.8829,4.8129,0.0,0.0,4.8928,4.8454,0.0,0.0,0.0,0.0,0.0,0.0,0.0,0.0,0.0,0.0,4.6559,4.5152,4.3548,4.3435,4.3432,4.3668,0.0,0.0,0.0,0.0,0.0,0.0,0.0,0.0,0.0,0.0,0.0,4.4807,4.617,4.7577,0.0,0.0,4.8453,4.8227,4.8293,4.7467,4.6941,4.6941,4.6941,4.7603,4.9028,4.979,5.0518,5.1282,5.1282,5.1943,5.3367,5.34,5.4162,5.5582,5.6349,5.668,5.668,5.668,5.668,5.6746,5.7475,5.8237,5.8966,5.9728,6.0456,6.1086,6.1301,6.1383,6.1558,0.0,0.0,0.0,0.0,5.3719,0.0,5.5497,5.5776,5.634,5.7449,5.7686,5.8141,5.9086,5.8847,5.861,5.8525,5.679,5.5599,5.5252,5.4387,5.3415,5.2401,5.2841,5.2367,5.0845,5.1285,0.0,0.0,0.0,0.0,0.0,0.0,0.0,0.0,0.0,4.8781,0.0,0.0,0.0,0.0,0.0,5.0608,4.9729,0.0,4.9424,4.8987,4.8736,4.9414,0.0,4.9294,4.9427,4.9859,4.8618,4.8231,4.7967,4.6483,4.7103,4.8129,0.0,0.0,4.7209,4.7457,0.0,0.0,0.0,0.0,0.0,0.0,0.0,0.0,0.0,0.0,0.0,0.0,0.0,0.0,0.0,0.0,4.532,4.6473,4.7359,0.0,0.0,4.7955,4.7496,4.7368,4.6608,4.6378,4.6874,4.6908,4.757,4.9061,4.9359,4.9823,5.0551,5.0585,5.1313,5.2738,5.3202,5.4195,5.5615,5.6349,5.668,5.668,5.668,5.668,5.6779,5.8005,5.8668,5.9032,6.0258,6.0887,6.1119,6.1169,6.121,6.1418,5.3957,0.0,0.0,0.0,5.3518,5.3923,5.5141,5.6596,5.8002,5.9081,5.9843,6.0666,6.1836,6.1127,6.0484,6.0241,5.9103,5.7648,5.5884,5.575,5.4972,5.3145,5.3585,5.3281,5.1961,5.2164,0.0,0.0,0.0,5.0879,0.0,0.0,0.0,0.0,0.0,4.9018,4.9052,4.9796,5.0541,0.0,0.0,5.1826,0.0,0.0,5.0101,4.9018,0.0,4.9796,5.068,4.9656,4.9986,5.0549,4.9094,4.8793,4.8736,4.7272,4.7704,4.8418,4.7472,4.7137,0.0,4.7103,4.5701,0.0,4.5493,0.0,4.5357,0.0,0.0,0.0,0.0,0.0,0.0,0.0,0.0,0.0,0.0,4.5446,0.0,4.654,4.7096,0.0,0.0,4.7554,4.6866,4.624,4.5744,4.5777,4.6477,4.651,4.7305,4.9061,4.9359,4.9856,5.0585,5.085,5.1711,5.3135,5.3599,5.4593,5.6017,5.6481,5.668,5.668,5.668,5.6846,5.7177,5.8403,5.9065,5.9396,6.0705,6.1376,6.1576,6.1185,6.1492,6.2215,5.4668,5.3991,5.3518,5.3518,5.3551,5.3788,5.4465,5.7103,5.9302,6.0047,6.1501,6.2719,6.3497,6.1454,6.0658,6.2201,6.0852,5.9364,5.798,5.7848,5.6224,5.2638,5.3822,5.3585,5.142,5.2029,0.0,0.0,0.0,0.0,0.0,0.0,0.0,0.0,4.9661,0.0,4.9052,4.983,5.0608,5.1422,5.2909,5.2604,5.1352,5.2029,5.0947,4.9052,4.9052,4.9492,5.0067,5.0067,5.0067,5.0067,5.0067,4.956,4.8984,4.8954,4.8482,4.7967,4.7934,4.6898,4.5861,4.5852,4.4791,0.0,0.0,0.0,4.6159,0.0,0.0,0.0,0.0,0.0,0.0,0.0,0.0,0.0,0.0,0.0,0.0,0.0,4.6689,0.0,4.7564,4.7218,4.6398,4.5,4.487,4.5172,0.0,4.5814,4.6874,4.9094,4.9823,5.0518,5.1348,5.2078,5.3102,5.449,5.456,5.5322,5.668,5.668,5.668,5.668,5.668,5.7111,5.7839,5.8601,5.933,6.0059,6.1035,6.185,6.2416,6.1576,6.2282,6.3791,5.3923,5.3619,5.3518,5.3518,5.3957,5.4363,5.4566,5.7103,5.9505,6.0825,6.2313,6.3497,6.4241,6.3296,6.2312,6.167,6.0632,5.9448,5.7983,5.7374,5.6427,5.4905,5.4668,5.4329,5.3721,5.3382,5.3112,5.2909,0.0,0.0,5.2266,0.0,0.0,0.0,0.0,0.0,4.9086,5.0371,5.1691,5.2942,5.3348,5.2909,5.2063,0.0,5.1251,4.983,4.983,4.9932,4.9999,4.9458,4.9627,4.9999,4.9458,4.9154,4.8892,4.8354,4.845,4.8576,4.8064,4.8032,4.816,4.8152,4.6684,4.5457,0.0,0.0,0.0,0.0,0.0,0.0,0.0,0.0,0.0,0.0,0.0,0.0,0.0,0.0,0.0,4.632,4.55,4.554,4.7275,4.616,4.5208,4.4903,4.4809,4.5081,4.5748,0.0,4.7636,4.9856,4.9591,5.0253,5.2111,5.231,5.3102,5.4527,5.5052,5.5819,5.668,5.668,5.668,5.668,5.668,5.7111,5.7839,5.8601,5.933,6.0059,6.1035,6.194,6.2765,6.3125,6.3986,6.4959,5.4194,5.3721,5.3518,5.3518,5.4397,5.5074,5.5074,5.7036,5.9066,6.0588,6.2076,6.3193,6.3599,6.326,6.2685,6.1839,6.1061,5.9979,5.849,5.7983,5.7137,5.5784,5.531,5.4938,5.46,5.389,0.0,5.3518,0.0,0.0,5.2266,0.0,0.0,0.0,0.0,4.9018,4.912,5.0574,5.1894,5.301,5.3382,5.3247,0.0,5.2841,5.1894,5.0608,5.0947,5.0439,4.956,4.9154,4.9289,4.956,4.912,4.9018,4.8923,4.8513,4.845,4.845,4.8032,4.7967,4.8032,4.8032,4.7111,4.6415,4.711,4.6683,4.6415,0.0,4.8085,4.8279,0.0,0.0,0.0,0.0,0.0,0.0,0.0,0.0,0.0,0.0,4.5685,4.576,4.7337,4.541,4.419,4.4519,4.4764,4.5039,4.5315,0.0,4.7968,4.9193,5.0088,5.1148,5.2409,5.3669,5.4527,5.4986,5.5752,5.6316,5.668,5.668,5.668,5.668,5.668,5.7276,5.8303,5.8734,5.961,6.072,6.2156,6.3239,6.4184,6.4917,6.5295,6.5472,5.4871,5.4093,5.3619,5.3518,5.4803,5.5919,5.6122,5.7476,5.8896,6.0114,6.167,6.2651,6.255,6.2448,6.2381,6.2381,6.1637,6.0588,5.9235,5.8964,5.8017,5.6089,5.5783,5.5412,5.4769,5.3923,5.3518,0.0,5.2706,5.2266,5.2131,0.0,0.0,0.0,0.0,0.0,0.0,5.0642,5.1623,5.2367,5.3179,5.3518,5.3518,5.3518,5.2604,5.1454,5.2063,5.0947,4.9154,4.9154,4.9221,4.9255,4.9052,4.9086,4.912,4.9052,4.8545,4.8064,4.8064,4.7605,4.7101,4.7101,4.7033,4.7103,4.7737,4.7836,4.7967,4.8671,4.8861,4.8689,4.8007,0.0,0.0,0.0,0.0,0.0,0.0,0.0,0.0,0.0,0.0,0.0,4.7258,4.5072,4.3809,4.4332,4.4972,4.5223,0.0,0.0,4.8001,4.8299,5.085,5.2509,5.2973,5.5322,5.6382,5.6051,5.6481,5.668,5.668,5.6779,5.6812,5.6846,5.6945,5.7773,5.9032,5.9032,6.0056,6.1732,6.3549,6.4847,6.5764,6.6542,6.6281,6.5716,5.4769,5.4499,5.4228,5.3619,5.5243,5.7036,5.8254,6.025,6.1467,6.1129,6.2922,6.3971,6.3396,6.2753,6.2381,6.2381,6.1129,6.0216,5.9945,5.8761,5.7915,5.7509,5.6359,5.5649,5.5513,5.4194,5.3518,5.3518,5.2706,5.1995,5.1386,0.0,0.0,0.0,0.0,0.0,4.9965,5.0845,0.0,5.2367,5.3179,5.3518,5.3518,5.3518,5.2909,5.2131,5.2266,5.1251,4.9898,4.9898,5.0304,5.0608,4.939,4.9424,4.9796,4.9187,4.8892,4.8798,4.8798,4.8704,4.8608,4.8608,4.8161,4.7737,4.7869,4.7406,4.7204,4.7934,4.8096,4.8057,4.7916,0.0,0.0,0.0,0.0,0.0,0.0,0.0,0.0,0.0,0.0,4.5639,4.5778,4.579,4.5801,4.5905,4.5918,4.6098,4.6477,0.0,4.7934,0.0,5.0883,5.294,0.0,0.0,5.6647,5.8303,5.721,5.668,5.6713,5.7309,5.7608,5.7641,5.8237,5.8999,5.9827,5.9827,6.0902,6.2639,6.3659,6.4723,6.5764,6.6542,6.6703,6.6601,5.5243,5.4871,5.4837,5.5649,5.6664,5.8017,5.9911,6.1434,6.2245,6.1907,6.211,6.2279,6.2347,6.2381,6.2381,6.2381,6.0994,6.0114,6.0114,5.8727,5.7881,5.7881,5.6494,5.5681,5.5681,5.4262,5.3518,5.3518,5.2334,5.1555,0.0,0.0,0.0,0.0,0.0,4.956,0.0,0.0,0.0,5.1826,5.3044,5.3247,5.2909,5.3348,5.2773,5.1826,5.2638,5.2198,5.1183,5.0811,5.0405,4.9999,4.9661,4.956,4.9458,4.912,4.9018,4.9018,4.9018,4.9018,4.9018,4.9018,4.8736,4.8482,4.8482,4.8226,4.8032,4.8418,4.8482,4.8375,4.7977,4.7022,0.0,0.0,0.0,0.0,0.0,0.0,4.6262,0.0,0.0,0.0,0.0,4.6948,0.0,0.0,4.6176,4.6524,4.5906,0.0,4.8531,0.0,0.0,0.0,5.5554,0.0,5.7641,5.8336,5.8005,5.7839,5.7839,5.8204,5.8369,5.8403,5.8734,5.933,6.0059,6.0945,6.2041,6.3283,6.4178,6.5169,6.6171,6.6542,6.6686,6.6812,5.6156,5.5716,5.5852,5.7577,5.8287,5.9235,6.1028,6.2076,6.2584,6.2415,6.1332,6.0825,6.1467,6.1907,6.2144,6.2144,6.0757,5.9877,5.9877,5.8626,5.7881,5.7881,5.6494,5.5681,5.5681,5.4262,5.3518,5.3518,5.2131,5.1352,5.1151,0.0,0.0,0.0,0.0,0.0,0.0,0.0,5.1961,5.1523,5.2942,5.301,5.2401,5.3179,5.2638,5.1589,5.2807,5.2739,5.1995,5.142,5.0676,4.9965,5.0067,4.9796,4.9424,4.9086,4.9018,4.9018,4.9018,4.9018,4.9018,4.9018,4.9018,4.9018,4.9018,4.912,4.9187,4.9052,4.9018,4.8815,4.821,4.753,0.0,0.0,0.0,0.0,0.0,0.0,0.0,0.0,0.0,0.0,4.7225,0.0,0.0,0.0,4.6193,4.6745,4.5727,4.7566,4.8862,0.0,0.0,5.3997,5.5189,0.0,5.8601,5.8502,5.8767,5.8899,5.8899,5.9065,5.9131,5.9131,5.9297,5.9794,6.0556,6.2058,6.3182,6.3967,6.4705,6.5664,6.655,6.655,6.6643,6.6812,5.7543,5.7611,5.7645,5.7848,5.9607,6.1061,6.1264,6.2482,6.3159,6.2482,6.2245,6.2212,6.2279,6.1772,6.14,6.14,6.0013,5.9133,5.9133,5.8355,5.7881,5.7881,5.6494,5.5681,5.5681,5.4262,5.3518,5.3518,5.2638,5.186,5.1185,0.0,0.0,0.0,0.0,0.0,0.0,5.1623,5.2266,5.2266,5.3145,5.301,5.2401,5.3179,5.2976,5.2232,5.2367,5.1928,5.1286,5.1219,5.2063,5.2739,5.071,5.0507,5.0744,4.939,4.9018,4.9018,4.9018,4.9018,4.9018,4.9018,4.9018,4.9018,4.9018,4.9526,4.9796,4.9154,4.9018,4.8984,4.8917,4.8308,4.8037,0.0,0.0,0.0,0.0,0.0,4.8308,4.6955,0.0,0.0,4.519,4.6109,0.0,0.0,4.6081,4.7063,4.8115,4.7625,4.8228,5.0192,5.2312,5.4725,5.7442,5.774,5.8866,6.0788,5.9496,5.8899,5.8933,5.9595,5.9893,5.9926,6.0622,6.1318,6.2089,6.2884,6.3872,6.4881,6.4948,6.5749,6.677,6.677,6.677,6.6812,5.9167,5.8863,5.8998,6.0351,6.0588,6.1028,6.2415,6.2753,6.2719,6.2415,6.2381,6.255,6.3024,6.2415,6.1772,6.1332,6.0283,5.9471,5.9032,5.8321,5.7679,5.7273,5.6258,5.5513,5.504,5.4025,5.3518,0.0,0.0,5.2164,5.186,0.0,0.0,0.0,0.0,5.1183,5.0879,5.2367,5.2739,5.2367,5.3179,5.301,5.2401,5.3179,5.301,5.2367,5.2841,5.2841,5.2536,5.2029,5.1691,5.1386,5.0913,5.098,5.1014,4.9965,4.9965,5.0236,4.9796,4.9999,5.0338,5.0338,5.0338,5.0338,5.0338,5.0541,5.0676,5.0405,5.0338,5.0338,5.0338,5.0101,4.9999,5.027,0.0,0.0,0.0,0.0,0.0,4.7631,0.0,4.7022,0.0,4.5805,4.6461,0.0,4.7167,4.7242,4.7623,4.7231,4.7999,5.0223,0.0,5.3533,5.6448,5.7806,5.9131,6.0456,6.0291,6.0225,6.0225,6.0523,6.0887,6.1318,6.1616,6.2146,6.2951,6.368,6.4231,6.4704,6.5267,6.5861,6.6397,6.6558,6.672,6.6812,6.0419,6.0047,6.025,6.2076,6.1501,6.1332,6.2922,6.2719,6.2381,6.2381,6.2381,6.2516,6.2821,6.2178,6.1434,6.0689,5.9911,5.9235,5.8727,5.8186,5.7577,5.6833,5.6089,0.0,5.46,5.389,5.3518,5.3518,5.2942,0.0,5.2266,0.0,0.0,0.0,5.2063,5.2029,5.1623,5.2942,5.3179,5.2706,5.3281,5.301,5.2401,5.3179,5.301,5.2367,5.2942,5.3145,5.3044,5.2232,5.142,5.0811,5.1116,5.1185,5.1116,5.0574,5.0811,5.1116,5.0574,5.0811,5.1185,5.1185,5.1185,5.1185,5.1185,5.1386,5.1522,5.1522,5.1352,5.1185,5.1185,5.1185,5.1252,5.1488,0.0,0.0,0.0,5.0782,0.0,4.8379,4.7676,4.69,4.5776,4.5848,4.6604,0.0,4.7946,4.7751,4.7825,4.7466,4.8298,0.0,0.0,0.0,5.6249,5.8237,5.9595,6.0324,6.0854,6.1218,6.1417,6.1649,6.2013,6.2553,6.2752,6.315,6.3713,6.4486,6.4872,6.4993,6.5744,6.6129,6.6311,6.6516,6.6643,6.6812,6.1129,6.1298,6.1501,6.2245,6.2381,6.2381,6.2415,6.2381,6.2381,6.2381,6.2381,6.211,6.14,6.0622,5.9844,5.9099,5.8355,5.7915,5.7915,5.7881,5.7577,0.0,5.6089,5.5344,5.46,5.389,5.3518,5.3518,0.0,0.0,5.2266,0.0,5.1589,5.23,5.23,5.23,5.2334,5.3145,5.3484,5.3484,5.3518,5.301,5.2401,5.3179,5.301,5.23,5.23,5.23,5.2198,5.1488,5.1691,5.2164,5.1454,5.1185,5.1185,5.1217,5.1185,5.1185,5.1217,5.1185,5.1185,5.1185,5.1185,5.1185,5.1185,5.1758,5.23,5.23,5.1725,5.1185,5.1185,5.1185,5.1454,5.2164,0.0,0.0,0.0,5.1395,0.0,4.9092,4.8704,4.7768,4.5877,4.6165,0.0,0.0,4.805,4.8786,4.9521,0.0,0.0,5.139,5.3407,0.0,5.774,5.9264,6.0357,6.1086,6.1119,6.1483,6.2221,6.2951,6.3315,6.3348,6.4078,6.4365,6.4476,6.5392,6.5878,6.6139,6.6388,6.6635,6.677,6.6812,6.6812,6.6812,6.2009,6.2042,6.211,6.2347,6.2381,6.2381,6.2381,6.2381,6.2381,6.2381,6.2381,6.211,6.1366,6.1501,6.1163,5.9877,5.9539,5.8964,5.7949,5.7881,5.734,5.6122,5.5852,5.5141,5.389,5.3619,5.3518,5.3518,0.0,0.0,0.0,5.2875,5.2909,5.3112,5.3112,5.3112,5.3145,5.3382,5.3518,5.3518,5.3518,5.3348,5.3145,5.3416,5.3348,5.3112,5.3112,5.3112,5.301,5.2232,5.2097,5.2266,5.2029,5.2334,5.2672,5.2131,5.2334,5.2672,5.2097,5.2367,5.2773,5.2773,5.2773,5.2773,5.2773,5.2842,5.2876,5.274,5.2538,5.237,5.237,5.237,5.2438,5.2673,5.2504,0.0,5.2001,0.0,5.0023,4.8107,4.7809,4.7169,4.5635,4.6458,0.0,0.0,0.0,4.9093,0.0,0.0,0.0,0.0,5.3702,0.0,5.8502,5.9496,6.039,6.1119,6.1783,6.2549,6.345,6.3684,6.4009,6.4476,6.471,6.511,6.5578,6.5865,6.6052,6.6139,6.6421,6.655,6.6635,6.6728,6.6812,6.6812,6.2482,6.2854,6.3057,6.2482,6.2854,6.3024,6.2482,6.2618,6.2719,6.2415,6.2381,6.2212,6.1772,6.211,6.167,5.9844,5.9438,5.8863,5.7949,5.7881,5.7239,5.5749,5.5681,5.5006,5.3551,5.3518,5.3518,5.3518,5.3518,5.3518,5.3518,5.3518,5.3518,5.3518,5.3518,5.3518,5.3518,5.3518,5.3518,5.3518,5.3518,5.3518,5.3518,5.3518,5.3518,5.3518,5.3518,5.3518,5.3416,5.2909,5.2739,5.2739,5.2739,5.3112,5.3416,5.2909,5.3112,5.3382,5.2875,5.3112,5.3518,5.3518,5.3518,5.3484,5.3382,5.3448,5.3478,5.3338,5.3539,5.3638,5.3372,5.3338,5.3238,5.297,5.2834,5.2532,5.1899,0.0,5.0059,0.0,0.0,4.7755,0.0,4.815,4.9024,0.0,0.0,0.0,0.0,0.0,5.1678,5.3135,5.5198,5.726,5.9385,6.0795,6.1567,6.1733,6.2891,6.3793,6.4388,6.4656,6.5024,6.5426,6.5426,6.566,6.6095,6.6182,6.6259,6.6259,6.655,6.6635,6.6635,6.6728,6.6812,6.6812,6.2685,6.3599,6.414,6.2651,6.3565,6.4038,6.2618,6.299,6.3193,6.2482,6.2381,6.2381,6.2381,6.2347,6.1467,5.9336,5.8524,5.8084,5.7983,5.7983,5.7306,5.5817,5.575,5.504,5.3619,5.3518,5.3484,5.3484,5.3518,5.3518,5.3518,5.3518,5.3518,5.3518,5.3518,5.3518,5.3518,5.3518,5.3518,5.3518,5.3518,5.3518,5.3518,5.3518,5.3518,5.3518,5.3518,5.3518,5.3518,5.3518,5.3518,5.3518,5.3518,5.3518,5.3518,5.3518,5.3518,5.3518,5.3518,5.3551,5.3585,5.3551,5.3585,5.3551,5.3347,5.3711,5.4073,5.4037,5.4573,5.484,5.4138,5.3971,5.3703,5.3069,5.2727,5.2392,5.1764,5.0857,5.0323,0.0,0.0,0.0,4.9624,5.0826,5.1324,0.0,0.0,0.0,0.0,0.0,5.347,5.4725,5.7742,5.9725,6.0558,6.2832,6.3659,6.2989,6.4354,6.5058,6.5167,6.5837,6.6139,6.6139,6.6139,6.6139,6.6182,6.6421,6.6507,6.655,6.6728,6.6812,6.6812,6.6812,6.6812,6.6812,6.2685,6.3599,6.414,6.2651,6.3159,6.3463,6.2516,6.255,6.2584,6.2415,6.2381,6.2381,6.2381,6.1907,6.1332,6.0791,6.0588,6.0013,5.8829,5.8761,5.8084,5.6596,5.6021,5.5277,5.4363,5.3618,5.328,5.328,5.3416,5.3518,5.3518,5.3518,5.3518,5.3518,5.3518,5.3518,5.3518,5.3518,5.3518,5.3518,5.3518,5.3518,5.3518,5.3518,5.3518,5.3518,5.3518,5.3518,5.3518,5.3518,5.3518,5.3518,5.3518,5.3518,5.3518,5.3518,5.3518,5.3518,5.3518,5.3923,5.4295,5.4158,5.4421,5.4647,5.447,5.4531,5.4556,5.4409,5.4505,5.4572,5.4406,5.3908,5.3476,5.331,5.2812,5.198,5.0754,5.0852,5.042,0.0,4.9924,5.0621,5.0259,5.1491,5.2559,0.0,0.0,5.4434,5.5018,5.6834,5.7668,5.7353,5.9618,6.1565,6.3108,6.3718,6.4279,6.4774,6.5144,6.5665,6.6373,6.6542,6.6643,6.6643,6.6643,6.6643,6.6643,6.6686,6.6728,6.6728,6.677,6.6812,6.6812,6.6812,6.6812,6.6812,6.326,6.4072,6.4647,6.3159,6.3531,6.3632,6.255,6.2956,6.3159,6.2482,6.2685,6.2753,6.2415,6.2042,6.1806,6.1806,6.1163,6.025,5.9099,5.9032,5.8355,5.6867,5.6427,5.5716,5.46,5.4126,5.3686,5.3348,5.345,5.3518,5.3518,5.3518,5.3518,5.3518,5.3518,5.3518,5.3518,5.3518,5.3518,5.3518,5.3382,5.3348,5.3348,5.328,5.3246,5.3246,5.3246,5.3246,5.3246,5.3348,5.3348,5.345,5.3856,5.3923,5.3956,5.4397,5.4025,5.3585,5.3923,5.4296,5.4633,5.4762,5.4881,5.5032,5.5255,5.548,5.57,5.5951,5.6282,5.6316,5.562,5.5189,5.4593,5.3566,5.3102,5.234,5.0916,5.1083,5.1082,5.0551,5.1545,5.2509,5.3213,5.4309,5.4911,5.4722,5.6066,0.0,5.6925,5.9437,6.0378,5.9191,6.1829,6.3525,6.412,6.458,6.5202,6.607,6.607,6.6314,6.6812,6.6812,6.6812,6.6812,6.6812,6.6812,6.6812,6.6812,6.6812,6.6812,6.6812,6.6812,6.6812,6.6812,6.6812,6.6812,6.3903,6.4613,6.5121,6.3903,6.4174,6.414,6.2753,6.3632,6.3937,6.2584,6.2956,6.3091,6.2448,6.2482,6.2516,6.2341,6.126,6.0212,5.9404,5.9235,5.8558,5.7205,5.6934,5.6156,5.4803,5.4498,5.4092,5.345,5.345,5.345,5.345,5.345,5.3416,5.3382,5.3382,5.3382,5.3382,5.3382,5.3382,5.3382,5.3213,5.3144,5.3144,5.2972,5.2903,5.2903,5.3037,5.3071,5.3139,5.3378,5.3515,5.3684,5.4429,5.4631,5.4662,5.5408,5.4768,5.3889,5.4566,5.4768,5.4967,5.5631,5.5542,5.5451,5.6179,5.6696,5.721,5.7839,5.8469,5.8469,5.7111,5.668,5.5918,5.4063,5.3467,5.2837,5.1647,0.0,5.2042,5.3268,5.3699,5.4692,5.6647,5.7586,5.762,5.6553,5.8952,6.0004,5.9097,6.1439,6.2274,6.1065,6.3802,6.5127,6.4705,6.5478,6.617,6.6812,6.6812,6.6812,6.6812,6.6812,6.6812,6.6812,6.6812,6.6812,6.6812,6.6812,6.6812,6.6812,6.6812,6.6812,6.6812,6.6812,6.6812,6.6812,6.37,6.4208,6.4681,6.4478,6.4512,6.4309,6.3463,6.3531,6.3362,6.2516,6.2482,6.2516,6.2415,6.2956,6.2978,6.2144,6.2441,6.2217,6.1028,6.0317,5.9539,5.8727,5.7476,5.6393,5.5547,5.4158,5.3382,5.3247,5.3247,5.3247,5.3247,5.3247,5.3144,5.2972,5.2972,5.2972,5.2972,5.2972,5.2972,5.2972,5.2938,5.2938,5.2938,5.2903,5.2903,5.3004,5.364,5.3805,5.3941,5.4577,5.4919,5.5062,5.5053,5.523,5.5511,5.5471,5.5265,5.5132,5.5232,5.5487,5.6033,5.733,5.7509,5.7514,5.8243,5.8509,5.8601,5.8701,5.8833,5.8634,5.7773,5.6614,5.5686,5.5284,5.3732,5.2473,5.2277,0.0,5.3169,5.3367,5.5057,5.6547,5.7541,5.8586,5.957,6.0444,6.0897,6.1614,6.2724,6.3725,6.4285,6.4279,6.479,6.5471,6.6432,6.6534,6.6711,6.6812,6.6812,6.6812,6.6812,6.6812,6.6812,6.6812,6.6812,6.6812,6.6812,6.6812,6.6812,6.6812,6.6812,6.6812,6.6812,6.6812,6.6812,6.6812,6.4241,6.4681,6.5189,6.5189,6.485,6.4343,6.3632,6.3835,6.3835,6.3091,6.3328,6.3389,6.2864,6.3134,6.2952,6.1938,6.2293,6.2266,6.1553,6.0526,5.9587,5.8845,5.791,5.7036,5.6325,5.5173,5.4529,5.4529,5.4425,5.439,5.439,5.4285,5.4179,5.4073,5.4073,5.3839,5.3471,5.3471,5.3271,5.2868,5.2764,5.2729,5.2762,5.3057,5.3154,5.3254,5.402,5.4286,5.4319,5.4795,5.5077,5.5288,5.5727,5.5898,5.6037,5.6477,5.6309,5.6071,5.6365,5.6742,5.7353,5.8419,5.8528,5.8701,5.9827,6.0092,6.0191,6.0589,6.0779,6.0455,5.9365,5.8262,5.7399,5.7,5.5107,5.3775,5.4063,5.4137,5.4704,5.6183,5.7608,5.9065,6.0589,6.126,6.16,6.1816,6.2379,6.3045,6.3793,6.4572,6.532,6.5935,6.5968,6.6264,6.6812,6.6812,6.6812,6.6812,6.6812,6.6812,6.6812,6.6812,6.6812,6.6812,6.6812,6.6812,6.6812,6.6812,6.6812,6.6812,6.6812,6.6812,6.6812,6.6812,6.6812,6.6812,6.4647,6.4918,6.529,6.5628,6.5046,6.4302,6.3632,6.389,6.4018,6.3485,6.3883,6.3971,6.3396,6.353,6.3213,6.223,6.2293,6.2226,6.1896,6.0644,5.9688,5.9161,5.8234,5.7398,5.6689,5.5911,5.554,5.5576,5.5362,5.5291,5.5291,5.5077,5.5038,5.4965,5.4965,5.4631,5.4133,5.3933,5.3632,5.323,5.2921,5.2884,5.3083,5.3503,5.3665,5.3765,5.4494,5.4754,5.4792,5.5181,5.5432,5.5713,5.6597,5.6794,5.6854,5.7704,5.7573,5.7234,5.7653,5.803,5.8441,5.9206,5.9385,5.9761,6.1053,6.1483,6.1781,6.2354,6.258,6.2307,6.1017,6.0011,5.9139,5.8486,0.0,5.541,5.5786,5.58,5.6601,5.8866,5.996,6.1251,6.315,6.3524,6.3401,6.2837,6.3851,6.4497,6.4446,6.5245,6.6028,6.6728,6.677,6.6812,6.6812,6.6812,6.6812,6.6812,6.6812,6.6812,6.6812,6.6812,6.6812,6.6812,6.6812,6.6812,6.6812,6.6812,6.6812,6.6812,6.6812,6.6812,6.6812,6.6812,6.6812,6.6812,6.4343,6.4106,6.4106,6.5459,6.4964,6.4139,6.3592,6.3208,6.2971,6.3141,6.3012,6.3149,6.3785,6.4455,6.447,6.3557,6.3491,6.3191,6.2524,6.1091,6.0305,6.0437,5.8466,5.7025,5.6255,5.5335,5.4968,5.5147,5.4932,5.4859,5.4859,5.4822,5.4712,5.4564,5.4564,5.4531,5.4431,5.3735,5.3801,5.4332,5.3599,5.3732,5.4361,5.4427,5.439,5.449,5.5251,5.5516,5.5653,5.6511,5.6858,5.6992,5.7725,5.8074,5.8356,5.8897,5.9058,5.9025,5.9019,5.8966,5.9039,5.9768,6.0423,6.1152,6.1914,6.2652,6.3183,6.3216,6.3249,6.3069,6.2441,6.1019,5.9743,5.9218,0.0,0.0,5.6614,5.774,5.8899,5.9827,6.1152,6.2387,6.3249,6.4085,6.4581,6.4514,6.5603,6.6124,6.569,6.633,6.6652,6.655,6.6686,6.6812,6.6812,6.6812,6.6812,6.6812,6.6812,6.6812,6.6812,6.6812,6.6812,6.6812,6.6812,6.6812,6.6812,6.6812,6.6812,6.6812,6.6812,6.6812,6.6812,6.6812,6.6812,6.6812,6.441,6.4626,6.4982,6.6028,6.5758,6.5194,6.4531,6.4271,6.4195,6.4237,6.4229,6.4203,6.4376,6.4643,6.4424,6.3511,6.353,6.3197,6.2381,6.1467,6.0665,5.9929,5.8975,5.8408,5.8222,5.7448,5.708,5.7156,5.65,5.6154,5.6154,5.6041,5.5928,5.5852,5.5852,5.562,5.5152,5.4854,5.4655,5.4494,5.4158,5.4262,5.4523,5.4986,5.5152,5.5251,5.6017,5.6581,5.7011,5.7354,5.7869,5.8419,5.8685,5.8825,5.8997,5.9525,5.9717,5.9916,6.0812,6.034,5.986,6.1053,6.155,6.208,6.3272,6.3769,6.4011,6.4011,6.4098,6.3995,6.3273,6.2266,6.1634,6.1883,0.0,5.9226,6.0,6.0314,6.0886,6.1923,6.3036,6.4062,6.475,6.5267,6.5521,6.5424,6.5918,6.6129,6.5824,6.6172,6.6473,6.6643,6.6635,6.6635,6.6635,6.6728,6.6812,6.6812,6.6812,6.6812,6.6812,6.6812,6.6812,6.6812,6.6812,6.6812,6.6812,6.6812,6.6812,6.6812,6.6812,6.6812,6.6812,6.6812,6.6812,6.6812,6.4578,6.5026,6.5404,6.5942,6.5804,6.544,6.4747,6.4562,6.4543,6.4862,6.4853,6.4824,6.4893,6.4927,6.464,6.4045,6.3866,6.3577,6.2951,6.2348,6.1176,5.9404,5.9412,5.9412,5.9337,5.8836,5.8569,5.8569,5.7881,5.7476,5.7276,5.7122,5.6912,5.668,5.668,5.6547,5.6282,5.6051,5.5819,5.5521,5.5289,5.5189,5.5289,5.6017,5.6316,5.6415,5.7111,5.7707,5.8138,5.8217,5.8628,5.9172,5.9445,5.9844,6.0263,6.0862,6.102,6.1251,6.2288,6.1781,6.1285,6.2321,6.2719,6.3183,6.4133,6.4531,6.4697,6.4697,6.4829,6.4794,6.4381,6.3672,6.3197,6.3581,6.2266,6.1451,6.2089,6.2357,6.2773,6.3634,6.4581,6.5344,6.5845,6.6009,6.6052,6.5911,6.6129,6.6215,6.6129,6.6172,6.6388,6.6686,6.6635,6.655,6.6507,6.6686,6.6812,6.6812,6.6812,6.6812,6.6812,6.6812,6.6812,6.6812,6.6812,6.6812,6.6812,6.6812,6.6812,6.6812,6.6812,6.6812,6.6812,6.6812,6.6812,6.6812,6.4848,6.5024,6.4981,6.5024,6.4853,6.4533,6.4002,6.3572,6.3657,6.4604,6.453,6.4664,6.5326,6.5425,6.5425,6.5425,6.4796,6.4399,6.4365,6.3746,6.198,5.9065,5.9628,5.9661,5.8933,5.8899,5.8899,5.8899,5.8899,5.8535,5.7806,5.7806,5.7409,5.6713,5.6713,5.7111,5.774,5.7011,5.7144,5.774,5.7011,5.6713,5.6779,5.7508,5.7806,5.7906,5.8634,5.8899,5.894,5.9139,5.9059,5.9105,6.0037,6.1185,6.2354,6.3116,6.3315,6.3315,6.3315,6.3315,6.3315,6.3315,6.3835,6.4365,6.4399,6.4929,6.5425,6.5425,6.5425,6.547,6.5736,6.5039,6.4221,6.3705,6.3477,6.3083,6.2354,6.3653,6.4724,6.4724,6.5531,6.6095,6.6095,6.6095,6.6095,6.6095,6.6345,6.6592,6.677,6.6635,6.6507,6.6507,6.6686,6.6686,6.6507,6.6686,6.6812,6.6812,6.6812,6.6812,6.6812,6.6812,6.6812,6.6812,6.6812,6.6812,6.6812,6.6812,6.6812,6.6812,6.6812,6.6812,6.6812,6.6812,6.6812,6.6812,6.4848,6.4853,6.4967,6.5467,6.5359,6.5161,6.4972,6.4851,6.4862,6.515,6.5138,6.5194,6.5392,6.5425,6.5425,6.5425,6.5227,6.4895,6.4399,6.3746,6.2917,6.2013,6.1682,6.1185,6.0456,5.9926,5.9661,5.9661,5.9164,5.88,5.8568,5.8568,5.8436,5.8237,5.8237,5.8369,5.8568,5.8336,5.8369,5.8535,5.8336,5.8237,5.827,5.8502,5.8568,5.8601,5.8833,5.9231,5.9661,5.9743,6.0439,6.1359,6.2131,6.2695,6.305,6.3249,6.3315,6.3415,6.3902,6.4034,6.4034,6.4034,6.42,6.4465,6.4995,6.526,6.5425,6.5425,6.5425,6.5425,6.5514,6.5304,6.5028,6.4884,6.4972,6.4993,6.476,6.5137,6.5534,6.5674,6.5821,6.5955,6.6095,6.6095,6.6095,6.6095,6.6182,6.6546,6.7334,6.6613,6.6388,6.6686,6.6635,6.6635,6.6686,6.677,6.6812,6.6812,6.6812,6.6812,6.6812,6.6812,6.6812,6.6812,6.6812,6.6812,6.6812,6.6812,6.6812,6.6812,6.6812,6.6812,6.6812,6.6812,6.6812,6.6812,6.5057,6.507,6.5105,6.5581,6.5514,6.5425,6.5425,6.5425,6.5425,6.5425,6.5425,6.5425,6.5425,6.5425,6.5425,6.5425,6.5425,6.5127,6.4432,6.4233,6.3868,6.3305,6.3183,6.2577,6.155,6.0821,6.0456,6.0456,5.9993,5.9628,5.933,5.933,5.9164,5.8899,5.8899,5.9065,5.933,5.933,5.933,5.933,5.933,5.9164,5.8933,5.9231,5.9529,5.9794,6.0092,6.0655,6.1285,6.1285,6.1881,6.2785,6.3514,6.3746,6.3813,6.4034,6.4133,6.4233,6.4664,6.4796,6.4796,6.4796,6.4763,6.4862,6.5326,6.5425,6.5425,6.5425,6.5425,6.5425,6.5559,6.547,6.5425,6.5559,6.5603,6.5647,6.5647,6.5736,6.5824,6.5999,6.5955,6.6099,6.6661,6.6661,6.6839,6.7228,6.7185,6.7295,6.7714,6.7113,6.6785,6.677,6.6643,6.6677,6.6812,6.6812,6.6812,6.6812,6.6812,6.6812,6.6812,6.6812,6.6812,6.6812,6.6812,6.6812,6.6812,6.6812,6.6812,6.6846,6.7117,6.7083,6.6846,6.7151,6.7049,6.6812,6.5425,6.5425,6.5425,6.5425,6.5425,6.5425,6.5425,6.5425,6.5425,6.5425,6.5425,6.5425,6.5425,6.5425,6.5425,6.5425,6.5425,6.516,6.4531,6.5061,6.4829,6.3504,6.4034,6.3736,6.2453,6.1682,6.1285,6.1218,6.1218,6.0821,6.0092,6.0092,5.9728,5.9098,5.9098,5.9463,6.0092,6.0092,6.0092,6.0092,6.0158,5.9794,5.9264,6.0026,6.0721,6.1384,6.2089,6.2752,6.3315,6.3415,6.3415,6.3547,6.4233,6.4465,6.4597,6.5227,6.5425,6.5425,6.5425,6.5459,6.5525,6.5525,6.5558,6.5591,6.5459,6.5425,6.5425,6.5425,6.5459,6.5569,6.5836,6.5725,6.5669,6.5935,6.5692,6.5569,6.5569,6.5725,6.5857,6.5968,6.6109,6.6584,6.7618,6.7685,6.8109,6.9103,6.8904,6.8523,6.8132,6.7963,6.759,6.6948,6.6846,6.6812,6.6812,6.688,6.6914,6.6914,6.6914,6.6914,6.6914,6.6914,6.688,6.6812,6.6812,6.6812,6.6812,6.6812,6.6812,6.688,6.7557,6.7387,6.688,6.7557,6.7387,6.6812,6.5425,6.5425,6.5425,6.5425,6.5425,6.5425,6.5425,6.5425,6.5425,6.5425,6.5425,6.5425,6.5425,6.5425,6.5425,6.5425,6.5425,6.5359,6.5194,6.5326,6.526,6.4962,6.4597,6.4233,6.3902,6.3173,6.251,6.1947,6.1947,6.1583,6.0854,6.0854,6.0788,6.0622,6.0622,6.0721,6.0854,6.0854,6.0854,6.092,6.1483,6.1658,6.1592,6.2278,6.2676,6.2808,6.2974,6.3183,6.3415,6.3978,6.4133,6.4266,6.4962,6.5194,6.5227,6.5359,6.5425,6.5425,6.5425,6.5823,6.6287,6.6287,6.6717,6.685,6.569,6.5425,6.5425,6.5425,6.5889,6.6287,6.6332,6.6751,6.7148,6.7194,6.6865,6.6646,6.679,6.6333,6.6417,6.7334,6.7141,6.7355,6.8358,6.8469,6.8806,6.9591,6.9252,6.9204,6.9688,6.8538,6.7827,6.7658,6.7117,6.6812,6.6812,6.7387,6.7658,6.7658,6.7658,6.7658,6.7658,6.7658,6.7354,6.6812,6.6812,6.6812,6.6812,6.6812,6.6812,6.6846,6.6981,6.6948,6.6846,6.6981,6.6948,6.6812,6.5425,6.5425,6.5425,6.5425,6.5425,6.5425,6.5425,6.5425,6.5425,6.5425,6.5425,6.5425,6.5425,6.5425,6.5425,6.5425,6.5425,6.5425,6.5425,6.5425,6.5425,6.5425,6.5061,6.4862,6.4862,6.4498,6.3769,6.2719,6.2719,6.251,6.2146,6.1781,6.1616,6.1616,6.1251,6.1119,6.1119,6.1483,6.1616,6.1682,6.2453,6.2719,6.2785,6.3183,6.3547,6.3846,6.3846,6.4001,6.4365,6.473,6.4862,6.4929,6.5293,6.5425,6.5425,6.5425,6.5425,6.5425,6.5425,6.5955,6.6519,6.6519,6.7036,6.7367,6.6651,6.6485,6.6485,6.6485,6.6784,6.7049,6.7185,6.7426,6.7612,6.7783,6.7497,6.7188,6.7046,6.7024,6.7123,6.7507,6.7712,6.8127,6.9132,6.967,7.0085,7.049,7.0276,7.0161,7.0195,6.9113,6.847,6.847,6.7726,6.7523,6.7895,6.8267,6.8639,6.8977,6.8639,6.847,6.847,6.8064,6.7692,6.732,6.6948,6.6812,6.6812,6.6812,6.6812,6.6846,6.7184,6.7117,6.6846,6.7218,6.7117,6.6812,6.5425,6.5425,6.5425,6.5425,6.5425,6.5425,6.5425,6.5425,6.5425,6.5425,6.5425,6.5425,6.5425,6.5425,6.5425,6.5425,6.5525,6.5558,6.5425,6.5525,6.5558,6.5425,6.5425,6.5425,6.5425,6.5425,6.4763,6.3514,6.3514,6.3448,6.3315,6.2685,6.2387,6.2387,6.1748,6.1483,6.1516,6.2113,6.2387,6.2453,6.3216,6.3514,6.3514,6.3603,6.4034,6.4564,6.4564,6.4929,6.5425,6.5425,6.5425,6.5425,6.5425,6.5425,6.5425,6.5425,6.5425,6.5459,6.5558,6.6154,6.6751,6.685,6.7446,6.8009,6.8009,6.7764,6.7566,6.7566,6.7711,6.7903,6.8132,6.8094,6.8102,6.8332,6.8094,6.7717,6.739,6.7814,6.8004,6.7758,6.8406,6.92,6.9985,7.0805,7.1312,7.1312,7.1312,7.1041,7.0398,6.9688,6.9282,6.9282,6.8504,6.8436,6.9079,6.9214,6.9586,7.0195,6.9722,6.9417,6.9282,6.8605,6.8233,6.8064,6.732,6.7015,6.6981,6.688,6.6812,6.688,6.7489,6.7354,6.688,6.7489,6.7354,6.6812,6.5425,6.5425,6.5425,6.5425,6.5425,6.5425,6.5425,6.5425,6.5425,6.5425,6.5425,6.5425,6.5425,6.5425,6.5425,6.5425,6.5989,6.6088,6.5459,6.6022,6.6088,6.5459,6.5425,6.5425,6.5425,6.5425,6.5028,6.4233,6.4233,6.3902,6.3315,6.3216,6.3183,6.315,6.3083,6.2974,6.2974,6.3116,6.3183,6.3249,6.3935,6.4233,6.4299,6.4895,6.5194,6.526,6.526,6.5326,6.5425,6.5425,6.5425,6.5425,6.5425,6.5425,6.5425,6.5425,6.5425,6.5558,6.6187,6.687,6.7612,6.8241,6.897,6.95,6.95,6.8539,6.7566,6.7566,6.8294,6.8898,6.8944,6.9477,6.9863,6.991,6.9343,6.8923,6.9052,6.8775,6.8897,6.9735,7.0445,7.0951,7.1098,7.1199,7.1312,7.1312,7.1312,7.1278,7.1176,7.0432,7.0026,7.0026,6.9316,6.8977,6.9113,6.9722,7.0094,7.0195,7.077,7.0669,7.0026,6.9925,6.9519,6.8876,6.8098,6.776,6.7692,6.7083,6.6812,6.6812,6.6914,6.6914,6.6812,6.6914,6.6914,6.6812,6.5425,6.5425,6.5425,6.5425,6.5425,6.5425,6.5425,6.5425,6.5425,6.5425,6.5425,6.5425,6.5425,6.579,6.6022,6.6022,6.6717,6.7016,6.6639,6.6904,6.6817,6.6055,6.6022,6.5823,6.5425,6.5425,6.526,6.4962,6.4962,6.4796,6.4465,6.4067,6.3868,6.3835,6.3438,6.3315,6.3348,6.3746,6.3902,6.4011,6.4664,6.4962,6.4995,6.5293,6.5425,6.5425,6.5425,6.5425,6.5425,6.5425,6.5425,6.5425,6.5425,6.5425,6.5492,6.5922,6.5724,6.5657,6.6817,6.7334,6.7811,6.8506,6.9376,7.0035,7.0035,6.963,6.921,6.9071,6.949,6.9862,6.9756,6.9976,7.0129,6.9988,6.9816,6.9636,6.9432,6.9738,7.0131,7.0726,7.1109,7.1312,7.1312,7.1312,7.1312,7.1312,7.1312,7.1312,7.1312,7.0601,7.0398,7.0804,7.0094,6.9925,7.0331,7.0669,7.0804,7.0804,7.1142,7.1142,7.0804,7.0398,6.9789,6.9045,6.8233,6.7658,6.7252,6.6948,6.6812,6.6812,6.6812,6.6812,6.6812,6.6812,6.6812,6.688]}]]